GFSCGP_sfc_dewp_000.txt.gz
Dewpoint
26 23 20 21 24 24 21 20 21 22 24 26 25 24 24 21 21 22 23 25 26 29 33 33 32 33 32 31 31 33 33 33 35 35 35 34 34 37 38 40 46 46 45 43
24 23 24 22 25 23 21 24 23 25 26 28 26 25 19 18 20 22 25 25 26 28 30 32 32 31 30 30 30 31 31 33 34 34 35 34 34 35 36 37 39 45 44 41
23 23 24 22 23 22 21 25 25 25 28 28 26 23 18 20 25 25 25 26 26 26 28 31 33 32 32 31 32 32 31 32 35 36 34 35 36 36 36 36 37 40 42 42
25 23 20 24 23 24 21 24 27 27 27 24 26 23 21 19 21 24 25 25 25 27 29 28 29 33 35 34 34 33 34 34 35 37 35 33 32 32 33 34 35 38 41 41
22 20 20 23 22 26 23 28 30 30 28 27 25 22 20 20 19 22 26 28 28 30 29 29 30 30 31 34 36 37 37 36 37 38 38 37 34 35 35 36 34 35 38 40
23 23 23 24 27 30 30 31 32 32 28 24 26 22 21 22 21 26 29 29 30 30 31 32 33 34 36 38 38 40 39 39 39 40 39 39 37 36 36 36 37 39 37 37
30 26 26 30 28 31 30 30 25 23 23 23 28 25 22 24 25 26 27 28 29 29 31 31 35 37 38 38 39 39 39 40 41 41 41 41 40 39 37 36 37 38 35 35
31 28 31 30 30 28 30 31 26 21 21 24 27 23 24 25 27 26 26 28 30 32 33 34 37 38 39 39 39 39 38 37 37 39 39 40 40 41 41 38 38 36 36 35
31 30 34 31 32 31 30 29 32 27 23 23 27 28 25 27 30 30 31 32 33 34 36 37 38 39 39 38 39 39 39 38 38 38 37 35 35 36 33 32 34 34 33 33
35 31 35 35 35 33 31 32 28 29 19 25 26 26 25 28 32 33 32 32 33 33 34 36 37 39 39 39 40 41 40 39 39 33 34 31 31 32 32 32 31 32 34 38
35 34 32 33 33 32 29 31 32 32 30 27 25 28 30 32 33 33 34 34 33 33 34 37 38 39 39 39 40 40 39 39 32 29 33 32 29 30 29 30 31 31 33 35
36 32 28 30 34 35 33 33 33 27 28 28 27 28 32 33 32 34 33 34 34 34 36 38 39 39 39 39 39 39 40 34 30 31 32 31 29 27 28 29 30 31 30 30
34 30 26 26 28 34 33 33 34 33 29 27 21 26 30 31 32 33 33 34 35 37 39 39 39 39 40 39 39 40 40 32 32 31 29 27 26 25 28 28 28 29 28 28
38 34 29 26 27 34 32 33 32 31 23 28 29 29 29 30 32 34 36 36 36 39 39 39 39 39 40 39 39 40 33 34 34 32 26 25 26 27 29 28 29 28 28 28
36 30 32 33 34 35 34 34 34 32 30 28 28 28 30 34 34 35 36 37 38 38 39 39 39 39 40 39 40 35 36 36 35 30 30 32 33 32 31 29 30 32 31 30
38 30 32 32 35 36 34 34 33 32 31 30 30 28 37 38 38 38 38 38 38 39 39 38 40 40 39 39 39 36 36 37 37 37 39 38 36 36 36 36 36 34 31 28
34 30 28 28 33 33 30 30 30 29 30 29 28 31 38 39 39 39 39 39 39 39 37 38 40 40 39 38 36 37 37 39 39 39 39 40 40 38 37 36 34 28 25 23
31 29 29 28 31 25 30 32 31 30 31 32 36 37 38 39 39 40 40 39 39 39 38 39 40 38 37 37 37 37 38 39 38 38 38 37 37 35 31 27 25 22 21 20
38 34 29 27 29 29 30 31 30 29 30 37 37 39 39 40 40 38 37 40 40 39 40 40 38 37 37 36 36 37 36 37 33 26 26 26 26 25 24 21 20 20 19 19
36 32 26 29 26 24 26 29 36 36 28 38 39 39 39 39 36 37 40 40 37 39 38 36 35 35 35 36 32 24 23 24 24 26 24 24 25 23 21 20 20 19 18 19
27 30 25 19 23 25 30 32 36 23 26 35 38 39 40 40 40 41 41 37 38 36 35 35 35 35 35 33 29 20 21 22 23 25 25 24 24 22 21 19 18 18 19 22
25 23 28 26 27 25 35 35 31 34 36 37 37 39 41 41 40 38 36 37 35 34 34 34 35 34 34 21 19 18 19 23 24 25 24 24 24 23 19 18 18 19 21 19
30 30 28 28 28 33 35 36 37 39 37 37 40 42 40 39 37 37 34 34 34 34 34 34 34 32 30 19 21 21 23 25 25 25 25 25 24 22 19 18 19 19 19 17
34 35 31 32 32 33 35 36 37 37 39 43 43 43 41 39 39 34 34 33 33 33 32 33 34 30 29 23 22 24 25 24 24 24 25 25 24 22 20 21 19 19 16 15
37 38 36 36 36 36 36 36 39 41 43 40 40 39 39 36 33 34 32 32 32 32 33 34 36 35 28 23 23 23 24 25 24 25 25 25 24 21 21 21 20 21 20 19
38 35 35 34 36 36 37 41 39 38 38 38 37 35 31 31 34 33 31 31 31 32 36 34 34 25 23 24 23 25 26 24 24 24 24 22 21 20 20 20 21 23 23 22

GFSCGP_sfc_dewp_003.txt.gz
Dewpoint
27 22 18 20 23 23 21 21 23 22 24 27 27 26 26 24 21 21 21 23 28 30 32 31 32 32 32 34 33 29 29 31 36 36 36 35 35 36 38 39 41 47 47 46
25 21 23 23 24 22 24 23 21 25 26 28 27 25 18 19 20 23 25 27 28 30 30 30 31 30 29 30 31 31 32 32 33 34 34 34 34 34 35 37 38 44 47 46
23 23 22 23 23 21 20 23 23 24 27 28 26 23 18 21 25 25 25 26 27 29 31 31 30 29 29 29 30 30 30 31 33 35 34 34 35 36 35 35 36 37 43 46
24 21 22 22 22 23 21 23 26 27 27 23 26 20 22 19 22 24 25 25 26 27 28 29 31 32 32 32 33 33 33 33 34 35 35 34 33 32 34 35 35 35 40 40
24 18 22 22 23 26 25 30 29 30 27 28 25 21 23 23 19 24 27 28 28 29 28 28 30 30 31 33 34 37 38 38 38 38 38 39 38 38 38 38 37 36 36 41
28 24 24 25 28 30 30 31 30 30 28 23 25 23 20 22 23 27 28 29 31 29 31 32 34 36 38 39 39 39 39 39 39 39 40 40 39 39 39 39 38 38 38 38
32 30 31 30 28 31 31 30 23 20 22 22 28 23 22 25 26 28 28 28 29 29 30 33 35 37 38 38 38 38 38 38 38 39 39 38 38 39 39 39 39 38 35 35
30 25 32 32 30 28 30 30 25 18 20 24 27 24 24 27 27 28 28 29 32 34 34 36 37 38 38 39 39 39 39 38 38 39 36 36 36 38 39 39 37 37 34 34
31 29 34 34 35 31 31 29 31 27 22 22 27 28 27 30 32 30 31 33 34 35 36 37 38 38 37 38 39 39 39 39 39 37 33 34 34 34 35 33 34 34 34 36
34 31 34 34 34 34 31 32 28 29 18 22 27 28 26 29 32 33 32 32 32 33 34 36 37 38 38 38 39 40 39 39 39 30 31 33 33 32 32 33 33 33 36 39
34 33 29 31 31 31 31 31 31 31 29 24 21 27 32 32 32 33 33 33 32 33 34 36 37 38 38 39 39 39 39 39 35 31 32 33 34 31 30 31 32 34 36 36
36 31 28 29 33 35 33 32 31 29 25 27 23 27 31 32 33 34 33 34 35 35 36 38 39 39 39 39 39 38 39 38 32 34 33 33 33 30 28 30 30 32 30 30
34 29 25 23 27 30 32 33 33 31 28 27 21 25 31 32 33 34 35 36 36 36 38 39 39 39 39 40 39 39 40 34 34 34 32 29 28 26 27 28 30 29 28 27
37 32 27 25 24 31 32 33 33 31 22 27 28 28 30 31 34 35 36 37 37 37 38 39 39 39 39 40 39 39 36 36 35 34 29 25 24 26 28 28 30 32 32 29
35 30 32 32 32 34 34 34 34 33 32 30 30 29 30 32 36 37 37 37 38 38 38 39 39 38 39 40 39 38 36 36 37 36 31 32 33 32 32 36 37 35 34 32
37 29 31 30 34 35 34 34 34 34 33 32 30 29 30 37 39 39 39 39 38 38 39 39 37 38 40 39 38 36 36 37 38 37 38 39 39 39 39 38 38 37 37 35
34 29 28 23 32 30 25 29 32 31 29 28 27 29 36 37 38 39 39 39 38 38 39 37 37 39 39 37 36 36 36 38 37 37 38 39 38 39 38 38 37 36 29 25
31 29 28 23 31 21 27 31 30 29 30 30 31 36 37 38 39 40 40 40 38 39 36 35 39 39 36 36 35 36 36 36 37 34 29 29 31 30 29 27 24 23 22 21
35 33 30 30 28 27 30 29 29 28 27 33 36 37 38 36 39 37 39 39 37 34 34 37 38 36 35 34 33 28 26 27 26 26 26 26 28 25 24 22 21 21 20 20
35 29 27 28 26 24 27 27 32 35 29 36 38 37 35 37 35 36 41 38 38 36 37 36 34 34 34 34 27 27 25 24 24 27 26 25 25 24 22 21 19 19 20 22
26 30 27 28 26 26 30 31 34 28 28 34 37 37 36 37 39 41 39 37 36 36 35 35 34 34 34 31 24 20 21 23 23 25 25 24 25 24 22 19 20 20 22 22
25 26 24 27 25 23 33 35 32 35 36 36 37 37 38 40 39 38 37 37 35 34 33 33 33 34 33 23 21 19 19 23 24 24 24 24 25 22 19 20 20 20 20 19
30 30 27 29 28 32 33 36 37 38 37 37 38 42 42 39 38 36 35 35 34 33 33 32 32 33 31 23 21 21 22 23 24 24 24 24 24 22 20 20 19 19 19 17
36 37 31 32 34 33 36 37 37 38 39 43 39 38 37 36 34 32 33 34 32 32 31 31 33 34 34 32 22 22 24 23 24 23 24 25 23 21 21 20 20 19 17 16
37 39 36 35 37 38 37 38 41 42 40 38 37 37 37 34 31 30 31 32 31 30 31 34 34 33 32 30 23 22 23 24 23 24 24 23 23 22 21 20 21 22 21 18
39 36 35 36 37 37 38 41 41 39 37 37 36 36 34 30 29 30 33 32 30 29 32 34 32 32 27 23 23 22 24 24 24 24 24 22 20 20 21 19 20 22 22 22

GFSCGP_sfc_dewp_006.txt.gz
Dewpoint
26 21 18 20 22 22 20 19 22 28 25 27 27 26 22 20 21 21 20 24 29 30 31 32 32 34 35 36 33 32 34 35 37 37 37 36 36 36 38 39 41 44 47 48
24 20 22 24 23 21 21 22 19 23 26 28 27 25 18 22 23 25 27 28 28 29 29 30 30 30 31 33 33 31 30 31 32 34 34 35 34 35 35 37 38 39 42 45
22 22 24 23 23 23 23 20 21 23 26 29 25 21 22 21 25 25 26 27 29 29 28 30 30 29 29 30 30 30 30 31 33 34 34 34 35 35 35 35 35 36 39 41
23 21 23 25 23 24 23 23 25 26 27 23 25 18 24 23 22 25 25 25 26 28 30 31 31 30 34 31 33 34 35 36 36 38 37 37 35 35 37 37 37 37 38 39
21 21 25 26 25 27 26 31 30 29 28 27 25 20 21 23 20 23 26 27 27 28 28 28 29 33 38 36 38 39 39 39 39 38 39 39 38 39 40 40 39 40 40 39
30 27 26 26 28 30 31 31 27 29 27 23 25 23 21 23 24 26 28 28 29 32 30 33 36 38 38 38 38 39 39 39 39 39 39 38 37 37 37 37 39 40 40 38
31 30 33 30 30 32 31 26 20 20 21 22 27 24 21 25 26 27 27 28 29 31 32 32 37 37 37 38 39 39 39 38 39 39 35 34 34 35 35 35 37 38 38 34
30 22 31 32 30 28 29 29 23 15 19 23 27 23 24 27 29 28 28 32 34 35 37 37 37 37 37 37 38 39 39 38 39 38 33 34 35 35 35 35 36 36 34 35
31 28 34 34 35 31 30 29 31 26 21 21 26 28 28 31 32 32 32 33 32 33 34 35 37 38 38 38 39 39 39 39 40 38 33 35 35 35 35 34 34 34 34 38
34 30 32 33 33 33 31 32 26 28 18 20 25 26 26 30 31 32 32 31 32 33 35 37 37 38 39 39 39 40 39 39 40 35 34 35 35 35 35 33 33 33 35 38
33 32 26 30 30 31 31 30 30 30 28 21 20 25 31 30 32 32 32 34 35 35 34 35 37 39 39 39 39 40 39 39 40 33 35 35 35 34 33 32 32 33 36 36
35 30 26 26 31 35 33 31 30 24 22 26 23 25 31 32 34 33 35 35 37 37 36 36 38 39 39 39 40 40 39 40 35 35 35 35 33 29 29 30 31 32 30 29
34 29 23 19 26 30 32 33 32 29 28 26 21 24 31 32 33 34 35 36 37 37 37 38 39 39 39 39 40 40 40 37 36 36 35 30 27 26 28 28 31 32 32 31
37 31 25 21 22 28 30 33 33 31 29 27 27 28 30 31 32 35 37 38 38 38 38 38 39 39 39 39 40 40 39 37 37 37 34 32 31 29 32 35 35 35 34 33
35 30 31 31 31 32 32 33 33 32 31 30 29 29 31 32 32 37 38 38 39 38 39 39 39 39 38 39 40 39 37 37 38 37 37 35 37 37 36 36 37 36 36 36
36 28 30 30 33 33 32 33 34 34 33 33 33 32 33 32 37 38 38 39 39 39 38 39 37 37 39 40 38 36 36 37 38 37 37 39 39 39 37 37 37 37 36 36
33 28 28 23 30 29 22 25 30 31 31 30 26 28 31 35 37 36 37 39 39 38 36 33 32 34 37 37 36 35 36 37 37 36 31 31 33 35 35 36 36 34 30 25
31 28 28 24 30 23 27 30 29 29 29 29 30 30 35 37 37 37 40 39 37 36 36 35 33 35 36 35 35 34 32 31 29 29 30 31 30 28 26 24 23 23 22 21
34 32 28 29 28 28 30 29 28 28 26 30 32 35 36 36 36 35 38 38 38 38 37 35 36 35 34 34 29 25 25 25 27 31 31 30 25 24 24 22 21 21 20 21
34 29 26 29 26 23 27 28 31 35 27 35 37 35 35 36 33 36 39 39 37 34 35 36 35 34 33 34 30 27 28 26 24 27 25 24 25 24 22 20 20 20 21 23
26 29 31 30 28 27 30 31 34 28 28 35 35 37 36 35 38 37 37 34 30 34 35 35 34 32 34 34 27 24 22 22 24 24 24 24 24 23 20 20 20 20 21 21
23 22 21 26 26 22 31 34 31 34 38 37 37 37 40 38 37 36 34 32 30 34 34 33 32 32 34 33 23 23 25 22 23 24 23 23 24 22 20 20 20 19 19 18
28 29 29 32 28 32 33 37 36 37 38 38 38 39 38 35 34 33 32 31 30 34 33 32 31 32 33 31 25 32 32 25 23 23 22 23 24 22 20 20 19 19 19 16
35 37 34 33 34 37 39 38 39 41 41 39 39 38 37 35 36 33 32 30 30 32 31 30 31 33 32 33 33 26 23 23 23 23 23 23 23 22 20 20 20 20 17 16
37 37 36 35 38 38 38 40 40 39 40 39 38 37 35 33 33 32 30 31 32 32 30 31 32 32 32 31 29 25 22 23 23 23 24 24 23 22 22 21 19 22 21 18
38 37 33 33 36 41 41 41 41 39 37 37 36 34 35 34 30 32 32 32 32 31 31 31 32 31 31 28 24 24 23 24 23 24 24 21 20 19 21 19 19 21 21 21

GFSCGP_sfc_dewp_009.txt.gz
Dewpoint
29 23 21 22 23 22 21 20 21 22 26 28 28 26 20 24 24 24 25 27 28 31 32 33 36 38 39 43 45 45 45 46 45 42 41 40 41 40 41 40 43 45 45 48
25 23 22 24 24 21 22 21 19 24 26 28 28 23 22 25 26 28 29 30 31 31 31 33 35 38 39 41 41 37 36 37 37 37 39 40 40 40 40 42 44 44 44 44
25 20 25 24 25 26 25 21 22 23 26 28 26 22 24 22 26 27 28 29 30 31 31 31 33 35 38 37 38 36 37 39 41 42 40 41 42 41 40 38 39 40 44 44
22 24 27 28 26 26 25 25 29 27 28 23 27 19 24 24 24 26 26 28 30 30 31 32 34 36 39 40 43 42 42 41 41 43 41 41 38 36 38 40 39 41 44 44
21 26 28 29 26 29 29 31 30 29 29 27 27 21 23 25 23 23 27 28 30 32 33 35 39 39 40 42 43 43 42 41 42 41 40 39 40 39 39 39 39 40 41 42
30 30 28 28 29 31 32 31 28 29 29 26 26 24 24 25 25 26 28 29 32 33 33 36 40 40 40 42 43 44 42 41 42 42 40 41 41 40 39 40 39 38 39 39
31 30 33 32 30 33 32 27 24 28 28 26 27 25 24 28 28 28 29 31 36 38 38 38 38 38 40 40 42 42 41 40 42 43 39 39 41 41 40 39 38 38 38 38
29 24 31 34 31 29 32 30 28 19 24 25 28 24 26 31 32 31 34 35 35 36 38 39 38 39 39 40 41 42 41 40 41 43 40 39 40 39 38 38 38 38 37 37
31 27 33 35 35 32 30 31 31 28 25 29 26 28 30 31 32 34 32 34 35 35 37 38 39 40 40 41 42 43 42 40 41 43 40 40 40 39 38 39 37 36 37 39
34 30 32 33 33 34 32 32 28 31 25 21 23 26 24 29 31 32 33 36 37 37 37 38 38 40 41 42 43 44 43 40 41 42 38 38 38 38 37 34 35 36 38 41
33 32 28 30 32 31 32 31 31 31 30 28 26 25 32 31 32 32 34 36 38 38 38 38 39 40 41 42 41 42 42 41 41 37 38 39 38 34 31 33 35 36 38 36
35 32 28 27 32 35 33 31 29 27 23 29 29 26 30 33 33 34 35 37 38 39 39 39 40 40 41 40 40 41 42 41 38 38 38 37 33 30 31 33 33 35 33 32
35 32 24 18 27 30 32 33 31 31 31 29 29 25 30 33 33 34 36 37 38 39 39 40 39 40 39 38 40 41 41 38 37 38 38 34 33 31 37 37 38 38 37 36
39 32 27 22 20 28 30 33 32 33 32 28 29 28 30 31 32 33 35 38 38 39 40 40 40 36 36 38 40 39 38 38 37 38 37 36 36 36 37 38 38 38 37 36
37 34 32 31 32 32 31 31 32 32 33 31 30 29 31 32 34 34 38 38 38 38 40 39 35 34 35 37 38 37 37 37 39 38 38 38 39 38 38 35 34 35 35 34
36 33 34 32 33 32 32 32 33 33 33 33 33 33 34 35 36 38 37 37 37 39 37 35 34 33 33 37 36 36 36 37 39 38 32 31 31 31 32 33 34 34 31 27
36 34 32 27 31 31 27 26 30 31 32 31 28 29 32 34 37 36 36 37 38 35 34 32 29 32 36 36 35 34 35 36 35 31 29 30 32 28 27 25 24 24 24 24
34 33 32 31 31 24 28 30 30 31 30 30 29 31 34 36 37 37 38 37 37 36 33 29 30 35 37 35 33 33 32 31 30 30 31 32 28 25 25 24 23 22 22 22
36 35 32 29 28 29 29 30 29 30 27 31 35 36 37 38 38 37 38 38 36 34 34 31 35 37 35 32 35 28 27 27 28 29 29 25 25 24 24 22 21 22 22 22
35 33 34 31 28 26 30 28 32 34 29 36 37 38 38 38 35 37 37 37 36 32 30 31 36 35 32 33 35 33 30 30 28 26 24 24 24 23 22 22 21 21 21 20
30 31 30 30 29 31 32 32 33 30 33 38 37 38 38 37 38 38 38 36 33 33 30 34 36 32 31 34 35 31 26 25 27 25 24 22 22 23 23 21 21 20 19 23
28 29 28 28 28 25 31 33 34 38 41 39 39 40 38 39 37 35 35 33 30 31 31 33 34 31 32 34 32 26 27 31 33 25 23 22 23 23 20 20 20 19 21 23
31 32 31 32 32 33 34 36 40 40 40 40 40 39 38 36 34 31 34 32 32 31 31 33 32 31 32 34 32 29 32 33 28 24 24 23 23 22 21 20 20 19 20 22
35 36 36 34 37 36 38 40 42 41 40 39 39 38 37 34 33 33 32 32 31 30 31 32 31 31 32 34 32 32 31 27 24 23 24 24 24 23 23 22 22 20 23 22
37 38 37 35 37 37 38 41 42 40 40 38 37 36 36 35 33 32 31 31 31 31 31 32 32 32 33 33 32 27 24 24 22 23 23 24 25 24 22 23 21 22 24 22
39 38 37 35 38 40 40 42 42 38 37 35 35 33 31 32 31 31 30 31 31 31 31 30 29 30 27 26 24 25 25 24 24 23 24 26 25 24 22 19 20 21 21 22

GFSCGP_sfc_dewp_012.txt.gz
Dewpoint
26 21 21 23 24 21 19 17 17 17 24 27 26 22 21 24 24 26 25 26 31 36 34 35 39 41 41 47 48 47 48 45 45 42 40 40 41 40 41 42 45 47 46 46
21 23 23 25 23 21 21 19 18 22 25 28 26 21 22 25 27 28 28 29 31 31 32 35 39 42 44 44 42 40 39 40 40 39 41 43 44 43 43 43 44 43 44 43
21 21 24 25 26 25 25 22 25 25 26 27 26 23 21 24 26 27 29 29 29 30 32 33 36 40 42 43 43 40 42 43 44 43 41 41 41 41 39 39 38 39 41 40
23 27 27 26 27 28 23 27 29 27 26 18 28 17 23 22 24 26 28 31 31 31 32 34 37 39 43 45 45 43 43 41 42 44 41 43 39 38 40 40 39 39 41 40
23 27 27 27 27 30 29 32 30 30 27 26 25 19 25 24 22 24 27 30 33 34 36 38 39 40 42 44 45 45 43 42 42 41 43 41 42 41 40 40 41 39 37 37
28 30 30 30 30 30 32 31 30 31 30 27 27 24 24 25 27 26 28 32 35 36 35 39 40 40 41 44 45 45 42 41 43 43 42 43 43 42 40 38 37 35 35 35
27 29 32 34 28 32 30 27 27 29 29 27 27 24 28 28 29 31 32 34 37 39 39 38 38 38 40 42 44 43 42 40 41 42 41 40 41 41 40 38 36 36 34 35
25 26 32 34 33 30 31 30 31 21 25 24 26 21 27 31 32 33 34 35 36 36 38 38 38 39 40 42 43 44 41 39 38 40 39 40 42 41 38 38 36 36 36 37
29 27 32 33 33 33 30 31 32 30 31 31 24 27 30 31 31 32 33 35 36 36 36 37 37 39 41 42 43 44 43 41 41 42 43 42 42 40 38 37 37 36 38 37
33 28 30 31 34 34 32 32 30 31 29 17 14 19 19 30 30 31 32 34 36 36 37 38 38 39 40 42 44 44 43 41 42 42 41 40 40 38 36 36 36 38 39 40
31 31 28 31 31 30 32 32 30 29 31 25 22 16 30 30 32 31 33 34 36 37 38 38 39 39 41 42 41 41 42 41 39 39 39 39 38 35 35 36 36 37 37 34
36 34 27 24 33 34 32 30 29 29 21 30 31 22 29 31 32 34 34 35 37 38 37 38 39 40 41 39 38 37 38 38 37 37 37 36 36 35 35 36 36 37 36 36
36 32 22 23 31 32 31 31 32 32 33 29 31 24 27 30 32 31 34 35 36 36 36 38 39 39 38 36 36 36 37 37 37 35 34 34 36 36 36 36 36 37 36 36
40 33 27 18 19 26 25 25 29 30 32 27 28 26 27 27 28 30 33 36 36 37 37 39 39 38 35 33 33 36 37 37 34 35 34 34 37 37 37 35 34 34 34 33
38 30 32 29 28 28 28 27 26 26 29 30 29 26 28 29 30 33 35 37 36 37 39 38 37 33 30 30 36 36 34 34 35 35 34 34 34 32 31 31 30 30 30 26
37 33 34 30 30 28 29 27 26 28 30 30 29 29 30 31 34 36 36 36 37 38 36 35 33 27 28 32 36 32 30 32 36 34 33 31 31 30 29 29 28 26 23 23
37 37 34 33 31 31 32 30 26 27 30 30 29 29 32 34 36 37 37 37 37 36 35 33 28 26 31 35 32 29 30 32 33 32 30 29 30 29 27 24 20 21 23 24
39 38 36 35 34 29 28 29 29 30 29 28 28 32 35 36 37 37 38 38 37 36 30 27 27 28 33 34 29 31 29 29 30 30 29 29 27 26 23 20 20 23 23 23
39 39 35 32 28 28 28 29 30 29 29 32 34 36 36 37 37 36 38 39 38 36 31 29 28 30 34 33 30 31 31 29 29 28 28 27 26 24 19 19 22 23 23 23
36 38 40 34 30 28 31 30 32 34 29 36 39 40 39 39 36 37 38 38 34 32 29 27 27 30 33 33 31 32 30 28 26 27 28 26 25 22 19 22 23 24 22 21
34 34 34 32 32 31 32 32 35 32 36 40 40 40 39 37 38 39 40 32 29 28 27 27 26 28 31 31 31 31 29 26 23 26 27 26 24 21 21 23 24 23 22 24
31 36 33 34 30 29 33 32 36 37 40 41 40 40 39 39 38 34 30 28 25 24 24 25 26 26 28 29 30 30 27 24 26 30 29 26 23 21 20 23 23 23 23 25
32 33 32 32 34 34 36 37 38 41 41 40 40 38 39 34 31 27 25 24 24 25 25 25 25 27 27 27 28 30 28 29 30 31 27 25 24 23 23 23 24 22 22 25
35 35 36 36 35 35 37 38 41 42 41 40 38 34 31 30 28 24 24 24 26 25 24 26 26 24 25 28 30 31 33 35 32 28 25 25 24 24 24 23 22 20 23 24
36 37 35 36 37 38 36 41 42 41 40 38 31 31 30 23 22 22 23 23 22 23 25 26 24 25 24 26 28 29 26 25 23 23 23 24 26 25 24 22 20 22 23 23
37 35 37 37 39 40 40 39 41 41 34 31 30 24 21 21 22 22 21 22 23 25 27 25 25 25 25 25 28 25 26 26 26 24 24 27 27 27 25 21 20 23 22 20

GFSCGP_sfc_dewp_015.txt.gz
Dewpoint
24 20 20 22 21 17 13 12 12 14 21 21 18 18 19 24 24 27 27 26 26 30 39 39 41 42 45 49 50 51 51 48 45 42 41 40 41 41 42 43 45 47 45 45
18 22 22 22 21 18 18 17 17 19 22 22 20 19 21 24 26 26 27 30 33 35 34 38 42 44 45 45 44 43 42 42 41 40 42 45 45 43 43 44 44 43 44 43
21 22 22 23 21 21 22 21 25 23 22 23 22 20 21 23 25 27 27 28 29 31 32 35 39 42 45 45 43 42 42 43 44 44 41 41 42 42 40 40 41 41 43 42
22 26 24 22 24 26 23 26 26 25 23 18 22 17 22 22 24 26 28 30 31 31 33 35 38 42 45 46 45 43 42 42 42 45 42 45 41 40 42 42 41 41 41 39
24 24 25 25 26 28 27 31 28 27 25 23 19 15 24 22 22 25 29 31 33 35 37 38 39 41 42 45 46 45 42 42 43 44 44 43 43 42 42 41 41 41 39 39
26 28 29 29 28 28 31 30 29 30 26 25 24 20 23 23 26 26 29 32 34 35 37 38 39 39 41 44 46 46 43 41 42 44 44 44 43 42 40 40 39 37 38 37
26 28 30 31 29 31 29 27 29 29 28 27 24 18 28 28 28 29 31 33 37 39 39 37 38 38 40 42 43 44 42 42 41 42 42 43 41 42 41 39 38 37 35 36
23 28 29 31 31 29 28 30 32 21 24 23 24 16 26 30 31 32 32 34 35 37 38 38 38 40 40 41 43 44 43 42 42 43 43 43 42 40 39 39 37 36 36 38
26 27 30 32 32 31 29 29 30 30 32 31 19 23 29 30 31 31 32 33 34 34 35 36 38 39 40 41 42 44 43 40 40 42 43 43 41 40 39 38 37 37 38 36
30 28 28 30 32 33 31 30 30 31 28 17 13 12 21 30 30 31 31 32 33 34 35 37 38 40 40 41 43 43 42 40 40 40 40 39 39 39 37 37 36 36 37 37
28 27 28 28 29 27 30 30 29 25 28 25 20 17 26 26 28 30 31 31 34 36 37 37 37 39 39 41 40 39 38 38 37 37 37 38 37 36 35 35 36 37 37 37
33 31 28 21 30 33 31 29 27 29 22 27 29 24 27 28 28 30 31 32 35 36 36 36 37 39 39 39 38 37 36 34 35 35 34 33 33 34 34 35 36 36 37 36
34 32 24 22 30 31 28 28 26 28 32 26 31 25 26 28 29 29 29 32 34 36 37 38 39 38 38 37 35 32 34 35 34 32 30 31 32 33 35 36 35 33 32 32
39 30 25 23 20 21 22 21 22 26 30 29 27 24 25 26 28 29 31 33 36 37 37 38 37 37 36 33 29 32 33 35 32 29 30 31 32 32 33 32 31 30 28 26
36 29 29 27 23 22 22 23 23 21 23 27 28 25 26 29 30 32 34 35 35 35 37 37 37 34 30 27 29 31 33 31 30 30 30 31 31 31 31 31 28 27 25 22
34 33 34 30 26 23 25 23 22 22 24 25 25 26 30 31 31 33 35 36 35 37 37 37 30 27 25 26 28 31 30 30 30 29 29 29 30 31 31 29 27 23 22 21
35 37 32 31 32 32 33 30 22 23 25 28 29 29 30 31 34 36 36 37 37 38 37 35 28 27 27 27 29 30 28 29 28 28 27 28 31 31 28 25 20 20 22 23
40 36 39 36 35 30 28 28 27 26 27 27 27 29 33 35 36 37 38 38 38 37 35 32 29 27 25 26 27 30 28 28 27 26 27 30 30 29 25 23 20 22 22 23
38 40 36 34 29 27 27 29 30 30 30 29 33 35 35 36 38 36 38 39 38 36 33 29 26 24 24 24 26 26 27 26 25 25 23 26 29 28 24 22 21 22 22 23
37 41 39 36 31 29 31 30 32 33 30 37 37 37 37 39 37 37 38 38 35 30 26 24 24 24 23 23 24 24 23 23 24 26 22 25 26 25 24 22 22 23 22 21
36 37 37 33 34 31 29 32 34 30 34 39 41 39 39 37 39 39 39 34 28 24 21 23 23 22 22 23 24 22 21 22 23 25 26 29 32 29 24 22 23 22 22 25
33 35 33 35 33 29 32 32 35 38 41 40 41 39 39 38 36 34 29 25 22 21 21 20 21 21 23 22 21 20 20 24 30 32 32 34 33 27 22 23 23 22 22 25
31 34 34 33 33 32 35 36 39 40 41 41 40 40 39 34 31 28 24 22 21 20 17 17 18 21 21 20 20 19 23 27 31 34 34 34 28 26 22 22 22 21 22 24
33 32 37 37 33 32 35 39 41 42 42 40 40 39 31 30 27 23 22 21 19 15 15 16 19 19 20 21 20 22 27 28 27 28 28 27 25 24 24 21 19 19 24 24
37 35 36 38 35 35 36 40 41 41 41 40 36 31 30 25 22 22 19 17 16 17 17 20 21 21 21 22 24 26 27 27 26 26 24 25 25 24 24 22 21 22 24 24
35 35 39 38 37 40 41 42 41 40 40 32 31 27 25 25 21 18 17 18 18 19 21 20 20 22 23 25 26 27 28 28 28 27 25 27 27 27 25 21 21 24 23 21

GFSCGP_sfc_dewp_018.txt.gz
Dewpoint
23 20 21 22 20 15 13 10 10 16 20 18 15 15 17 22 23 27 28 32 29 39 40 42 45 48 51 53 52 53 52 52 50 48 48 49 50 49 50 49 51 50 50 49
16 19 22 19 17 16 15 15 15 18 20 19 16 18 21 23 26 26 27 29 36 37 39 43 45 47 49 48 48 47 46 48 47 47 48 49 49 49 48 50 49 49 49 48
24 22 20 19 18 20 19 19 25 22 21 21 20 19 21 23 25 26 30 32 34 35 37 39 43 47 50 49 49 45 46 47 48 49 46 47 48 48 46 47 46 47 48 46
23 23 20 19 21 25 20 28 26 22 22 18 21 15 21 23 24 26 29 33 33 34 35 38 43 46 48 49 50 47 46 46 46 49 48 49 46 44 46 47 46 45 46 45
22 22 23 24 26 26 25 29 26 25 24 23 18 18 22 23 24 28 31 33 36 38 39 39 41 43 45 50 50 50 48 45 47 48 49 48 47 47 46 45 45 44 44 43
25 26 28 28 27 26 28 29 28 28 27 30 21 20 27 23 24 27 30 33 35 37 39 39 41 43 45 49 50 50 47 45 46 46 46 47 47 46 44 44 42 41 39 39
25 27 29 28 28 31 28 27 32 34 33 32 26 17 29 28 28 28 31 35 38 40 41 40 39 40 43 46 47 47 46 44 45 48 46 48 46 46 43 42 40 39 38 39
23 28 28 29 29 27 27 27 36 26 29 27 21 16 26 30 31 32 33 35 36 38 40 40 40 42 43 45 46 46 45 43 42 46 46 47 45 43 42 41 39 39 39 39
25 27 29 29 29 28 29 29 26 32 34 33 19 27 29 30 30 31 32 33 34 36 38 39 40 43 43 44 46 46 44 42 43 45 45 44 44 43 41 40 40 40 40 37
27 29 26 27 29 32 28 26 30 35 30 22 15 17 27 29 30 31 30 32 33 34 36 39 39 42 43 43 45 46 44 41 41 40 41 39 40 40 40 39 39 39 38 38
28 27 28 26 27 25 28 28 27 24 30 28 24 19 24 25 29 30 31 31 35 37 37 38 39 41 42 44 43 42 39 37 37 38 39 39 39 38 39 39 38 38 38 36
30 29 36 22 27 28 27 27 26 35 27 35 33 24 26 28 29 32 33 33 36 37 38 39 40 41 41 40 41 38 37 37 37 37 36 35 36 36 38 37 37 37 36 36
33 34 32 25 30 30 23 25 24 29 36 30 30 26 26 30 34 34 32 33 37 37 37 38 39 39 38 38 37 34 35 35 35 32 31 32 34 35 35 35 36 36 34 33
41 28 26 28 21 21 21 19 20 22 33 31 30 25 25 27 30 32 33 35 35 37 37 38 37 37 36 33 32 31 33 37 34 31 30 31 35 34 34 34 34 34 32 29
36 31 30 27 23 21 20 20 20 20 23 26 26 22 25 30 30 33 35 35 36 36 37 37 37 35 31 31 30 31 33 35 34 32 30 33 34 33 34 35 34 33 31 27
35 37 37 33 24 23 24 23 23 22 22 21 24 25 28 34 36 37 37 36 36 37 37 37 35 31 29 29 29 29 31 34 33 32 31 31 33 33 34 34 34 32 28 27
37 41 37 34 32 32 35 33 24 25 26 26 29 30 35 34 35 35 36 37 38 37 36 35 32 32 29 26 27 26 28 31 34 33 31 32 34 32 34 32 29 27 27 27
40 39 39 35 35 28 26 26 26 27 26 26 26 32 34 35 35 35 38 37 36 36 35 34 32 27 26 25 25 26 24 25 26 28 28 31 33 32 31 30 29 28 27 27
37 41 36 34 29 28 26 30 30 30 29 30 34 35 36 35 36 35 38 38 37 36 34 29 25 24 25 24 24 25 24 23 23 24 30 32 34 29 31 30 29 27 26 26
38 43 41 34 31 26 33 30 33 32 30 37 38 38 37 37 35 35 36 36 33 28 24 21 23 22 22 23 24 22 21 21 21 30 33 33 34 36 35 35 30 27 26 25
35 37 35 34 32 32 30 32 34 28 34 41 40 39 38 37 38 37 36 32 25 22 21 23 21 20 21 22 21 21 20 20 24 30 32 32 34 35 35 33 27 26 26 28
33 34 32 35 32 29 32 31 35 39 42 42 41 39 39 40 37 32 28 24 21 19 18 16 17 18 21 20 21 20 19 25 27 28 30 32 37 36 30 28 27 26 25 27
33 38 37 35 35 37 37 36 40 43 42 42 40 40 39 36 29 27 23 22 21 16 14 16 16 20 21 21 20 21 25 26 28 28 29 30 31 29 28 27 25 23 25 26
31 30 41 39 34 32 36 38 42 41 41 40 40 39 38 30 29 24 24 21 18 15 16 17 19 19 21 22 23 27 27 28 28 27 27 26 26 26 26 24 23 23 26 25
38 35 35 37 35 36 37 41 41 40 41 40 39 34 29 26 24 23 20 19 19 18 20 21 21 21 22 24 27 27 26 29 27 27 27 28 29 28 26 24 24 26 26 24
37 35 38 38 39 41 41 42 42 43 41 39 30 27 26 25 19 19 20 21 20 21 21 20 22 24 24 27 27 28 27 28 28 27 27 27 28 28 26 25 24 26 25 22

GFSCGP_sfc_dewp_021.txt.gz
Dewpoint
27 24 23 21 21 17 16 16 19 19 20 20 19 13 22 24 23 23 29 37 39 42 43 43 45 47 49 45 46 47 48 46 46 45 45 45 45 45 45 46 45 48 46 46
25 24 22 23 22 22 18 20 24 21 22 19 18 19 23 25 26 28 35 37 39 41 42 44 46 47 46 44 44 44 44 44 45 45 45 46 45 46 46 46 46 47 45 44
24 23 24 21 26 24 26 26 25 24 23 22 22 20 23 26 28 32 34 36 37 40 42 43 44 45 44 44 43 43 44 44 45 45 45 45 45 45 44 44 44 43 43 41
25 25 23 23 26 25 27 30 29 26 24 22 20 18 24 25 28 30 32 34 35 38 41 43 44 44 45 45 45 43 43 43 46 45 44 44 44 43 44 44 43 41 41 40
26 26 29 29 27 27 30 33 30 29 26 26 25 21 23 25 28 30 33 35 37 38 39 41 43 44 45 45 45 44 44 44 44 45 45 44 43 44 44 43 41 39 39 40
26 29 29 28 29 29 28 31 31 31 28 26 31 26 30 25 28 31 34 35 37 37 39 40 42 44 44 45 45 44 44 43 45 44 45 45 43 42 41 40 39 39 39 39
27 29 31 31 30 33 30 30 28 27 28 27 33 28 34 31 30 32 35 37 38 39 39 39 39 42 44 42 43 43 43 42 44 45 45 43 42 41 39 38 37 37 38 37
28 27 29 31 30 28 31 29 27 24 25 26 30 26 28 32 34 35 36 37 37 37 37 37 38 38 41 43 43 43 42 41 43 43 42 42 41 41 39 37 37 37 38 38
32 28 30 30 30 30 30 27 28 30 29 26 26 29 30 32 32 33 33 35 36 37 36 37 40 41 40 41 42 42 41 40 41 41 40 39 39 39 37 36 37 38 37 36
29 28 29 29 30 32 29 28 29 30 22 21 21 27 31 32 35 36 33 32 33 36 37 39 40 41 42 41 42 41 39 38 37 36 38 37 36 36 36 38 36 36 36 36
32 32 29 29 27 27 30 30 29 27 28 24 22 21 26 33 38 36 33 36 36 37 38 40 40 40 40 40 39 39 35 35 35 35 35 33 33 34 37 37 36 35 35 35
32 32 26 28 29 29 29 30 30 26 25 28 26 24 28 35 34 34 33 36 37 37 37 39 39 39 38 38 36 35 34 34 34 33 32 31 32 33 35 35 35 34 34 33
36 30 27 28 32 31 26 27 27 35 30 24 20 21 28 33 35 37 34 36 36 37 38 38 37 37 36 34 32 32 32 35 33 31 30 29 31 33 33 32 34 33 32 31
40 30 28 26 24 24 23 23 22 29 27 27 27 28 28 35 36 35 36 36 36 36 37 37 37 37 34 33 31 30 31 34 33 31 30 30 31 33 32 32 32 32 31 28
36 30 32 30 27 25 24 23 23 22 24 23 25 27 33 35 36 37 37 37 37 37 37 37 36 36 33 30 30 29 30 32 34 32 32 32 34 34 32 34 36 34 30 28
37 32 30 28 31 29 26 27 28 25 27 27 27 29 36 36 36 35 37 37 37 36 36 36 35 32 31 28 26 27 28 31 34 33 33 34 36 35 36 36 35 35 29 24
37 31 29 28 32 31 25 29 27 27 28 28 26 31 35 35 34 36 37 37 36 36 36 35 34 33 29 26 26 26 26 27 27 26 31 33 35 36 37 37 37 33 25 24
34 33 31 24 24 9 30 30 30 30 29 29 33 35 35 35 36 37 37 37 36 36 35 36 35 33 25 25 25 25 24 24 25 27 32 34 35 35 36 37 35 30 26 24
40 33 25 25 25 25 28 32 31 30 29 37 37 37 37 37 36 36 36 37 36 36 35 31 24 23 23 23 23 22 22 22 22 32 33 35 37 36 36 36 34 34 28 27
40 35 28 28 18 14 28 33 34 34 27 40 39 38 37 36 29 34 36 36 36 26 23 22 22 20 21 21 21 22 21 22 28 30 30 32 34 36 36 34 34 32 26 28
31 32 24 23 18 27 34 34 35 25 26 40 40 39 38 35 36 37 37 35 24 22 21 20 18 19 20 20 21 21 22 26 28 29 30 32 36 36 36 34 32 27 25 27
27 27 24 28 26 22 35 33 28 33 41 41 39 39 39 40 40 38 28 24 23 19 16 17 19 20 21 20 22 22 25 27 28 29 29 29 31 33 33 30 28 25 25 24
29 33 30 30 29 34 36 35 39 41 41 39 39 41 40 39 37 28 25 24 21 16 16 18 19 21 21 23 26 26 27 28 29 28 28 28 27 27 27 24 23 24 24 21
33 37 33 33 36 35 39 42 42 41 40 40 41 40 39 37 30 26 25 21 20 18 18 20 21 21 24 25 28 28 27 29 28 28 28 28 28 28 27 24 24 24 21 19
34 36 34 33 36 36 41 41 41 41 41 41 41 39 31 28 26 21 22 21 21 19 21 21 22 24 25 28 28 28 27 29 28 27 27 27 26 26 26 24 22 25 22 21
39 34 33 31 38 38 41 41 43 42 41 39 37 28 28 22 21 21 20 21 21 22 24 24 26 27 29 29 29 28 29 28 27 26 25 25 25 24 25 25 25 27 25 25

GFSCGP_sfc_dewp_024.txt.gz
Dewpoint
28 23 20 18 20 18 17 20 19 19 21 18 18 19 23 25 26 36 40 41 41 42 43 45 47 47 45 45 46 49 49 47 47 48 47 45 45 45 46 45 45 43 42 42
24 22 22 22 24 26 23 22 22 22 23 18 20 19 24 28 34 39 40 40 41 42 43 44 46 47 47 45 46 45 46 44 44 45 45 45 45 45 45 45 42 42 41 41
24 22 24 27 26 25 29 26 26 24 24 23 20 21 27 33 36 37 39 40 42 42 42 43 43 46 48 45 45 43 43 43 44 45 44 44 44 44 44 43 41 40 41 40
24 24 26 28 26 27 29 30 28 26 24 17 20 18 23 30 31 33 35 39 41 42 43 43 43 43 43 43 43 43 43 44 44 44 44 43 42 42 43 42 40 39 40 40
26 29 29 28 28 28 28 31 29 29 25 26 26 20 22 30 31 34 36 38 41 42 43 43 43 43 44 43 43 43 44 44 45 45 45 44 43 43 42 40 38 38 39 39
26 30 29 29 30 29 30 31 33 31 29 25 30 25 25 27 31 33 36 37 39 40 42 43 44 45 44 44 44 43 42 44 45 44 43 42 41 40 38 37 37 37 38 39
28 30 30 31 30 31 28 31 26 26 26 25 33 31 31 33 33 34 36 37 38 38 40 42 43 43 44 43 43 43 42 43 44 44 42 41 40 38 36 36 36 35 37 37
27 26 29 30 30 28 30 30 26 24 22 24 27 27 29 35 37 38 37 37 37 38 39 40 40 42 42 42 42 42 41 41 42 42 40 40 40 39 37 36 36 38 37 36
29 27 31 30 30 31 30 25 29 28 28 24 27 29 31 34 35 36 37 37 36 37 38 40 40 40 41 42 41 39 39 40 39 40 39 37 39 38 37 36 37 37 36 36
31 27 30 29 31 31 25 28 27 27 20 20 22 27 29 33 34 34 33 35 37 38 39 40 40 41 41 40 40 40 38 36 36 36 36 35 34 36 37 37 36 36 35 35
33 30 27 32 27 27 28 28 29 27 27 22 21 21 27 33 37 34 35 36 38 38 39 40 40 39 38 38 35 35 34 34 34 34 34 33 32 33 37 36 36 36 35 35
33 30 25 29 28 29 28 29 29 24 21 26 24 21 32 33 34 34 36 37 37 38 39 38 38 37 35 34 32 34 33 33 34 33 32 31 32 32 36 36 36 35 34 34
32 28 25 27 31 31 26 28 33 31 28 23 18 21 31 35 35 36 36 36 37 37 38 37 37 37 35 33 32 30 31 31 34 33 31 29 30 31 33 34 34 35 35 33
39 31 26 25 26 25 21 23 29 29 25 25 25 25 29 34 35 36 36 36 37 37 37 36 36 36 35 32 30 29 29 31 33 33 31 32 32 33 33 33 34 36 38 37
34 29 31 29 27 26 24 24 24 22 25 24 24 27 33 35 36 37 37 37 37 36 36 36 35 34 32 30 28 27 29 31 32 29 32 34 35 34 32 33 35 38 37 36
37 29 29 23 32 31 24 25 27 27 25 25 30 32 36 36 35 36 38 37 36 36 35 35 34 33 33 31 26 26 26 27 28 28 32 34 35 35 36 37 37 36 37 36
35 29 25 21 31 28 23 27 28 26 28 27 25 31 35 34 36 37 36 36 36 35 35 35 35 35 33 25 25 23 24 25 25 31 33 35 35 35 35 36 37 36 34 33
33 32 27 20 20 4 24 30 29 29 31 34 34 34 35 35 37 37 37 36 35 35 34 33 31 27 24 23 22 23 22 23 29 33 34 35 36 35 35 35 35 35 34 33
37 29 26 16 23 19 26 31 29 27 28 37 35 36 36 37 36 35 35 36 36 35 34 26 22 22 22 21 22 22 22 25 29 30 30 32 34 35 36 35 34 33 30 26
37 31 24 28 11 7 20 33 33 32 27 39 38 37 36 35 27 31 36 35 35 29 22 18 18 20 19 20 20 22 23 27 28 29 29 31 34 34 34 33 32 31 27 27
29 26 24 16 15 24 28 34 34 25 25 40 39 38 37 33 33 35 38 34 26 21 17 19 19 19 20 21 23 24 26 26 28 29 29 29 30 32 33 33 33 29 27 26
28 27 24 23 17 19 33 34 28 32 39 40 39 38 37 38 38 39 29 24 20 16 17 18 20 21 22 24 26 25 25 27 29 28 28 27 28 28 26 27 25 25 24 23
25 28 28 29 28 31 35 34 36 41 40 39 38 40 39 40 38 27 25 22 20 18 18 20 20 22 24 25 27 26 27 28 29 28 27 27 28 27 25 23 23 24 23 20
33 37 33 32 33 35 36 42 42 41 40 40 41 41 41 39 29 23 22 21 21 19 19 21 22 23 24 27 28 28 28 28 28 27 27 27 25 26 26 23 24 22 19 17
31 36 34 32 35 39 41 40 40 40 40 40 41 40 36 26 22 22 20 21 21 21 23 24 25 26 27 29 29 29 29 29 27 26 26 25 25 25 26 23 23 24 22 21
38 33 32 31 34 35 39 41 41 40 40 40 38 26 23 22 21 21 22 23 24 25 25 26 28 28 29 29 29 30 29 29 27 26 25 24 24 23 25 24 23 25 26 28

GFSCGP_sfc_dewp_027.txt.gz
Dewpoint
28 23 19 19 22 19 18 20 18 18 20 18 18 20 27 26 36 41 42 42 43 43 45 46 46 47 49 50 49 51 51 49 51 50 49 46 47 45 44 41 42 41 41 41
24 23 24 25 30 25 23 21 21 23 24 19 20 25 34 36 39 41 41 41 42 43 43 44 46 47 48 48 50 45 45 44 44 45 46 45 45 44 43 41 41 41 41 39
23 23 26 26 27 28 29 25 25 23 23 22 22 23 31 36 39 40 41 42 41 41 42 44 46 48 48 44 43 42 43 43 44 45 44 44 44 44 42 40 39 39 40 40
23 29 28 27 25 28 28 30 27 25 21 16 20 20 28 31 34 37 40 41 42 42 45 45 46 45 43 43 43 43 43 43 44 44 43 42 41 42 42 39 38 38 39 40
27 29 28 26 27 28 27 31 28 27 25 25 27 22 25 32 33 36 38 41 42 44 43 43 43 42 43 43 43 43 44 44 44 44 44 44 42 41 40 39 37 37 38 39
28 30 28 28 30 29 29 31 32 32 28 24 30 23 25 28 32 35 37 40 42 42 43 43 43 44 44 44 43 42 44 44 44 43 43 42 41 39 37 36 36 36 37 38
29 29 30 31 30 31 29 29 25 26 25 25 29 28 28 31 33 36 37 38 39 41 42 43 43 43 43 43 42 42 43 43 43 42 41 40 39 38 36 36 36 35 36 36
27 25 29 29 29 27 29 28 26 23 21 23 27 27 29 36 36 37 37 38 38 39 40 42 42 41 41 42 41 41 42 42 42 41 40 40 39 38 37 36 36 36 37 36
28 26 30 28 29 30 30 25 28 28 27 25 27 29 31 35 36 36 36 37 37 37 39 39 40 40 40 39 39 39 39 40 40 39 38 39 40 39 38 37 36 37 37 36
31 27 29 28 31 30 25 29 27 26 18 19 21 27 28 32 34 36 35 36 37 39 39 39 39 39 40 40 38 38 38 37 37 36 36 35 35 36 37 37 36 37 36 36
32 27 25 31 27 27 27 27 27 27 26 21 19 21 26 33 35 34 36 37 38 38 39 39 38 37 37 35 33 34 35 34 34 34 34 34 34 33 35 36 37 36 36 35
33 29 26 27 28 30 28 28 26 20 19 25 23 20 28 34 35 36 36 37 38 39 37 37 37 36 34 33 31 34 32 32 34 34 34 32 32 31 32 35 36 36 35 36
30 27 25 25 29 28 27 28 32 29 27 23 17 19 32 35 34 36 36 37 37 37 37 36 36 36 35 32 31 30 30 30 32 33 31 31 32 33 33 33 34 34 35 35
36 31 25 23 24 27 20 23 30 27 24 24 23 22 30 34 34 35 35 37 37 36 36 35 35 34 33 30 30 28 28 31 30 29 31 32 33 33 33 32 33 34 35 36
32 27 30 28 28 25 22 22 25 24 25 22 23 26 27 34 35 36 36 37 36 36 35 35 34 33 32 32 27 26 26 27 28 29 31 33 34 34 35 35 36 36 36 36
36 28 26 25 31 30 23 23 23 23 25 27 26 30 35 36 36 37 37 37 36 35 35 34 34 34 34 26 24 24 23 25 26 29 32 34 34 34 34 34 35 36 37 33
32 28 22 16 28 23 16 21 27 26 27 26 27 30 36 34 35 37 37 36 35 35 34 34 34 33 25 23 23 22 23 24 25 32 33 34 35 34 34 35 34 34 33 33
31 29 23 17 19 5 19 28 29 26 29 32 34 35 34 34 36 37 37 36 36 35 34 31 25 24 23 22 21 23 22 23 31 31 32 33 33 33 34 34 33 34 34 30
35 28 25 17 19 17 20 30 29 27 26 35 34 35 35 37 35 34 36 35 34 34 33 24 21 22 21 19 20 21 22 27 28 28 29 30 31 33 33 33 32 32 30 27
33 28 22 25 9 5 17 31 33 30 25 37 36 36 36 36 29 32 36 36 35 25 20 17 19 19 19 19 21 22 25 26 27 28 28 30 30 31 31 31 31 32 29 27
28 24 21 16 13 21 25 33 33 22 21 38 37 37 36 34 34 34 37 36 26 18 17 20 20 20 20 22 24 25 26 26 27 28 29 28 28 28 28 29 30 28 26 25
29 28 27 26 18 19 31 32 28 31 35 39 39 38 37 37 37 39 35 23 18 17 18 20 21 22 23 24 26 25 25 27 27 28 27 27 28 27 24 25 25 25 24 23
26 27 27 28 28 30 32 34 35 38 39 39 39 39 39 39 38 32 24 21 19 18 19 21 21 23 25 25 27 26 27 28 28 28 27 27 26 27 25 22 23 23 22 19
32 34 30 30 30 33 33 37 40 40 39 39 40 40 40 39 30 25 22 21 19 19 21 22 24 25 26 27 28 29 29 29 28 27 27 27 25 25 26 23 23 22 19 17
32 35 32 31 33 37 39 40 40 40 40 40 41 40 39 33 24 22 21 21 21 22 24 25 26 27 27 29 29 29 29 28 27 27 27 26 25 24 26 23 23 25 23 21
36 33 30 30 34 35 34 40 40 39 39 40 37 27 25 23 21 21 22 23 24 24 26 27 28 28 29 29 28 29 30 30 30 29 28 27 25 23 25 25 23 25 25 27

GFSCGP_sfc_dewp_030.txt.gz
Dewpoint
27 22 18 18 18 16 17 16 15 18 19 18 30 33 35 32 39 41 43 43 44 44 45 46 48 49 50 53 56 57 53 53 54 51 47 45 45 42 41 40 41 41 41 41
24 21 22 28 27 24 22 20 20 23 24 21 30 30 37 39 40 41 42 42 43 43 44 46 47 48 50 52 53 53 52 52 47 46 45 44 43 41 40 40 40 39 40 41
22 23 27 28 28 27 28 23 24 22 22 22 24 25 33 36 40 41 41 42 42 42 44 46 48 49 50 49 44 43 43 43 44 45 44 44 43 43 39 38 38 39 40 41
26 30 27 25 25 28 25 29 26 24 19 19 21 18 29 33 37 40 41 41 41 42 45 46 46 43 41 42 42 43 43 43 43 43 43 42 41 41 41 38 38 37 39 39
27 28 27 25 26 27 27 30 27 26 25 24 27 23 27 35 36 38 40 41 41 43 45 43 43 42 42 43 43 43 44 44 44 43 43 43 41 40 39 38 37 37 38 39
29 30 28 27 30 28 29 31 31 31 28 24 29 22 24 31 34 37 39 41 42 43 42 43 43 43 43 43 42 44 44 44 44 43 43 41 39 38 37 37 36 36 37 38
29 29 30 31 29 30 30 29 25 25 24 24 28 25 25 30 34 37 39 40 41 42 42 43 43 43 44 43 41 43 43 43 43 42 41 40 39 38 37 36 36 35 35 36
26 24 28 29 28 27 28 28 26 21 23 24 27 26 28 35 34 38 39 40 40 41 42 43 43 42 43 42 41 41 41 42 41 41 40 40 39 38 38 36 36 36 35 36
27 25 29 28 29 30 29 25 28 27 27 24 27 29 32 35 36 37 38 38 38 38 40 41 41 41 41 39 39 40 40 41 40 39 38 38 39 39 38 37 37 36 36 37
30 26 28 27 30 29 26 30 25 25 18 18 21 25 28 33 35 36 36 37 37 39 39 39 39 39 39 38 36 39 39 38 39 38 37 36 35 34 35 36 36 36 37 36
30 27 25 29 26 26 28 26 26 27 24 19 17 23 28 34 35 36 36 37 38 38 38 38 37 36 35 33 33 35 35 34 34 34 34 34 33 32 32 33 35 36 36 36
32 28 26 27 28 31 28 26 24 19 17 24 23 20 29 33 35 36 36 38 38 39 37 37 36 34 33 32 32 32 31 31 31 34 32 30 31 32 32 32 33 34 35 35
29 27 25 23 24 27 26 29 29 26 26 23 17 17 33 34 35 36 36 38 37 37 36 35 35 35 33 30 31 30 29 30 30 29 29 31 31 32 32 32 32 33 34 34
35 29 25 22 21 25 21 27 28 25 22 22 22 20 28 34 34 35 36 37 36 36 35 34 34 33 32 30 29 27 28 29 27 28 30 31 32 33 32 32 33 34 35 35
30 26 27 28 29 25 21 21 28 24 23 21 21 24 24 32 34 35 36 36 36 35 35 34 34 33 32 32 27 25 25 26 27 27 30 32 33 33 33 33 34 35 35 35
34 27 23 28 30 28 24 23 23 24 23 26 25 24 29 36 36 36 36 36 36 35 34 33 33 34 34 25 23 23 22 24 26 26 32 33 33 33 33 34 34 34 34 34
30 27 23 19 26 21 16 22 23 24 27 24 23 26 36 35 35 36 36 36 36 35 34 34 34 30 25 22 22 21 22 24 25 31 32 32 33 33 32 33 33 32 32 30
29 26 21 16 18 6 17 26 27 26 27 27 30 32 35 35 35 37 38 36 36 35 34 33 26 24 23 22 20 22 22 22 30 29 29 29 31 31 32 32 34 31 32 32
32 26 23 15 17 15 14 25 28 27 24 32 31 34 34 36 36 35 37 37 36 36 34 28 22 23 22 19 20 21 22 27 27 27 28 28 30 29 30 30 30 30 31 30
30 27 22 20 9 4 16 25 31 29 25 32 34 34 35 35 30 34 36 36 35 35 23 18 21 19 19 20 21 21 23 25 26 27 28 29 28 27 27 27 28 30 30 27
27 24 19 16 12 19 22 30 31 22 23 36 36 36 35 34 35 34 36 35 31 20 17 20 20 20 20 22 23 24 25 25 26 28 28 28 27 27 26 25 27 28 26 25
29 29 28 23 15 18 28 32 27 30 32 37 37 36 36 36 35 37 36 23 18 18 20 20 21 22 23 24 25 25 25 27 28 28 28 27 27 27 25 24 24 25 23 23
26 27 26 26 27 29 30 34 34 34 34 37 37 38 38 37 37 30 23 21 20 18 19 21 22 24 26 26 27 27 28 29 29 28 28 27 27 25 25 24 23 23 22 19
32 31 28 28 28 31 32 33 38 37 38 39 39 39 39 38 34 24 25 26 20 20 21 22 24 25 26 28 29 29 29 29 29 28 27 27 27 25 25 24 23 22 19 17
32 33 30 30 32 33 35 38 36 39 39 39 40 40 39 30 28 31 27 21 21 22 24 25 27 27 27 29 29 28 28 29 27 27 28 27 28 26 24 25 23 25 23 22
34 32 29 28 30 32 32 37 40 39 39 40 38 34 31 33 29 23 23 24 24 24 25 27 27 27 29 29 27 28 29 29 29 29 29 29 29 26 24 25 26 26 26 26

GFSCGP_sfc_dewp_033.txt.gz
Dewpoint
28 22 19 20 21 14 16 16 16 18 20 31 33 35 36 36 41 43 44 44 45 46 48 51 54 57 58 59 57 57 55 55 55 53 48 44 45 43 42 41 43 43 43 43
26 24 23 29 23 24 22 21 22 23 23 28 31 34 38 39 41 42 43 44 45 47 50 51 52 55 58 57 56 57 57 54 51 47 46 46 43 42 41 41 42 42 43 42
26 23 27 29 27 27 27 25 24 22 23 25 26 26 34 38 41 42 43 44 46 49 49 49 52 55 56 56 56 54 52 51 49 47 46 44 43 42 40 40 39 41 42 40
28 30 27 26 27 27 26 28 25 23 21 19 23 16 30 36 39 41 43 45 47 47 47 48 48 48 48 47 48 49 48 46 47 47 46 46 44 43 42 41 41 40 42 41
28 29 27 27 27 28 29 31 28 26 26 26 27 20 25 37 37 40 42 43 44 45 46 44 43 42 43 45 46 47 46 45 46 45 46 46 45 43 41 42 41 42 41 42
30 30 29 28 31 29 33 32 32 32 29 25 29 23 23 33 36 40 42 42 42 44 44 43 43 44 44 45 46 47 46 46 46 46 46 46 45 43 42 42 41 41 40 40
29 29 30 32 30 31 32 30 27 28 29 26 28 27 27 30 35 41 41 41 42 44 43 43 43 43 44 44 46 46 46 44 45 45 45 44 44 44 42 41 40 40 39 38
26 25 27 30 29 29 29 30 31 21 25 26 27 26 27 35 34 41 41 41 42 43 44 43 44 45 45 44 44 45 44 44 43 43 43 43 43 42 41 41 40 39 39 39
29 26 28 29 30 30 29 25 29 29 27 26 26 28 31 35 35 38 39 41 41 42 43 44 45 45 44 44 43 45 43 43 42 43 42 42 41 41 41 40 40 39 40 37
32 28 28 28 30 31 28 30 27 28 22 16 19 24 25 33 34 37 39 40 41 41 42 43 43 43 42 41 41 43 42 42 41 40 40 38 38 37 37 37 37 37 37 38
31 30 28 30 27 28 29 28 28 27 25 18 18 16 31 33 35 37 39 40 40 40 41 41 40 40 38 36 37 39 39 37 36 36 37 36 35 35 35 35 35 36 37 36
32 31 29 27 28 31 28 28 27 25 19 26 25 20 27 34 36 38 38 38 39 40 40 38 37 35 34 34 36 35 34 32 34 35 33 33 34 33 34 34 34 34 33 35
33 31 28 25 25 28 28 29 26 27 28 25 31 19 30 35 35 37 38 39 39 39 37 37 35 34 33 33 34 31 32 31 29 28 29 32 33 33 33 32 33 34 35 36
37 30 29 26 23 26 26 29 26 27 27 23 25 20 23 33 35 36 37 39 38 37 36 36 35 34 32 31 31 30 30 29 27 27 29 32 34 33 33 33 34 35 36 36
33 29 28 28 28 26 21 25 28 24 25 25 22 23 23 27 35 36 38 38 37 36 35 35 34 34 33 33 29 28 27 28 28 26 30 34 34 33 33 33 34 36 35 34
34 30 27 28 29 27 25 24 24 27 25 25 25 24 27 31 35 36 37 37 37 36 36 35 34 33 34 30 26 25 25 25 28 26 30 33 33 33 33 33 34 35 34 34
31 31 27 24 25 21 24 25 25 24 26 27 24 26 35 35 35 36 37 37 37 36 36 34 34 34 32 26 25 23 23 25 26 28 32 31 31 31 32 32 33 32 34 33
30 27 25 26 22 17 21 27 26 26 26 26 27 30 34 34 36 37 37 37 37 37 36 35 33 28 26 24 23 24 22 24 27 31 29 29 30 30 30 30 29 31 35 34
31 28 25 27 20 17 14 21 27 28 23 28 28 32 35 36 36 36 38 39 39 38 37 34 27 26 24 21 21 22 23 26 28 27 28 28 30 29 28 28 29 30 32 34
30 29 31 24 22 18 20 21 32 30 28 29 32 35 36 35 36 34 38 39 38 37 33 24 24 22 21 21 23 23 23 26 26 28 28 29 30 28 28 28 27 30 33 33
33 31 30 21 26 24 24 25 32 26 28 34 36 36 37 36 39 37 38 37 35 28 20 22 21 21 22 23 24 24 26 26 27 29 29 29 28 28 28 27 26 27 28 28
31 31 30 25 25 24 28 32 32 34 34 35 37 38 38 38 37 37 36 30 22 18 20 21 22 23 25 25 25 25 26 28 29 30 29 29 29 27 27 27 25 25 26 26
29 31 30 28 30 32 30 36 35 35 35 36 39 38 38 37 37 33 26 20 19 21 24 21 22 25 26 26 27 27 28 30 29 29 28 29 28 28 27 25 25 24 24 25
32 32 32 31 30 31 33 34 35 36 38 38 40 40 39 38 36 25 22 28 28 23 21 23 24 25 26 28 29 30 29 28 29 29 28 28 28 28 29 25 24 23 25 25
33 33 32 32 33 33 33 36 38 37 40 40 40 41 40 37 26 25 31 27 23 23 24 24 26 26 25 29 29 28 28 29 28 29 29 29 29 29 28 26 25 25 26 26
34 33 34 33 32 33 34 36 40 40 40 40 40 36 32 30 30 29 26 24 25 25 25 26 26 26 27 28 28 28 29 29 29 30 30 30 30 30 29 26 25 28 28 28

GFSCGP_sfc_dewp_036.txt.gz
Dewpoint
28 22 15 15 15 13 11 15 13 14 20 18 19 23 27 37 41 40 41 43 44 46 48 52 56 57 57 59 60 60 59 58 58 56 54 49 45 45 45 44 45 46 45 42
25 20 23 24 21 19 18 17 20 21 20 23 26 27 31 33 40 41 42 43 44 46 49 53 56 58 58 58 60 60 59 60 57 55 50 48 47 45 44 44 45 45 42 40
20 24 28 23 22 21 23 21 23 20 22 25 27 26 32 35 39 42 44 44 45 47 50 53 56 58 58 58 59 58 59 58 54 50 48 47 46 45 43 43 43 43 42 39
26 27 26 25 23 25 22 26 23 22 21 16 24 13 28 34 34 39 42 45 47 49 51 54 54 56 57 58 58 56 54 52 50 49 46 46 43 42 44 44 44 40 42 41
26 26 25 23 25 27 27 27 25 24 22 23 22 17 24 33 34 35 41 45 49 50 51 49 47 49 51 54 54 52 50 48 48 48 48 47 46 46 44 44 42 42 42 41
28 30 28 28 30 28 32 30 30 29 26 22 21 22 11 20 29 37 41 47 48 47 47 44 43 44 44 47 49 49 47 46 47 48 48 48 47 44 41 40 38 35 37 37
27 28 29 31 29 32 30 26 22 24 25 21 28 24 17 28 32 37 42 46 46 46 44 42 41 42 44 47 48 48 46 46 47 48 47 46 43 40 38 38 37 39 37 37
21 24 26 29 29 25 27 24 22 11 19 21 27 23 25 33 33 38 42 44 44 44 43 41 42 43 44 46 47 46 45 44 45 45 43 42 40 40 39 39 40 39 38 37
24 23 28 29 30 29 28 25 30 28 30 29 21 26 29 34 33 38 41 42 42 41 42 42 43 45 45 46 47 47 44 43 43 43 42 41 42 40 39 38 38 35 34 30
30 26 27 28 30 31 30 29 26 29 22 13 13 17 15 31 33 36 40 42 40 40 41 43 44 46 46 45 46 47 44 42 42 41 41 39 39 37 35 35 33 32 32 31
31 27 29 30 27 25 29 28 26 25 26 16 13 10 28 28 33 35 39 40 40 41 42 43 44 45 44 42 42 41 41 39 39 37 38 37 34 33 33 32 31 31 33 32
33 32 31 27 29 30 29 28 26 22 19 28 27 13 24 32 35 36 37 39 40 42 42 43 44 43 40 38 37 39 37 35 35 35 33 31 30 30 32 31 30 33 33 32
33 31 29 27 28 29 28 29 26 27 29 24 30 14 24 31 33 35 37 38 40 41 42 42 41 39 37 36 36 35 34 33 31 28 27 28 29 30 30 30 32 32 32 32
36 32 28 25 23 26 28 28 27 25 25 19 22 12 19 25 30 33 37 39 40 41 40 39 38 37 35 35 33 33 33 31 28 24 24 27 30 31 31 32 32 32 33 33
35 30 29 27 26 25 23 24 26 22 22 24 17 15 12 18 23 28 36 38 39 39 38 38 38 36 33 33 32 31 31 29 26 24 24 27 32 32 31 33 32 32 34 33
34 32 31 29 28 27 25 24 22 25 23 24 22 21 22 24 27 32 37 38 38 38 38 37 37 35 33 33 32 30 28 26 25 25 25 29 32 30 31 31 31 32 33 32
35 35 30 23 25 24 32 28 24 23 27 27 25 25 25 28 29 31 35 37 38 38 38 37 36 34 33 33 29 27 24 25 25 24 27 30 30 30 30 29 29 29 31 32
34 32 33 31 28 29 15 22 23 25 24 23 24 22 25 26 32 35 35 37 38 38 38 38 36 34 33 28 25 25 22 23 24 25 28 28 29 28 28 28 29 30 31 32
31 32 32 36 22 18 12 17 19 22 16 22 22 23 27 34 36 36 37 38 39 40 39 38 35 31 27 24 23 22 22 22 24 25 25 26 27 27 28 28 30 30 29 29
30 33 35 31 34 33 22 26 31 30 23 25 30 30 34 35 35 24 38 39 40 39 39 35 29 26 23 22 22 22 21 23 22 25 26 26 27 28 28 29 29 29 29 28
37 37 37 33 36 28 23 23 32 24 24 31 34 35 36 36 33 38 38 40 39 39 34 27 24 21 22 23 24 22 22 22 24 27 27 26 26 27 29 29 29 28 27 28
33 36 37 33 35 30 27 32 31 34 35 33 36 37 39 38 39 38 39 38 35 30 23 21 22 25 26 24 24 19 21 24 27 28 26 26 27 28 26 28 28 27 27 27
31 33 34 31 31 30 31 35 35 37 37 37 38 37 39 40 38 37 37 34 27 23 20 27 29 28 26 24 23 21 22 28 28 27 26 27 28 27 26 27 27 26 25 26
33 33 34 32 28 30 31 32 33 34 36 36 36 37 39 39 39 35 31 26 25 28 27 25 28 23 24 26 26 26 27 27 27 27 27 27 28 27 26 25 25 25 26 26
34 34 32 33 31 30 30 32 36 38 40 39 39 40 41 40 39 31 28 31 29 26 30 29 24 23 21 24 26 26 26 28 26 27 27 28 29 28 26 25 25 26 26 27
33 33 36 35 34 35 35 38 40 40 40 41 41 39 38 38 32 31 31 28 30 32 29 23 24 25 24 26 25 26 26 27 28 28 28 29 29 29 27 26 25 28 28 28

GFSCGP_sfc_dewp_039.txt.gz
Dewpoint
30 25 20 18 19 16 12 9 6 8 9 12 11 17 23 31 31 35 38 39 40 41 43 48 51 50 50 57 59 59 59 59 59 56 55 53 51 47 47 45 47 48 47 43
24 21 20 17 15 14 11 15 14 15 12 15 10 15 21 27 30 31 34 39 41 42 46 50 53 54 54 58 59 60 59 59 58 52 54 54 50 47 47 46 48 47 44 41
25 24 24 17 15 15 15 17 22 17 18 15 18 17 24 28 32 34 36 37 40 43 46 50 53 56 57 58 58 59 58 58 56 56 51 49 48 47 45 45 46 44 42 40
30 29 22 18 15 17 20 23 20 18 19 15 19 12 21 28 32 37 39 41 41 43 46 50 53 56 57 57 59 57 55 54 52 50 48 48 43 42 44 44 44 44 43 41
22 23 20 17 21 24 27 25 21 18 16 20 19 12 23 27 28 32 36 41 44 46 49 51 53 56 57 57 56 54 53 50 48 48 47 47 46 47 46 46 45 44 42 40
31 28 24 25 26 25 28 26 24 22 19 21 18 16 14 22 25 30 35 40 44 48 50 49 51 50 50 53 53 51 49 47 48 48 49 48 47 44 43 43 40 37 35 35
24 23 28 27 24 27 25 24 25 24 22 22 23 19 16 23 29 29 36 41 46 48 47 45 45 45 47 50 50 49 46 46 47 48 48 47 45 43 39 39 37 36 35 35
19 24 25 27 26 24 25 23 24 16 17 17 23 13 21 31 32 34 38 42 45 46 46 43 42 42 45 47 48 47 46 46 47 47 45 44 41 39 38 37 37 36 35 34
25 21 26 27 28 25 25 21 27 24 33 26 14 16 29 30 31 35 39 42 44 44 44 41 41 43 44 46 48 48 46 44 45 44 43 42 44 39 36 37 37 34 34 30
24 24 24 27 28 29 27 27 24 24 20 15 9 10 16 26 28 33 38 42 42 43 41 41 42 44 45 46 48 49 47 44 42 41 42 40 41 37 35 35 33 32 32 32
23 24 28 28 26 19 28 26 24 23 25 21 13 14 20 21 27 31 37 40 42 42 41 41 42 44 46 46 47 47 44 41 41 39 39 42 36 34 33 33 32 30 32 31
29 26 25 24 28 28 27 25 26 27 20 25 28 17 19 24 25 30 33 38 41 41 40 42 43 45 46 45 45 43 40 39 37 36 39 37 34 30 31 31 29 31 31 30
32 24 24 24 28 29 26 24 24 25 28 24 29 19 20 24 24 26 30 34 38 39 40 42 43 44 44 43 42 40 39 36 34 36 33 30 30 30 30 28 30 31 31 30
38 25 24 24 21 25 28 26 25 25 28 24 19 17 16 20 22 22 28 30 35 38 40 41 43 43 42 41 39 38 36 36 35 31 27 26 29 30 29 29 31 32 30 31
35 30 27 24 25 25 24 22 23 23 23 26 20 16 11 11 14 21 23 29 33 37 40 41 42 41 40 39 38 34 37 35 32 28 25 26 28 30 30 31 32 31 32 32
34 31 31 30 28 27 25 24 22 19 21 19 18 16 17 21 19 22 23 28 30 35 39 40 40 39 39 37 35 35 35 32 30 26 26 26 26 29 30 31 31 30 30 30
36 34 32 25 25 24 31 27 22 20 21 22 23 22 20 23 24 25 24 29 31 34 38 39 39 39 38 36 35 34 30 28 27 26 25 24 28 28 28 27 27 28 29 31
37 36 35 31 30 28 17 18 17 21 21 19 18 19 18 19 27 30 29 30 33 35 37 39 39 39 38 36 34 30 29 28 26 24 23 24 27 27 26 26 27 29 31 31
32 34 33 37 24 21 17 13 18 18 16 20 20 19 19 27 32 31 32 33 34 37 38 39 39 38 36 32 28 28 25 23 22 22 22 23 24 24 25 26 27 30 29 29
30 33 34 30 33 31 26 24 27 26 23 23 24 24 24 30 32 30 33 34 36 38 39 39 39 36 32 28 26 24 26 25 21 20 23 22 24 24 24 26 28 29 28 27
38 39 36 34 36 32 25 24 29 25 30 31 30 29 31 30 36 39 35 36 37 37 38 39 36 30 28 26 27 29 25 22 20 24 24 24 24 24 26 28 29 28 28 28
34 38 37 37 36 31 25 28 26 36 32 33 33 33 38 38 39 39 37 37 37 38 36 31 29 25 26 31 28 24 20 20 24 25 25 24 24 25 25 27 28 27 28 28
32 33 36 32 33 30 29 28 31 33 34 34 35 35 36 37 37 37 37 38 36 33 27 25 25 31 31 28 24 20 21 26 25 26 26 25 26 26 26 27 26 26 26 27
32 33 33 30 26 26 28 30 31 34 37 36 37 37 37 37 38 38 36 34 30 25 26 31 34 33 32 28 24 23 27 27 27 26 26 26 26 27 27 26 24 24 28 29
35 33 30 32 29 31 29 35 39 40 40 39 39 40 40 41 39 38 32 29 29 30 35 35 33 28 21 22 25 26 26 26 25 25 26 27 29 29 27 25 25 27 28 29
33 33 37 37 36 39 38 41 41 41 40 40 40 39 36 37 35 33 32 33 36 37 34 29 24 24 23 24 26 25 26 25 27 28 28 30 30 30 28 26 26 29 29 29

GFSCGP_sfc_dewp_042.txt.gz
Dewpoint
32 27 26 25 25 22 19 16 15 11 13 14 13 15 17 26 31 36 36 36 35 36 38 44 48 49 54 60 60 60 60 59 59 57 55 54 53 51 51 48 50 51 50 47
34 24 24 27 23 21 15 20 18 9 9 12 13 10 19 22 28 34 37 38 39 39 38 47 50 52 56 59 60 60 59 59 58 55 54 54 52 50 49 49 51 51 48 45
29 27 32 20 18 14 16 27 26 23 14 7 13 8 18 22 26 29 35 38 40 41 44 48 51 53 57 60 60 59 59 58 58 54 56 55 52 51 50 49 50 49 47 44
32 34 29 25 15 16 22 29 24 22 20 13 27 18 19 22 24 28 31 35 39 41 46 48 51 54 57 59 60 60 59 57 57 57 52 51 47 46 47 48 49 46 46 45
35 35 28 26 22 22 28 31 28 20 17 28 25 24 29 25 25 27 35 37 39 42 45 48 51 55 55 58 59 60 58 54 54 52 52 51 50 49 49 49 49 47 48 46
33 34 29 23 23 22 31 29 25 22 23 26 28 29 26 27 32 34 34 38 41 43 45 49 54 56 55 58 59 57 54 52 51 51 52 51 51 48 48 47 47 46 43 41
24 22 25 27 22 25 23 21 27 31 32 27 15 17 19 33 32 32 34 38 42 45 48 50 52 53 54 54 55 54 51 48 50 51 51 51 49 47 44 43 42 40 40 41
19 23 22 24 22 32 29 22 32 26 29 25 22 17 21 29 29 31 35 38 44 47 50 48 50 49 51 52 52 51 49 47 49 51 50 49 46 45 44 44 41 40 39 39
26 26 32 25 22 29 28 23 26 23 37 34 17 11 29 28 30 32 36 40 45 46 46 45 47 48 49 50 51 51 48 47 49 50 48 46 44 43 42 40 39 39 38 33
33 32 35 28 26 25 23 22 25 26 24 21 12 12 26 27 27 31 37 41 44 45 45 44 43 46 46 49 51 52 50 47 48 46 46 44 44 42 40 39 38 36 35 35
32 36 34 28 24 16 26 25 21 18 28 29 26 17 20 22 27 30 37 41 44 45 44 43 42 44 46 48 49 50 48 45 45 44 44 43 41 40 38 37 35 34 34 34
27 28 31 26 25 25 24 25 24 35 25 31 35 24 22 25 25 30 32 38 43 44 43 42 42 44 45 47 48 49 48 45 43 43 41 42 40 38 37 36 34 33 33 34
30 29 29 22 24 26 24 21 20 25 34 29 34 25 20 21 21 25 30 33 39 43 42 42 43 43 45 47 47 47 46 43 40 37 38 38 38 34 34 34 32 33 33 33
40 28 24 25 19 23 26 25 21 24 36 31 28 19 17 20 22 22 27 31 33 40 40 40 42 43 46 46 46 44 42 41 38 37 36 36 36 35 34 32 33 34 34 33
34 26 23 19 20 22 25 24 22 21 24 28 27 20 17 19 22 22 29 29 29 31 37 39 42 44 45 45 44 42 41 39 40 36 33 34 34 34 33 33 34 35 35 33
35 32 32 30 27 25 24 23 20 20 20 18 19 20 21 20 24 24 25 23 24 29 34 40 42 43 44 43 41 40 38 39 37 35 33 33 31 32 33 33 35 35 34 33
35 38 36 34 28 25 29 27 23 21 21 22 23 25 24 22 21 27 29 27 29 31 33 39 40 42 43 41 41 39 38 38 34 32 31 30 31 31 32 31 30 30 32 34
38 39 41 37 32 28 22 19 16 17 15 15 16 19 18 27 27 27 29 30 33 35 35 39 41 42 42 41 39 39 34 31 33 31 28 27 30 30 30 30 30 32 33 33
36 40 38 36 30 25 22 18 19 20 19 21 20 21 20 25 29 33 31 34 35 36 37 39 41 42 42 39 36 32 31 30 28 28 27 25 27 27 28 28 31 32 32 32
30 39 41 36 35 29 29 24 24 23 29 27 26 28 27 26 36 36 35 36 35 35 36 38 40 40 38 33 31 30 26 29 27 26 27 27 28 27 27 29 31 32 32 30
38 41 37 35 37 35 27 25 27 29 33 33 32 32 34 34 40 40 39 36 36 36 38 40 38 35 31 30 30 31 31 30 28 28 28 26 26 27 28 30 30 30 30 30
37 39 37 40 35 32 26 25 28 37 37 35 35 36 39 40 39 39 37 37 37 37 34 33 31 31 32 32 32 30 29 26 27 30 30 29 29 28 25 30 30 30 30 30
35 36 39 37 37 35 30 31 33 36 36 38 38 37 37 38 36 37 38 38 36 30 28 27 31 32 32 32 30 29 27 27 30 31 31 29 29 27 27 29 29 29 29 29
32 34 38 35 27 28 29 32 38 38 40 38 38 39 41 41 41 39 37 33 31 33 34 34 35 34 34 30 26 26 29 30 30 29 29 29 29 29 29 29 28 28 31 30
36 34 30 32 31 31 36 40 41 40 41 40 40 38 37 39 38 34 31 33 35 35 34 33 32 29 24 27 29 29 28 29 27 28 27 29 31 31 31 29 29 29 30 31
34 34 41 41 38 40 40 38 38 37 36 36 37 34 34 34 34 36 36 35 34 33 31 28 28 28 29 28 26 26 27 27 28 28 29 32 33 32 31 29 28 30 29 30

GFSCGP_sfc_dewp_045.txt.gz
Dewpoint
42 30 27 27 28 24 21 20 17 18 20 23 27 25 28 30 36 37 37 38 37 36 42 45 48 52 56 59 58 58 57 57 57 56 54 53 52 51 49 47 48 49 49 45
36 34 32 28 28 26 24 22 21 22 16 13 14 17 23 28 34 36 36 34 33 36 40 43 45 55 58 58 58 58 57 57 57 56 54 53 50 48 47 47 47 49 47 44
36 34 34 27 28 25 29 28 27 27 29 20 14 14 17 23 28 36 36 37 37 37 41 45 49 57 58 58 59 58 58 57 57 57 53 53 50 48 48 47 48 47 44 42
34 34 32 30 29 27 28 28 29 26 27 22 25 19 25 22 24 31 37 37 39 42 46 47 49 57 58 59 59 58 58 58 58 55 54 52 48 47 47 47 48 44 44 43
34 35 32 31 30 28 26 30 29 30 27 27 26 24 25 27 23 26 31 36 39 41 47 48 50 56 58 59 59 58 58 58 57 56 53 50 48 47 48 48 46 45 45 44
29 33 33 32 32 30 31 31 31 35 33 24 25 25 27 24 26 32 32 34 39 44 47 49 52 55 58 59 59 59 58 57 55 53 50 48 48 47 47 47 46 46 45 43
28 26 33 33 31 31 30 28 27 27 28 27 28 26 28 30 28 34 31 32 41 44 48 52 54 54 56 57 58 58 58 52 50 49 49 49 45 44 44 44 43 40 39 39
26 26 31 33 29 29 28 30 27 25 28 27 26 24 26 31 32 33 35 37 41 47 50 54 55 54 55 56 56 55 51 49 49 48 49 47 42 42 41 42 40 40 39 37
31 30 36 33 35 30 34 31 32 31 33 27 24 20 29 31 32 35 36 40 46 47 47 50 51 52 53 52 51 49 47 47 49 49 46 43 42 41 39 39 39 38 37 34
35 31 37 35 36 30 30 28 26 28 18 17 20 20 29 31 33 36 38 43 45 46 46 47 48 49 50 49 49 49 47 48 49 45 43 41 41 39 39 38 37 36 35 34
36 33 35 35 34 27 27 27 27 25 29 23 22 20 24 28 31 35 39 43 45 45 45 45 45 47 48 48 49 48 47 47 44 42 42 41 39 40 40 38 37 35 34 33
35 35 34 34 34 31 24 27 32 27 22 27 26 23 23 26 30 32 36 43 44 45 45 44 42 45 46 47 48 49 46 44 43 42 41 40 40 41 37 36 35 35 33 33
34 29 29 29 30 31 26 26 24 28 33 26 23 23 22 20 20 27 30 38 44 44 44 43 42 44 45 47 48 48 45 43 40 38 39 43 42 39 36 35 35 33 33 31
38 32 28 24 22 25 27 27 26 26 27 26 26 26 25 22 21 22 24 26 39 43 43 42 41 43 45 47 48 47 43 40 39 38 39 39 39 37 34 33 33 33 32 31
34 28 29 25 27 27 26 27 26 24 28 26 27 26 26 24 22 23 27 29 28 33 40 41 42 46 48 48 48 44 42 39 39 38 37 38 38 35 34 34 34 34 33 32
35 31 30 30 31 27 26 26 25 24 23 24 24 24 26 24 24 24 24 24 26 30 33 41 46 46 46 46 43 41 38 39 39 38 36 34 35 33 35 33 33 33 33 32
36 33 31 28 27 25 22 25 24 25 25 24 22 25 27 26 27 28 27 30 30 32 34 39 42 44 45 43 42 38 38 40 38 33 32 33 34 33 32 31 30 29 30 31
37 35 33 28 26 15 26 23 18 20 22 22 21 22 26 26 31 31 33 33 33 35 35 38 40 41 41 42 39 38 35 32 32 30 31 31 31 30 30 29 29 30 32 32
41 36 31 24 25 27 25 24 26 23 24 27 27 27 27 27 32 36 35 35 34 34 36 39 41 39 37 34 32 31 31 29 30 29 28 30 31 30 30 29 32 32 31 31
37 38 29 29 24 17 29 25 28 26 26 32 32 32 35 33 33 37 38 38 37 37 36 36 32 30 30 30 29 30 28 28 29 30 29 30 31 30 31 31 31 31 31 30
30 30 27 25 24 30 32 28 31 20 27 35 34 35 35 36 38 38 38 38 34 31 31 31 31 31 31 32 31 31 30 28 29 31 32 32 32 31 30 30 29 28 29 29
30 31 26 31 30 26 29 28 27 36 35 36 36 37 37 38 38 39 38 32 30 30 30 30 31 30 30 29 29 28 28 29 31 32 32 32 32 31 30 29 29 29 29 29
32 37 34 33 33 38 33 38 40 40 38 38 39 41 42 41 41 37 32 33 33 33 33 34 33 32 29 28 28 28 28 29 32 32 32 32 32 30 29 28 29 29 29 28
35 35 35 30 34 32 40 41 41 42 41 39 38 38 39 38 33 33 34 34 34 34 34 34 33 31 30 29 27 30 30 31 31 30 30 30 30 30 29 30 29 28 27 25
36 33 33 31 38 40 38 40 40 39 39 35 35 35 35 35 35 35 34 33 32 31 31 30 29 28 27 30 30 30 29 30 27 28 29 29 30 30 30 31 29 28 27 27
36 35 31 33 40 38 37 37 37 36 36 36 36 36 36 35 34 34 33 33 31 31 30 29 29 30 30 30 27 27 27 27 27 28 28 28 28 28 29 29 28 30 29 30

GFSCGP_sfc_dewp_048.txt.gz
Dewpoint
40 31 30 30 30 28 24 21 20 20 21 31 31 26 27 45 48 47 46 45 43 47 49 49 49 50 51 58 58 57 56 56 56 55 53 52 51 52 49 48 48 49 48 47
33 28 32 34 30 29 27 26 24 21 25 24 25 24 26 40 45 46 45 43 41 43 46 48 49 50 57 58 58 57 56 56 55 55 53 53 51 50 47 47 48 49 45 44
31 29 33 34 27 28 27 27 26 25 27 19 15 14 22 27 37 42 43 42 40 38 44 47 51 55 57 57 57 56 56 56 56 55 53 50 49 47 46 46 46 48 45 43
31 30 31 32 31 29 26 29 28 28 24 18 21 10 24 22 28 36 37 37 37 38 43 48 52 56 57 57 58 56 56 56 56 56 53 49 47 46 47 46 47 46 44 43
30 33 32 31 29 29 28 31 29 29 27 27 27 21 21 23 23 34 36 36 35 39 41 49 55 56 57 58 58 57 56 56 56 56 53 50 48 47 47 47 47 45 44 43
29 35 31 31 34 33 31 29 34 34 31 24 26 23 21 24 23 26 35 36 38 41 45 47 56 57 58 58 58 58 57 57 58 57 53 51 48 47 47 47 45 44 44 42
28 30 34 36 30 30 29 28 25 24 26 24 29 25 25 28 27 29 31 35 40 43 48 50 56 57 58 58 58 58 57 57 57 56 53 51 48 47 47 47 46 42 39 38
25 24 32 35 31 29 30 28 25 19 25 25 29 25 26 30 31 33 33 31 41 45 47 50 55 57 58 58 58 58 58 56 54 52 50 48 46 46 46 44 42 40 39 38
30 29 35 35 35 34 32 29 31 30 31 28 26 21 28 32 32 35 35 38 40 46 49 52 53 56 57 58 58 58 58 54 51 50 47 43 42 42 41 40 40 39 38 37
30 30 37 37 33 32 28 29 28 30 20 19 19 20 27 31 33 37 38 39 46 48 51 53 54 54 56 56 54 51 51 49 49 47 44 42 44 43 40 39 39 38 37 35
33 32 31 36 34 28 27 25 27 26 27 22 21 19 22 31 33 36 38 43 46 46 48 51 51 52 52 52 49 47 47 48 46 43 44 43 42 43 43 40 39 36 38 37
34 35 31 28 33 34 33 31 31 26 20 26 25 20 25 30 32 37 38 43 46 46 46 48 49 50 49 49 48 47 47 46 43 42 42 40 41 43 41 39 39 39 36 35
34 32 29 29 29 33 32 30 28 32 29 25 22 23 23 24 26 31 36 41 45 46 46 46 47 49 49 48 48 47 46 44 42 40 40 42 44 41 41 38 37 37 34 33
37 31 29 26 24 26 26 27 25 26 26 25 25 24 25 25 24 21 27 33 44 45 45 44 44 47 48 48 49 47 45 46 41 41 42 43 43 40 36 37 35 34 33 31
33 27 28 26 27 28 27 26 26 24 27 24 25 26 25 26 23 24 25 28 35 42 43 44 44 44 46 48 48 46 44 44 44 43 42 43 42 37 36 35 34 34 33 31
34 27 28 28 29 26 25 24 24 25 24 25 25 25 27 28 27 28 27 29 31 34 39 41 45 47 47 48 45 44 44 44 43 41 41 40 36 36 36 35 34 34 33 31
34 33 29 26 26 26 24 26 24 24 25 25 22 25 26 29 28 28 32 32 33 35 39 45 46 47 47 47 45 44 42 43 38 36 36 37 36 35 35 33 31 29 30 31
35 33 29 26 24 18 28 28 26 25 25 23 23 25 31 31 33 34 33 32 33 36 38 40 42 43 42 40 39 38 36 34 35 32 32 33 33 32 32 31 31 33 33 32
38 34 29 23 24 26 26 20 22 24 26 29 29 30 28 34 35 35 38 38 37 39 35 33 34 33 34 33 33 31 31 30 30 31 31 32 33 32 31 36 34 33 31 31
37 35 31 28 21 18 27 26 27 29 26 32 33 35 35 33 32 35 38 33 31 31 31 31 31 31 30 29 28 29 30 30 31 31 31 32 33 37 36 33 32 31 30 29
30 30 26 23 21 25 31 28 29 18 23 34 35 35 35 36 37 38 32 31 31 31 30 30 30 30 30 30 29 29 30 31 33 35 36 38 37 33 31 30 29 29 29 28
28 28 25 28 22 21 35 29 25 30 36 36 36 36 39 40 36 32 31 30 30 30 30 30 29 29 29 28 29 29 30 31 33 36 35 32 32 31 30 30 30 29 29 28
30 30 30 31 30 36 38 37 38 38 38 39 40 41 41 35 33 33 33 33 33 33 32 29 27 28 29 29 29 29 30 31 32 32 31 31 31 31 30 29 28 28 27 26
35 39 35 32 37 39 40 41 41 39 36 36 37 37 36 34 34 34 34 33 33 33 32 32 30 29 29 29 29 30 30 30 29 28 28 29 29 29 29 29 29 29 25 23
35 34 34 38 38 38 38 38 37 36 37 36 36 36 35 35 34 33 33 32 31 30 29 29 29 30 29 30 29 29 29 29 28 27 28 28 28 28 28 30 30 29 28 27
35 33 31 32 39 37 36 37 37 36 36 36 35 34 34 34 33 32 31 31 30 30 30 29 30 30 29 26 26 27 28 27 26 26 27 27 27 27 28 28 28 30 30 30

GFSCGP_sfc_dewp_051.txt.gz
Dewpoint
39 29 27 30 30 29 28 23 20 21 22 29 30 29 27 45 50 51 52 52 53 55 56 56 56 55 53 55 58 58 56 56 56 54 53 52 52 51 49 48 48 49 47 45
30 27 30 32 33 29 28 25 23 24 25 26 27 29 26 44 49 50 50 49 47 54 54 54 52 52 52 56 58 57 56 56 56 55 53 52 51 51 48 48 48 48 47 45
30 27 33 31 29 29 27 26 25 25 26 22 22 21 25 39 46 48 49 48 45 50 51 52 49 51 52 56 57 57 56 56 55 54 52 50 48 48 46 46 47 48 44 45
31 32 30 31 30 28 26 29 28 28 24 15 20 12 20 27 39 44 46 45 43 46 49 49 49 50 53 55 57 57 57 56 55 54 52 49 48 47 46 46 46 48 45 43
27 31 29 29 28 29 28 31 30 29 26 26 25 21 20 24 32 37 43 44 42 42 46 47 49 50 53 56 57 56 57 56 56 54 53 51 48 47 47 46 46 46 44 43
28 34 30 29 33 31 32 30 31 32 29 22 25 23 22 22 22 27 38 42 41 38 44 46 48 51 54 57 57 56 56 56 56 55 54 51 49 47 46 46 46 44 43 42
27 29 32 35 29 31 29 27 23 23 24 23 27 25 25 26 27 25 31 37 38 38 42 45 50 54 56 57 57 57 56 56 56 56 55 53 49 47 47 46 46 43 40 37
24 24 30 34 31 29 31 27 24 17 22 22 28 27 24 29 32 32 31 36 38 40 43 49 54 55 56 57 57 58 57 56 56 56 55 53 50 48 47 47 45 41 38 38
27 26 36 35 35 31 31 28 29 29 30 27 25 24 26 31 32 35 34 34 39 42 45 50 55 56 57 57 57 58 57 57 57 56 55 50 48 47 45 43 42 41 39 39
29 24 35 36 35 33 29 30 25 27 19 20 19 20 24 29 30 33 36 36 38 45 47 50 55 56 57 57 58 58 58 57 55 52 49 46 44 44 41 42 41 39 41 40
32 26 28 34 30 25 27 26 26 27 25 20 20 21 21 30 31 32 34 38 45 47 51 53 54 56 57 57 57 57 57 55 49 47 44 44 43 42 42 40 39 38 40 40
32 30 27 27 31 33 30 29 29 25 21 25 25 20 23 25 31 35 36 38 46 47 51 53 53 54 55 55 55 55 54 51 48 47 45 43 42 41 40 38 38 42 44 41
34 30 26 24 26 33 32 32 31 31 28 24 22 22 24 24 25 31 36 37 44 47 48 51 52 52 53 53 53 51 49 48 47 45 43 42 42 41 40 40 43 43 38 37
36 32 27 24 23 27 27 28 28 29 26 24 25 24 24 23 25 25 25 33 40 45 46 46 49 51 52 51 50 49 49 48 45 43 42 43 43 43 43 43 40 37 35 33
33 27 28 27 25 24 23 24 27 26 26 24 24 25 26 27 24 23 25 26 33 42 45 45 45 47 49 49 50 48 47 46 45 43 44 45 44 42 40 38 35 34 34 33
33 27 25 29 29 27 25 24 24 24 25 27 25 24 26 28 29 30 30 32 35 39 41 43 45 46 47 49 48 45 45 46 46 45 45 41 38 36 37 37 36 35 34 33
31 31 27 23 26 25 24 26 25 24 25 25 22 24 26 29 31 32 33 34 36 38 42 44 45 46 48 46 44 44 45 45 43 39 38 38 37 36 35 33 32 31 32 36
33 30 27 24 24 16 25 29 27 25 25 24 25 26 30 31 34 36 35 34 38 39 38 39 43 42 42 41 41 38 37 35 35 35 34 34 34 33 33 33 34 38 38 33
37 32 27 24 24 24 26 24 25 23 23 28 28 31 33 35 35 35 36 35 34 32 32 31 32 34 34 33 33 33 33 32 31 32 33 33 33 33 34 37 38 37 32 31
35 34 30 25 21 20 28 28 26 28 24 30 32 32 33 33 28 34 33 33 31 31 31 31 30 29 29 29 30 32 31 31 31 32 32 33 34 37 39 37 34 31 31 29
31 31 29 24 23 26 29 29 28 19 22 33 35 35 35 33 35 34 32 31 30 30 30 30 30 29 29 30 31 32 33 33 34 36 38 41 39 35 33 30 29 29 29 28
31 30 25 26 21 22 32 28 22 28 35 36 36 37 38 35 32 31 31 31 30 29 29 29 29 29 29 29 30 31 33 36 37 36 34 33 32 31 30 30 29 29 28 27
27 32 31 30 29 34 38 32 37 37 36 37 38 40 35 32 32 33 32 32 31 29 27 28 28 28 29 29 30 29 31 32 32 31 30 30 30 30 30 29 28 28 27 26
34 37 34 33 37 39 40 38 38 38 38 38 40 36 34 33 33 33 32 32 32 31 30 28 28 28 29 30 30 30 30 29 28 27 27 27 28 28 28 28 28 28 26 25
36 36 36 36 38 38 37 36 36 36 36 36 35 35 34 34 33 32 32 30 29 28 29 29 30 30 29 28 27 27 27 27 26 26 27 27 27 27 27 27 27 28 29 28
35 35 34 33 38 37 37 36 37 36 35 35 34 34 34 33 32 31 29 29 29 30 30 28 27 26 26 27 29 30 31 29 28 28 28 27 27 27 27 27 27 30 30 31

GFSCGP_sfc_dewp_054.txt.gz
Dewpoint
38 29 26 28 30 29 27 26 22 20 22 28 29 30 39 45 47 46 48 50 53 54 54 54 54 56 57 54 57 58 56 55 56 56 54 52 52 52 51 52 51 49 46 44
30 29 29 31 32 29 27 26 24 23 26 25 25 26 28 42 44 46 48 51 52 55 55 56 56 56 54 54 57 57 56 56 56 56 52 52 51 51 51 52 49 48 46 44
30 28 31 32 29 27 27 26 26 24 25 22 23 20 26 36 47 49 50 51 51 53 54 56 55 54 54 54 57 57 56 56 56 55 52 50 51 50 49 47 47 48 46 44
31 32 28 30 28 27 24 28 29 28 25 18 21 13 19 28 42 47 49 49 50 49 54 54 55 53 53 53 56 57 57 56 56 54 52 50 50 49 48 47 47 47 45 45
27 30 29 29 27 29 26 31 31 29 26 25 24 21 21 25 30 40 47 48 48 47 51 53 54 53 52 54 56 57 57 56 56 54 53 52 51 51 50 49 46 47 44 43
27 33 30 28 32 30 31 31 29 31 27 22 24 22 22 22 25 34 41 46 47 45 47 50 52 51 51 54 55 56 56 56 56 55 53 52 51 51 50 47 46 45 43 42
27 28 31 34 29 31 29 26 22 23 24 21 27 25 24 25 27 26 31 40 46 45 43 47 48 49 52 54 55 56 56 56 56 56 54 53 52 52 49 46 46 43 41 39
24 24 29 32 29 26 29 26 24 17 21 20 26 24 24 28 32 33 31 30 41 43 41 44 47 50 53 55 55 56 56 56 56 56 56 54 53 50 48 47 46 44 40 38
25 23 34 34 35 30 31 26 28 27 29 25 24 24 21 29 31 35 33 36 38 38 39 43 46 50 54 55 55 56 56 56 56 56 56 54 53 49 47 47 44 41 39 39
26 21 33 34 34 33 29 30 25 26 20 20 19 19 20 23 28 31 34 36 36 41 42 45 49 52 55 56 56 56 57 56 56 56 56 54 52 49 47 44 42 40 41 40
29 23 25 33 29 25 29 27 26 25 24 20 19 20 22 22 30 30 32 36 38 40 45 47 52 54 55 56 56 56 57 57 56 55 54 51 48 46 44 43 42 42 41 41
31 26 25 27 31 31 28 28 27 25 21 25 24 21 23 22 25 32 33 36 42 46 47 50 51 54 55 56 56 57 57 57 55 52 49 47 45 46 46 43 43 42 43 43
32 26 22 21 25 32 30 31 31 30 27 24 21 22 24 25 24 26 31 33 38 46 48 50 51 53 54 55 55 55 55 54 50 49 48 47 46 45 43 42 42 44 44 42
34 30 23 20 21 26 30 30 31 29 26 25 24 23 24 25 25 26 26 27 33 41 47 48 50 51 52 52 52 52 50 49 49 48 47 47 45 44 41 42 44 43 39 38
31 25 28 25 25 25 24 23 27 26 26 24 24 25 25 26 27 24 26 26 29 37 44 46 47 48 50 50 49 49 48 47 47 46 46 46 45 43 43 43 39 39 38 35
32 26 26 28 28 27 25 25 26 26 26 25 25 24 27 27 30 31 33 36 39 42 43 42 45 45 49 49 48 47 45 45 46 45 45 43 42 41 38 37 38 37 35 33
30 30 26 23 26 26 24 26 25 25 25 26 24 26 26 29 31 32 33 36 38 40 41 45 45 46 47 46 45 44 45 45 43 41 40 39 38 37 36 34 33 32 35 39
31 29 26 24 24 17 26 30 28 27 25 24 23 25 28 31 35 36 36 37 34 33 33 35 39 40 40 40 39 37 38 38 36 35 35 34 33 33 34 36 38 39 39 39
35 30 26 24 24 23 25 25 25 24 22 26 25 31 33 35 35 35 33 33 32 32 31 30 31 32 32 33 33 33 33 33 32 31 32 33 35 36 37 38 39 40 37 33
33 32 28 24 20 17 25 27 26 25 21 29 31 33 34 33 26 32 32 31 30 30 30 29 30 30 31 31 31 31 31 31 31 33 34 38 40 40 40 39 36 34 31 30
30 29 24 22 22 26 31 28 27 20 23 31 32 33 34 31 31 32 31 30 30 29 29 30 30 30 31 31 31 32 33 34 35 39 41 41 38 35 34 31 29 29 29 28
32 30 25 25 21 23 30 27 24 27 34 34 34 36 36 33 32 31 31 29 29 28 29 29 29 30 31 32 34 35 36 37 35 34 33 32 31 30 30 29 29 29 28 27
31 33 31 31 31 33 34 30 34 34 34 35 36 38 34 32 32 31 30 29 28 27 27 28 28 29 30 30 30 30 31 31 30 29 28 28 28 28 28 28 28 28 27 26
33 35 32 32 35 37 39 38 38 38 38 39 39 35 34 33 32 31 31 30 29 27 27 28 29 29 28 28 28 28 29 29 27 27 27 27 27 28 28 27 27 27 25 26
35 36 35 34 37 38 38 36 37 36 37 36 35 34 33 33 31 31 30 29 28 28 29 30 27 27 28 30 31 30 29 29 28 28 28 27 27 27 26 27 27 27 27 27
36 35 34 32 38 36 36 36 37 36 35 35 34 33 33 32 31 29 29 29 29 29 27 26 27 29 29 27 27 28 27 26 25 25 26 26 25 25 25 25 24 26 27 27

GFSCGP_sfc_dewp_057.txt.gz
Dewpoint
37 31 29 29 31 28 27 25 23 22 23 33 33 32 36 51 52 50 50 50 51 52 53 55 55 56 57 58 59 60 60 60 59 57 57 57 58 59 59 57 56 54 52 50
31 31 32 30 31 30 28 25 25 25 26 27 25 24 28 47 50 49 48 49 48 51 53 54 55 56 56 57 59 59 59 59 58 57 57 57 57 58 57 57 55 53 51 48
32 29 31 32 29 28 27 26 26 26 26 23 22 19 26 39 45 48 48 49 49 51 53 54 55 55 56 57 58 58 58 58 58 57 56 55 56 55 54 54 54 52 49 47
30 32 30 29 29 28 24 28 28 28 26 21 24 19 22 26 40 45 46 48 49 51 52 54 56 56 56 56 58 58 58 58 58 57 56 55 55 55 55 55 54 52 49 47
28 30 30 29 29 30 27 30 30 29 27 26 24 22 23 24 26 37 45 48 51 51 52 53 55 56 56 57 58 59 59 58 58 57 57 57 56 57 54 53 52 52 50 47
28 32 30 29 31 30 31 31 30 30 28 24 24 22 22 22 25 27 35 44 50 51 51 53 55 56 55 57 58 59 58 57 58 57 57 56 56 55 53 53 52 50 48 47
27 28 30 33 29 31 29 27 25 26 26 23 27 25 25 26 27 28 30 36 47 50 50 50 53 54 55 55 56 58 57 57 58 57 57 56 55 55 53 52 50 50 48 46
23 22 29 33 30 28 29 28 28 17 21 21 26 24 21 29 29 33 34 34 35 48 50 49 50 53 53 55 56 57 56 57 57 57 57 56 55 55 54 52 50 50 49 46
27 23 32 34 34 30 31 28 29 29 30 28 25 24 22 26 29 33 36 35 36 40 47 47 48 51 53 53 55 57 56 56 57 57 58 57 56 55 54 51 51 50 48 43
30 24 33 33 34 33 30 31 28 28 22 20 20 20 18 23 28 31 32 36 37 40 41 43 46 50 52 54 55 57 57 56 57 57 58 57 56 56 54 52 50 47 44 42
29 27 26 32 30 27 30 28 28 27 26 21 20 19 28 24 27 32 34 36 39 39 43 43 45 48 52 55 56 56 56 56 57 57 57 57 57 56 53 50 47 44 43 43
32 31 29 27 31 30 30 30 30 30 24 27 26 23 27 28 26 28 32 34 39 44 43 46 47 51 54 55 56 56 57 57 57 57 57 57 56 53 51 48 45 44 42 43
34 28 24 22 26 32 30 30 30 30 30 26 30 25 26 28 27 27 29 31 35 42 47 48 50 51 53 55 56 57 56 56 57 55 55 53 51 50 48 46 45 45 45 44
35 31 27 21 23 27 31 31 30 31 30 28 27 26 27 28 27 28 30 30 29 31 41 48 50 52 54 55 56 56 56 55 53 51 50 49 48 47 46 46 45 45 44 42
35 28 29 25 23 26 27 29 30 28 30 29 28 26 27 28 28 28 31 34 41 41 42 45 48 51 52 53 54 53 52 50 50 48 47 47 46 45 44 45 43 41 41 40
34 29 31 27 27 26 25 25 29 29 27 27 26 26 29 28 29 33 36 40 41 43 45 45 46 48 50 50 50 48 48 47 48 47 46 44 43 43 41 40 40 41 40 38
33 33 30 26 27 27 28 29 27 27 28 29 27 30 28 29 31 34 37 40 40 40 42 44 44 46 47 47 46 46 46 46 44 43 42 40 39 39 39 37 36 36 38 40
34 32 30 29 27 26 28 29 28 29 28 27 25 25 27 31 35 35 36 36 35 36 38 39 40 41 42 42 42 41 40 39 38 36 35 35 35 35 36 39 41 41 41 41
35 33 29 30 27 26 24 26 28 28 25 28 27 26 31 35 35 34 33 33 33 33 33 34 35 36 36 37 37 36 35 34 33 33 35 37 39 39 40 40 40 41 41 39
33 34 35 27 26 25 30 28 28 26 24 29 29 32 34 35 34 33 33 32 32 31 32 32 33 34 34 34 34 33 32 34 36 38 39 40 41 41 40 39 36 35 34 32
32 32 30 27 31 29 30 29 30 26 27 32 32 34 36 34 34 35 32 31 31 31 31 33 33 32 32 33 34 34 35 36 39 41 38 35 34 33 32 32 32 31 30 31
32 31 31 29 30 27 33 26 28 34 33 35 35 37 38 35 33 32 31 30 30 30 30 31 32 32 34 35 36 35 34 33 32 32 31 30 30 28 28 30 30 29 30 30
34 34 34 32 34 36 32 35 34 34 35 36 37 37 35 33 32 31 30 29 29 29 29 30 31 31 31 30 30 28 29 28 28 28 29 29 29 28 28 28 28 27 27 27
35 39 35 35 35 36 37 39 39 38 37 37 39 36 35 33 32 30 29 28 28 28 28 29 28 28 28 29 29 28 28 29 29 28 26 25 23 22 21 19 20 20 23 24
35 39 35 35 36 38 39 39 38 37 39 37 36 35 34 33 30 30 28 28 28 28 28 27 28 29 28 27 25 25 25 26 24 23 20 18 19 19 17 18 20 20 22 24
37 36 36 35 38 38 37 40 39 38 37 36 34 33 33 32 30 29 28 29 29 27 27 28 28 26 24 23 22 21 21 18 17 15 16 19 19 20 18 17 17 20 22 22

GFSCGP_sfc_dewp_060.txt.gz
Dewpoint
35 28 26 23 25 29 24 21 19 20 25 31 28 26 24 43 48 46 44 44 48 50 51 54 55 55 54 53 54 56 57 59 61 59 55 53 54 55 56 58 61 61 60 59
32 28 26 28 29 29 27 20 19 24 25 27 23 22 23 33 45 46 45 45 45 47 50 53 55 55 56 54 55 56 57 59 59 57 54 52 53 55 55 58 60 60 59 58
27 26 30 30 28 28 27 24 23 21 25 25 24 19 23 33 42 46 48 47 44 44 47 51 53 55 56 55 56 55 56 58 59 58 55 53 54 56 56 57 60 59 57 55
27 27 28 28 27 26 24 24 24 24 22 18 24 16 20 24 33 40 43 47 47 45 46 49 52 54 56 56 56 56 56 57 58 59 56 55 51 50 54 57 59 58 56 54
25 28 28 26 25 27 23 28 27 27 24 25 23 19 19 23 22 30 39 42 46 47 46 48 51 53 55 56 57 58 56 57 58 59 58 56 54 50 54 58 58 57 55 52
24 30 29 26 28 28 29 29 29 30 27 23 22 20 17 17 20 23 27 37 42 46 48 48 48 53 54 56 58 59 58 57 58 59 60 59 58 56 57 57 57 56 55 52
25 25 28 31 28 31 30 27 25 26 25 22 25 22 20 22 25 27 29 31 35 43 48 49 48 50 53 56 58 58 58 57 58 60 60 60 60 59 57 56 56 55 53 51
21 21 25 30 28 26 28 26 25 18 20 20 25 18 17 25 26 30 34 35 35 36 46 48 50 51 52 55 57 59 58 57 57 59 59 60 60 59 57 57 57 56 53 50
21 19 27 30 30 28 30 27 28 27 32 29 20 20 21 24 24 31 30 32 35 35 41 46 48 50 53 55 57 58 58 57 57 59 60 60 59 58 57 57 57 55 52 52
26 21 28 32 33 33 31 29 27 28 21 18 18 18 15 19 25 23 25 28 32 38 39 42 45 49 51 53 56 58 59 57 58 58 59 59 58 58 58 57 56 54 53 54
25 25 31 33 30 25 29 28 28 27 26 23 20 18 22 21 24 30 32 31 34 37 41 42 44 46 49 52 54 56 57 56 56 57 58 58 58 58 58 57 55 53 52 49
28 26 25 24 30 31 28 27 29 26 23 28 28 21 22 26 27 27 28 31 36 40 42 43 44 46 48 51 53 54 55 55 55 57 57 57 58 57 57 56 53 51 48 45
29 26 23 23 27 31 27 28 27 28 29 25 30 22 26 27 28 28 28 29 32 37 41 45 46 47 49 51 53 54 56 56 56 57 57 57 57 56 53 50 47 45 45 45
34 26 24 22 19 20 25 25 26 27 28 23 25 22 22 25 25 26 30 31 30 31 32 43 47 49 52 54 55 56 57 57 56 55 54 52 51 49 47 46 46 45 46 45
32 25 25 21 19 18 19 18 21 22 23 22 23 19 25 26 27 28 31 32 37 39 39 40 47 50 52 55 56 55 54 52 52 50 50 49 48 47 46 46 45 45 45 42
33 26 27 25 22 22 20 20 19 22 21 26 25 23 26 28 29 30 33 37 40 43 44 45 47 50 52 53 52 52 52 52 50 49 46 45 45 45 44 44 44 44 43 41
33 30 30 24 26 26 29 27 22 23 28 28 25 26 26 28 29 31 36 39 41 43 44 45 48 49 50 50 50 50 49 49 48 46 44 43 43 43 43 41 39 37 38 38
36 32 33 28 32 30 24 29 26 26 25 26 26 26 27 27 31 35 39 40 40 41 42 44 45 46 46 46 46 46 44 44 43 41 41 40 40 38 38 39 40 40 41 40
38 35 34 36 28 24 25 26 28 28 25 27 27 26 27 32 35 35 36 39 39 40 40 41 42 43 44 43 43 41 40 38 37 38 39 39 40 39 39 40 41 42 42 41
36 37 36 32 30 32 26 26 30 30 28 26 27 27 29 34 33 30 36 36 36 37 38 39 40 41 41 41 40 39 38 39 39 39 39 39 40 40 39 38 37 37 35 32
35 35 36 33 34 30 29 28 29 27 30 30 29 30 34 34 34 38 36 35 35 36 36 38 38 38 38 38 39 38 38 38 39 39 37 37 35 34 34 32 31 31 30 30
33 35 36 35 37 33 31 28 28 32 36 34 35 35 38 38 37 36 34 34 34 34 35 35 36 37 37 37 38 37 36 35 35 33 30 29 29 26 26 29 30 29 30 31
35 35 36 33 33 37 34 32 33 36 34 36 36 36 39 37 35 34 33 33 33 33 33 35 35 36 35 34 33 31 31 30 30 29 29 28 27 26 25 25 25 23 21 22
35 38 38 36 32 34 36 34 37 35 36 35 36 37 39 36 35 34 33 32 32 32 32 32 32 31 30 30 29 29 28 28 28 27 26 24 20 19 17 14 14 16 21 23
34 37 34 36 36 37 38 38 37 37 39 38 37 38 37 36 34 33 32 31 31 31 31 31 31 30 28 27 26 26 26 25 23 21 18 17 18 16 14 14 17 19 22 23
36 34 38 37 36 39 35 39 40 39 38 37 37 37 36 35 33 32 31 31 30 30 30 30 29 27 24 22 21 20 19 18 17 14 15 19 19 19 15 13 14 21 20 19

GFSCGP_sfc_dewp_063.txt.gz
Dewpoint
31 26 24 24 24 21 22 17 14 19 22 24 25 28 25 38 38 40 41 43 46 47 47 50 51 50 50 52 52 52 52 53 55 54 52 50 50 51 52 53 56 59 61 61
29 27 24 24 23 25 23 20 16 19 21 23 22 25 24 26 37 38 40 39 44 46 47 48 51 51 50 51 52 52 51 52 54 54 53 50 48 49 50 52 56 60 61 61
26 24 24 25 23 24 24 22 24 22 28 22 21 20 20 23 34 39 41 40 41 44 46 48 49 52 52 51 52 52 53 53 54 54 53 49 49 50 51 51 54 60 61 59
25 24 25 24 24 24 23 22 21 21 20 18 28 21 27 21 28 35 40 44 43 41 44 48 51 53 54 53 53 53 53 53 54 56 53 52 47 46 49 52 53 58 59 58
24 22 25 25 25 24 23 27 24 23 24 25 23 15 28 21 16 24 35 43 42 41 41 44 48 52 53 55 55 55 53 53 54 55 56 54 52 50 50 52 55 59 60 58
23 23 24 24 23 25 25 26 25 25 24 25 21 20 22 20 16 16 21 33 40 41 40 41 45 49 51 53 56 56 55 54 55 56 57 57 56 55 50 51 56 59 58 57
22 24 24 26 25 27 26 25 23 26 28 24 26 18 22 28 20 21 23 24 34 40 43 43 41 46 49 52 55 56 56 54 55 57 57 58 58 58 57 55 57 57 57 57
19 21 23 26 25 25 27 25 26 25 25 28 22 16 18 21 21 24 27 30 32 34 40 43 45 44 48 51 53 56 55 55 55 59 58 59 60 59 59 58 59 58 58 58
20 18 21 23 24 25 27 26 28 27 26 26 19 17 17 19 18 23 25 28 31 33 34 40 44 47 46 50 54 57 56 55 56 59 60 61 61 61 60 60 59 58 59 56
22 21 20 23 26 26 30 28 26 25 23 22 16 16 16 19 23 20 22 24 26 33 36 39 43 47 49 50 54 57 58 56 56 57 60 61 61 61 61 60 59 58 57 55
22 23 24 29 27 22 26 28 27 29 30 25 21 17 22 19 21 23 25 24 27 30 37 40 41 44 47 50 53 55 57 57 57 57 59 61 60 60 59 59 58 58 57 55
24 26 26 25 22 23 25 26 26 26 23 25 27 23 22 22 23 24 25 26 28 33 34 39 43 44 45 48 51 54 56 57 57 57 58 60 59 59 59 58 58 57 54 50
26 25 23 21 26 26 25 26 27 28 26 26 32 24 23 24 24 25 25 25 29 33 33 37 42 44 47 49 51 53 55 54 54 55 56 58 58 57 54 50 49 46 46 46
34 25 24 22 21 23 23 22 23 26 30 25 23 20 22 22 23 23 24 27 27 30 31 36 40 45 48 51 52 53 56 57 57 57 55 54 52 50 48 47 46 45 45 45
30 25 24 21 19 18 18 20 21 21 23 24 23 19 19 21 23 25 30 30 30 33 33 33 42 45 50 53 56 56 55 54 53 52 50 50 49 48 47 47 46 46 45 44
30 27 26 23 21 18 18 17 16 15 17 17 17 17 20 22 21 25 28 30 33 38 40 41 43 48 52 54 54 53 52 51 50 49 48 48 47 46 46 45 44 44 43 42
31 32 28 26 22 22 26 21 18 18 19 20 21 23 22 23 23 25 28 34 36 41 43 45 47 51 52 52 52 52 50 49 47 47 46 46 45 45 45 44 43 42 42 41
31 30 32 32 34 29 24 23 22 22 21 20 21 20 22 21 23 27 32 35 40 42 44 47 48 49 50 50 50 50 48 47 46 45 44 44 43 41 41 40 41 41 40 40
38 34 34 34 30 25 21 25 25 23 21 21 21 20 21 25 32 35 36 39 41 43 44 45 46 46 46 45 45 44 43 43 42 41 40 41 42 41 40 40 40 41 40 41
33 39 38 34 29 28 27 25 26 25 28 25 23 25 25 31 34 27 37 41 41 40 41 42 43 43 43 43 42 41 41 41 41 41 41 41 40 40 41 41 41 41 39 34
36 39 38 34 32 28 25 25 26 29 30 26 26 26 27 30 32 38 39 39 38 38 39 41 41 41 41 41 42 41 41 40 40 40 40 40 39 38 37 35 33 31 29 29
35 35 38 36 36 33 32 29 29 34 34 32 31 30 33 37 40 38 38 37 37 37 38 39 39 39 40 40 40 39 39 39 38 37 35 33 31 27 27 29 29 28 29 30
35 34 35 34 33 36 35 34 35 33 35 35 35 32 35 40 38 37 36 36 36 36 36 37 38 39 39 39 39 37 36 34 34 33 31 29 27 25 24 24 24 21 20 23
33 34 37 36 34 33 34 36 35 36 37 35 36 35 37 40 38 36 35 36 36 35 35 36 37 37 36 35 33 33 33 31 30 29 27 24 23 19 16 13 14 16 23 23
28 28 32 32 30 29 35 37 38 35 38 36 35 35 38 39 37 35 35 35 34 34 35 36 35 33 32 31 30 29 28 28 25 22 19 19 18 16 14 14 16 20 24 22
26 27 36 36 33 38 36 37 40 39 37 38 36 36 39 37 36 35 35 35 34 34 34 33 33 31 29 28 26 26 25 22 19 17 17 22 22 21 15 13 18 21 21 21

GFSCGP_sfc_dewp_066.txt.gz
Dewpoint
28 24 23 24 26 25 21 18 18 21 23 24 22 24 38 42 40 42 41 44 47 45 48 54 53 51 50 52 53 52 52 56 56 54 54 53 55 54 54 53 56 61 61 62
26 26 24 24 23 22 22 20 18 19 23 21 18 21 33 37 32 34 38 41 44 45 47 48 49 50 51 52 54 53 54 55 54 54 53 53 53 54 53 55 56 60 61 62
27 26 26 23 23 21 21 18 22 25 22 21 22 19 23 24 31 32 37 38 44 44 45 48 50 50 52 52 53 52 52 53 54 54 53 52 52 53 52 53 56 60 62 61
25 25 24 23 23 22 21 20 23 20 21 17 26 21 27 26 24 32 34 39 39 43 44 47 49 50 51 52 53 52 52 51 53 56 54 53 49 47 51 53 54 59 61 61
23 23 23 24 21 23 23 27 27 23 20 23 23 26 25 25 22 24 33 39 41 43 45 46 47 50 50 52 53 54 54 52 53 54 55 55 53 52 51 54 54 59 60 60
22 23 22 22 23 24 24 24 25 25 23 23 21 23 24 23 27 23 32 39 42 42 43 46 49 50 52 53 54 54 55 53 54 55 56 57 55 54 52 54 55 59 59 59
21 21 21 22 22 24 23 24 24 26 26 25 24 23 25 30 28 26 23 37 41 42 41 42 46 50 52 53 55 55 54 53 54 57 57 57 59 57 56 54 55 59 59 58
20 20 21 23 24 22 25 24 26 25 30 31 32 21 17 26 24 22 23 31 34 39 43 42 42 49 51 53 55 56 55 54 54 56 58 59 58 59 58 58 59 58 58 59
21 19 20 23 24 23 26 27 26 34 35 34 30 25 20 21 18 20 23 28 32 34 38 43 44 45 50 52 55 57 56 55 55 56 57 58 60 59 59 60 60 59 59 59
22 24 21 22 23 23 23 27 26 29 29 23 16 17 19 21 21 22 21 27 31 37 39 39 43 47 47 52 54 57 57 56 56 57 58 59 60 61 61 61 60 60 59 56
24 26 24 23 21 21 22 26 31 26 26 29 28 24 34 26 23 23 27 27 32 36 39 41 43 47 48 49 52 56 56 55 56 57 58 59 61 61 61 60 59 59 57 57
26 28 27 22 22 24 22 25 30 30 27 31 34 25 33 32 25 27 26 28 33 34 36 41 44 45 47 50 51 55 57 57 57 58 60 61 61 60 59 58 57 57 55 54
28 25 24 25 25 25 20 23 25 28 29 28 32 26 24 24 25 25 30 27 30 33 34 39 43 45 46 48 52 54 57 57 58 59 60 61 59 57 53 51 50 49 48 47
36 27 25 26 27 25 22 21 27 28 32 30 29 27 28 25 26 24 27 28 29 33 32 35 40 45 48 51 52 56 58 58 57 57 54 52 51 50 48 47 48 46 46 46
35 28 27 22 22 22 22 21 19 18 25 28 27 22 22 23 24 27 33 32 29 30 32 35 40 46 49 55 56 55 55 54 53 52 50 49 49 48 47 46 47 46 46 45
34 29 29 27 23 21 21 20 20 19 19 20 21 23 23 22 21 23 28 29 30 33 38 39 42 48 55 55 53 52 51 50 50 48 48 47 47 47 46 46 44 44 43 42
33 32 29 27 24 22 24 24 19 19 21 20 20 23 22 21 22 26 28 28 31 39 41 43 45 53 54 53 52 51 49 48 48 48 47 47 46 46 45 44 43 42 42 42
37 33 31 32 33 24 25 24 21 23 21 19 18 19 20 21 23 28 31 33 37 41 44 46 51 52 52 52 51 50 49 48 47 46 46 46 45 44 43 43 42 43 42 40
35 39 34 31 29 26 23 24 25 24 23 23 22 21 20 21 32 35 36 40 43 44 46 49 50 50 50 50 50 48 47 46 45 45 44 42 42 41 41 41 40 41 41 41
32 40 38 37 28 27 31 27 28 28 26 26 25 29 27 31 37 34 38 42 43 44 45 46 47 47 47 46 45 44 43 43 41 41 41 42 42 41 41 41 41 41 41 40
36 37 34 33 32 32 30 29 30 27 31 34 31 31 33 34 37 40 40 42 42 42 43 44 44 44 43 43 43 42 42 41 41 42 41 41 41 41 41 41 40 38 34 35
34 34 35 35 32 30 34 30 28 34 40 37 36 37 42 43 41 40 41 41 39 39 40 42 42 42 42 42 42 41 40 41 41 40 39 38 37 34 33 33 31 30 34 33
34 35 35 34 35 40 39 38 40 41 43 42 41 39 40 42 40 39 39 39 38 38 39 40 40 41 41 41 41 40 39 39 38 36 34 31 30 29 29 30 28 27 27 27
37 41 40 41 35 34 39 39 40 39 41 39 38 40 40 42 40 39 39 38 38 37 38 38 39 40 40 40 39 38 37 35 34 32 30 28 26 23 21 17 19 26 27 27
30 36 37 38 38 38 36 37 41 41 42 40 39 39 39 42 40 39 37 37 37 37 37 38 39 39 38 36 35 34 33 33 30 28 24 21 22 21 19 19 21 25 22 24
28 27 34 36 36 41 40 43 43 42 41 41 40 40 39 42 40 38 37 37 37 37 37 38 38 35 33 32 31 31 30 28 25 21 23 28 27 25 19 19 19 24 23 24

GFSCGP_sfc_dewp_069.txt.gz
Dewpoint
31 26 24 25 26 25 24 22 20 20 23 26 27 33 38 40 44 48 49 51 51 51 54 54 53 52 53 53 52 51 53 52 54 53 52 54 52 53 54 55 57 58 58 59
29 26 26 25 26 25 25 22 21 24 25 25 20 20 39 41 42 43 47 48 49 51 52 53 52 52 51 49 48 49 50 50 54 54 54 53 53 53 53 53 55 58 58 59
28 27 27 26 24 23 23 22 22 24 26 25 22 21 36 36 39 42 44 46 46 51 51 51 49 50 50 46 47 47 49 51 54 52 53 52 54 53 52 52 53 59 60 60
28 28 27 26 25 23 21 24 23 27 25 20 23 20 26 28 33 35 40 45 45 49 51 51 48 48 49 50 50 50 50 53 53 53 52 51 50 51 51 51 53 59 60 61
26 27 26 26 25 25 24 30 29 29 25 23 23 27 31 31 27 31 35 43 44 46 47 47 48 48 49 50 52 51 51 51 52 53 52 51 50 50 51 52 52 59 60 60
24 24 24 24 26 25 25 29 29 28 26 23 24 31 31 28 25 29 34 40 42 44 47 48 48 49 50 50 51 51 51 51 51 52 53 53 51 50 49 51 52 57 60 60
21 22 22 24 23 26 25 24 24 25 25 23 31 30 28 31 30 30 31 39 38 41 45 46 48 47 48 50 50 50 51 50 50 51 52 54 53 53 49 51 52 57 58 58
21 21 22 24 22 23 25 25 27 23 26 29 33 27 23 29 29 27 30 38 41 39 42 45 47 49 48 49 50 50 50 52 52 52 52 54 54 54 55 52 54 57 58 58
21 21 24 22 24 24 28 25 29 35 35 34 35 30 25 27 25 23 24 32 39 41 40 43 47 48 50 50 50 52 51 51 52 53 56 55 54 57 54 54 57 58 58 57
27 23 23 23 25 25 25 29 29 35 30 30 29 29 24 31 29 23 21 25 31 35 39 41 42 49 50 51 53 53 53 52 52 53 54 57 56 57 58 57 57 58 58 57
23 25 27 26 24 23 25 23 30 33 33 27 25 27 33 31 31 22 27 27 32 34 35 38 42 46 50 51 52 54 54 54 54 54 55 55 58 59 59 59 59 59 58 56
25 32 27 25 25 24 23 25 32 31 28 32 30 28 30 31 27 28 26 27 30 36 37 39 42 45 50 50 51 54 55 54 54 56 57 58 59 59 59 59 59 57 56 54
31 32 28 25 25 23 22 26 26 33 34 30 27 28 29 30 27 27 26 28 30 29 38 40 42 43 45 50 52 53 57 58 62 61 59 59 57 58 58 54 53 53 51 51
35 30 28 24 28 28 26 25 24 29 28 29 31 29 29 29 26 27 25 25 29 29 33 40 42 43 50 56 56 56 56 60 58 55 53 52 51 51 50 49 49 48 47 47
33 28 29 27 29 28 27 25 22 24 29 29 30 29 28 27 26 26 29 29 28 31 30 35 41 48 55 54 53 52 52 52 52 51 49 48 48 49 48 47 46 46 46 45
34 29 29 28 28 26 27 26 22 22 22 23 28 29 29 26 24 27 30 29 29 32 36 38 49 54 53 53 51 50 49 50 50 49 48 47 46 46 45 45 45 44 44 43
32 31 31 27 28 27 27 27 29 26 22 23 22 24 25 23 21 24 28 30 35 39 40 46 53 54 53 52 50 49 48 48 48 48 47 47 46 45 45 44 43 42 42 42
35 31 33 30 29 23 27 27 27 26 25 23 22 22 22 21 23 26 28 31 39 41 42 53 53 53 52 50 49 48 48 47 47 46 46 46 45 44 43 42 42 42 41 40
36 37 32 29 27 28 28 26 27 26 25 24 22 23 23 22 33 33 36 39 42 44 48 51 52 51 51 49 49 48 47 47 46 45 45 44 44 43 42 42 41 40 39 39
34 36 35 32 26 22 30 32 30 29 26 29 30 28 29 30 30 33 41 44 45 47 49 49 50 51 50 49 48 47 46 45 45 44 43 42 42 42 40 40 39 40 40 40
30 31 29 30 31 32 33 31 33 27 28 32 33 30 31 30 34 37 43 43 44 46 47 48 47 47 46 47 46 44 43 42 42 42 42 42 41 40 40 41 40 40 38 33
32 31 31 32 31 28 34 31 29 33 34 35 36 36 39 39 40 41 42 42 42 44 45 45 44 43 43 43 42 41 41 42 42 41 41 40 41 40 40 38 33 33 33 32
32 36 34 34 33 37 38 38 37 39 38 38 38 38 42 41 40 41 41 41 40 41 42 42 42 42 42 42 42 40 41 40 40 39 39 36 34 32 30 30 29 28 28 26
35 37 37 36 37 41 44 45 42 40 40 38 38 38 44 43 42 40 40 39 39 40 40 40 41 41 41 41 40 40 39 37 36 32 30 29 25 23 21 25 26 25 24 24
37 38 38 38 39 40 40 44 38 40 42 41 41 37 37 41 40 40 39 39 38 39 39 40 40 40 39 39 38 36 35 33 30 28 23 23 23 21 21 24 23 20 22 25
31 34 37 34 38 39 38 39 38 36 38 42 42 40 38 42 40 39 38 38 38 38 39 39 39 34 33 33 32 33 32 29 25 24 24 24 23 23 18 19 21 24 24 24

GFSCGP_sfc_dewp_072.txt.gz
Dewpoint
32 27 25 24 25 24 25 24 23 23 23 26 27 31 38 41 44 47 49 50 51 54 55 53 53 53 54 54 55 55 54 54 55 52 52 52 52 53 54 56 56 58 58 58
30 27 28 27 28 26 25 24 24 24 25 24 21 20 36 42 42 45 49 50 50 52 54 53 53 52 53 53 54 53 54 54 54 52 50 52 52 53 53 54 56 57 57 58
28 29 28 27 25 24 24 24 24 22 24 26 23 23 36 38 41 43 46 46 49 51 53 53 52 51 52 53 52 50 52 52 52 54 51 53 53 52 52 52 54 57 57 57
28 30 29 27 25 25 23 25 24 23 26 22 22 19 31 34 37 40 43 45 47 51 52 53 52 51 51 50 50 49 49 48 51 54 50 51 49 50 50 52 52 55 58 58
26 29 29 28 26 27 26 28 27 27 26 24 24 24 26 30 30 34 40 44 47 51 51 52 51 51 50 48 47 47 48 48 50 53 51 52 51 53 53 52 52 54 58 58
23 26 28 27 27 27 28 27 29 28 26 23 24 27 26 29 29 31 40 44 46 50 51 51 49 49 46 45 46 47 47 48 51 53 52 52 51 51 51 52 51 54 58 58
20 21 25 25 24 27 26 24 23 23 24 23 31 29 27 27 31 30 39 43 46 50 51 50 48 47 46 46 46 48 49 49 51 53 53 52 51 52 50 50 51 52 56 58
19 20 21 25 23 23 25 25 26 20 23 25 34 27 27 29 30 31 34 43 45 48 49 50 49 48 48 48 49 50 50 50 51 52 52 53 53 52 53 50 51 53 54 57
20 20 24 22 24 24 25 25 29 33 35 30 31 34 30 28 27 26 30 39 42 45 47 47 48 48 48 49 50 51 51 51 51 51 51 51 53 54 53 53 51 54 56 57
26 22 22 23 27 25 26 30 31 34 27 26 30 30 28 28 27 24 30 39 39 42 46 47 48 48 49 50 50 51 51 50 51 51 51 51 51 55 56 55 55 56 56 56
27 26 25 27 24 24 26 26 31 34 34 28 25 26 31 31 27 24 24 31 35 40 41 44 47 49 49 49 49 50 50 50 51 52 52 52 53 54 57 56 57 57 57 57
28 28 25 23 28 28 26 25 28 30 32 34 28 26 30 31 27 27 28 31 34 36 38 41 44 47 49 49 50 49 51 51 53 58 59 58 57 58 57 58 58 58 57 57
28 28 24 22 24 26 25 25 26 34 34 31 28 27 30 31 31 27 27 28 33 34 36 40 43 44 45 50 50 51 53 55 59 59 59 58 58 58 58 59 58 55 54 55
32 31 22 19 24 29 27 25 24 29 30 30 30 30 30 28 28 26 27 27 30 34 37 39 42 48 54 55 53 53 55 57 57 55 56 56 55 55 56 55 54 53 53 50
32 28 28 27 29 29 28 27 27 24 28 27 28 29 29 29 30 27 27 27 28 29 37 40 42 54 53 54 54 54 53 52 54 52 51 50 50 50 49 49 48 48 48 48
34 28 31 30 30 29 28 29 29 28 24 29 30 30 31 31 29 28 28 28 27 30 32 38 47 53 52 52 52 52 51 51 51 50 48 48 48 48 47 46 45 45 45 45
32 32 30 26 29 29 29 31 32 31 30 26 25 29 30 28 29 26 29 29 29 33 44 49 51 53 52 51 51 50 50 50 49 48 48 47 47 46 45 45 44 44 43 43
36 32 31 27 28 27 31 33 34 33 30 28 23 22 26 25 25 24 28 31 35 38 46 51 53 52 51 50 50 49 49 49 49 48 47 46 46 45 44 44 43 43 42 42
39 35 29 27 27 30 30 29 30 29 26 28 24 22 22 24 32 32 34 34 38 41 50 52 52 50 49 48 49 48 48 47 47 46 46 45 44 43 43 42 42 41 40 40
39 39 30 28 26 23 29 30 31 31 27 30 28 27 27 30 28 30 37 42 44 49 52 51 51 50 49 48 48 47 47 46 46 46 45 44 43 43 42 41 40 39 40 40
30 31 28 28 27 30 33 32 33 26 28 32 32 30 29 29 32 33 42 44 47 49 51 51 51 49 49 48 47 46 46 45 45 45 43 43 42 41 40 40 39 39 38 36
30 30 29 29 26 25 36 34 30 34 35 35 34 34 33 33 38 40 43 45 46 48 49 50 49 48 48 47 45 44 42 42 42 42 41 40 40 40 40 39 38 36 33 30
29 31 30 30 30 36 42 42 42 42 39 38 38 39 39 38 39 42 42 44 45 46 46 46 44 43 43 43 42 41 41 41 41 40 40 40 39 38 36 34 33 32 30 28
33 37 34 33 36 39 41 42 45 44 41 41 41 38 42 39 41 41 42 41 42 43 43 43 42 42 41 41 41 41 40 40 38 35 33 31 26 26 27 26 26 26 25 25
28 36 34 35 38 40 41 43 43 44 44 40 40 40 37 41 41 41 41 41 41 41 41 42 41 40 40 39 38 38 37 35 30 26 24 23 24 24 23 20 21 24 25 26
36 37 34 33 38 37 38 41 44 42 36 40 42 41 38 41 40 41 39 41 40 40 41 37 36 33 29 30 31 32 30 27 24 22 23 24 23 23 21 18 22 26 25 25

GFSCGP_sfc_dewp_075.txt.gz
Dewpoint
31 28 26 27 27 25 24 24 23 23 24 25 24 26 34 40 46 46 50 51 52 53 54 55 55 54 54 55 56 57 56 56 55 55 54 53 53 55 56 57 57 57 56 56
29 27 28 27 27 26 25 24 23 24 25 25 23 22 31 39 41 44 46 49 51 53 53 53 52 53 54 54 55 56 54 55 54 53 53 53 53 54 54 56 56 57 57 57
25 28 30 28 26 25 25 24 23 23 24 25 24 22 33 37 41 42 44 49 50 53 52 53 52 52 53 53 54 54 54 54 54 51 50 52 52 52 53 53 55 56 57 57
26 27 28 28 26 25 22 24 25 25 24 21 23 20 24 34 38 41 42 45 48 52 53 52 52 51 52 53 53 53 53 53 54 53 49 50 50 49 51 52 53 55 57 56
25 27 25 26 27 26 24 27 27 26 25 24 24 22 23 31 33 35 39 41 45 51 53 52 51 52 51 53 53 51 51 52 53 52 51 50 49 49 51 51 52 52 56 57
24 28 29 27 27 28 29 28 28 29 26 22 24 24 24 26 29 31 33 39 43 49 52 52 51 51 51 51 51 50 49 49 50 51 53 50 51 52 52 51 51 52 53 56
22 22 24 28 28 29 28 24 22 21 23 22 27 28 27 27 29 30 32 39 42 47 51 52 50 50 51 49 49 48 48 47 48 50 52 52 52 52 51 52 52 51 52 55
21 20 21 24 25 23 26 26 25 20 21 22 32 28 27 31 31 32 33 38 41 46 51 51 51 49 49 47 46 47 46 46 47 49 51 53 52 52 52 51 52 53 52 53
22 21 22 22 24 24 24 25 26 30 33 29 28 30 31 30 27 30 32 40 44 46 50 51 51 49 48 45 45 46 46 46 46 49 51 52 53 52 51 52 51 52 53 53
27 21 22 24 23 24 25 30 28 31 26 25 26 29 28 29 27 25 31 38 43 46 48 50 50 50 48 46 45 46 47 47 48 49 51 52 53 54 54 54 53 52 53 55
25 26 24 24 23 23 26 27 32 32 30 24 24 25 32 32 30 25 29 37 42 45 46 48 49 50 49 49 49 48 48 49 50 50 51 52 52 52 55 55 54 55 56 56
26 28 24 24 27 28 25 26 33 28 30 31 28 28 31 31 31 26 24 32 40 43 45 47 48 48 49 49 49 49 49 50 54 55 55 54 54 53 54 56 56 57 57 57
30 28 23 23 24 27 26 26 26 33 35 31 27 29 30 31 31 31 27 29 35 40 41 43 46 47 48 49 49 49 51 52 53 55 54 55 55 55 55 56 57 57 57 57
40 29 24 21 23 26 26 29 28 29 29 30 30 28 30 31 30 29 29 27 29 35 38 40 41 44 47 48 49 50 51 53 54 55 55 55 55 56 57 57 57 57 58 56
35 27 28 25 24 30 29 28 29 26 26 25 27 30 30 31 31 30 28 28 27 31 36 40 42 46 50 49 51 51 52 53 55 55 55 55 54 53 53 55 56 54 53 52
38 29 31 26 27 27 27 29 30 29 29 28 28 30 32 32 30 31 30 27 27 28 31 39 44 52 52 52 51 52 53 52 53 52 53 51 51 50 49 48 48 47 47 47
38 33 30 27 30 31 28 30 28 30 32 31 27 30 31 31 30 30 29 29 29 28 30 40 45 52 52 52 53 52 52 52 52 51 50 49 49 48 47 47 46 45 46 45
38 36 30 28 30 25 30 33 31 31 32 33 30 27 26 28 30 29 30 29 30 29 31 36 45 52 51 51 51 51 51 51 50 49 49 49 48 46 45 45 44 43 43 42
40 38 33 29 27 28 30 32 32 33 31 33 32 30 26 24 28 27 33 30 32 35 38 46 50 51 51 51 50 50 49 49 49 48 48 47 46 45 44 43 42 42 42 42
39 39 35 32 26 21 28 30 32 34 30 34 31 31 32 30 28 28 30 34 36 40 50 50 49 50 49 49 50 49 48 48 47 47 46 45 45 44 43 42 41 41 42 41
31 31 31 32 31 30 32 34 35 31 30 35 33 31 33 30 32 30 36 42 45 49 50 50 49 48 48 49 49 48 48 47 47 46 45 44 44 43 42 41 41 40 40 37
29 30 26 30 28 27 36 37 31 35 37 38 38 35 36 36 34 35 38 43 47 49 50 49 48 48 48 48 47 46 46 46 45 44 43 42 42 41 40 40 39 36 35 32
28 31 29 31 30 35 40 39 42 42 39 39 41 40 41 40 38 40 41 45 47 49 48 48 48 47 46 46 45 43 42 43 42 41 41 40 40 39 38 37 33 31 31 29
28 36 34 35 35 39 40 42 44 44 42 40 39 40 39 39 39 41 42 45 45 46 46 45 45 44 42 43 43 42 41 41 40 39 35 32 31 29 28 28 30 29 29 29
27 34 35 35 37 39 39 40 39 42 44 40 39 40 41 40 41 43 42 43 44 43 43 44 43 41 40 41 40 40 39 37 31 29 28 27 26 24 22 24 25 25 26 28
34 34 33 27 32 37 34 37 41 42 42 38 40 41 39 40 41 42 41 42 42 42 41 38 34 34 34 35 33 33 32 30 28 26 26 26 23 21 20 20 22 26 26 26

GFSCGP_sfc_dewp_078.txt.gz
Dewpoint
31 28 27 27 29 24 22 22 23 23 24 23 23 24 24 33 45 45 49 51 51 53 54 54 55 55 55 56 57 57 56 57 57 57 56 57 56 57 58 57 56 55 54 54
29 27 28 29 29 27 24 23 22 23 23 23 23 23 24 36 40 45 46 50 51 52 54 54 54 54 54 55 56 56 56 56 56 55 57 57 54 56 57 57 56 55 55 54
24 27 29 28 27 26 26 24 24 22 24 25 24 23 23 31 39 41 43 48 51 52 53 53 53 53 54 54 55 55 55 55 55 55 56 54 55 55 54 55 56 56 56 55
27 25 27 27 26 25 23 26 25 24 24 21 26 20 22 24 33 39 40 44 49 52 53 52 52 51 51 53 53 55 54 54 54 54 54 53 52 52 54 53 54 55 56 56
25 26 25 27 27 27 25 26 25 25 24 24 23 22 23 29 28 31 35 41 46 51 53 53 52 52 52 52 54 53 54 54 54 52 51 51 51 51 52 52 53 54 55 56
25 27 27 25 27 27 30 27 27 28 26 23 24 24 23 24 27 29 33 36 42 49 52 53 52 52 52 52 53 52 53 53 54 53 51 50 50 50 50 51 52 52 53 55
23 23 24 29 25 29 27 25 23 22 24 23 25 25 24 26 27 29 30 31 37 46 52 52 51 51 51 51 51 51 51 52 52 53 52 51 50 51 50 50 50 51 52 52
15 17 22 24 28 27 27 26 24 20 21 22 29 25 26 31 32 32 31 31 39 47 51 51 51 51 51 51 51 51 50 50 50 51 51 52 51 51 51 51 51 51 51 52
21 19 23 23 25 25 25 26 27 28 31 27 27 27 28 28 29 28 29 32 38 46 50 51 51 50 50 50 50 50 50 49 49 49 50 50 53 52 51 52 52 52 52 53
26 21 23 24 24 24 25 29 27 29 26 24 25 27 24 26 25 27 27 34 39 44 49 51 51 50 50 49 49 49 49 48 48 47 49 49 51 52 52 52 52 52 53 53
25 26 24 24 23 21 25 23 29 30 28 22 22 24 31 29 31 32 28 30 37 44 48 50 51 51 49 48 47 48 48 48 47 47 47 50 52 53 54 54 53 53 53 53
28 25 23 23 26 26 23 25 28 26 27 29 26 22 28 31 32 31 27 26 37 43 46 49 51 51 49 48 45 46 47 47 50 51 51 52 52 53 53 54 53 54 54 54
38 30 20 21 22 26 25 26 29 33 33 29 26 25 31 31 31 30 30 28 29 40 43 46 47 49 50 49 48 47 47 48 49 51 52 52 53 52 52 53 53 54 54 55
41 37 26 19 20 23 25 25 26 29 27 28 29 28 28 30 29 30 31 30 29 34 40 43 45 47 48 49 49 49 50 50 50 51 52 52 54 54 54 53 54 54 55 56
40 33 30 28 24 22 27 27 28 26 27 25 26 30 30 30 29 30 31 29 28 30 35 39 42 43 47 48 49 50 51 51 52 53 53 52 53 54 54 54 54 54 54 55
40 34 32 27 27 25 24 26 28 28 29 29 27 27 30 32 32 32 31 29 27 27 32 36 40 42 44 46 48 50 50 51 52 53 53 53 53 54 54 52 52 52 51 50
38 34 32 25 28 28 27 27 26 28 30 30 29 30 31 31 31 31 31 31 30 28 29 33 38 42 47 49 49 50 52 50 52 52 53 53 51 50 49 49 48 47 46 46
35 34 33 27 29 22 28 31 29 29 28 30 31 32 31 31 30 30 32 31 31 30 30 31 35 43 50 50 50 51 53 52 52 51 50 50 49 48 47 47 46 44 44 43
37 36 32 30 29 28 27 32 33 32 30 33 33 33 33 32 26 25 28 31 31 32 32 32 36 48 51 51 51 51 51 51 50 49 49 49 48 47 46 44 43 43 42 42
33 37 34 31 28 25 28 30 34 34 29 34 35 36 33 29 26 27 29 32 34 32 41 47 49 50 50 50 51 50 49 49 48 48 47 47 47 46 44 42 42 43 42 41
34 33 33 31 29 31 34 34 36 28 30 37 38 36 36 31 33 32 33 34 41 45 48 49 49 49 49 50 50 49 49 48 47 46 46 45 44 43 42 42 42 41 37 34
30 29 29 32 30 27 36 37 34 36 38 39 39 39 40 40 41 39 38 39 45 48 49 48 48 48 49 49 49 48 47 46 45 45 43 42 42 42 41 40 38 36 34 31
25 31 28 30 30 35 38 39 42 42 41 39 40 40 40 40 39 39 41 45 47 48 49 48 47 47 48 48 48 45 45 44 43 42 41 40 39 39 38 36 35 33 32 30
24 33 31 31 32 35 38 41 43 44 42 41 40 40 41 39 40 42 43 45 46 46 47 47 47 45 44 44 43 43 42 42 40 38 36 35 34 32 32 32 32 32 31 29
25 30 32 32 33 36 37 40 41 41 44 43 39 39 40 40 40 43 44 44 44 43 43 43 43 42 41 41 41 41 40 38 36 34 33 31 30 28 26 26 27 28 29 30
33 33 31 30 36 38 38 37 38 40 40 42 39 39 39 41 41 42 43 42 41 39 38 36 36 34 31 30 30 33 34 33 31 28 26 26 25 24 23 23 25 29 30 30

GFSCGP_sfc_dewp_081.txt.gz
Dewpoint
34 29 29 29 29 24 24 22 19 21 24 23 21 21 21 26 41 42 46 50 52 54 54 54 54 54 54 56 57 57 56 56 58 57 58 58 57 58 58 58 56 55 54 52
30 29 30 29 30 28 24 22 21 23 24 24 22 22 24 26 32 41 43 48 51 53 54 54 54 55 54 55 57 57 56 56 56 57 58 58 58 58 58 58 57 55 55 54
25 28 30 28 28 28 28 27 25 23 24 24 23 22 24 26 36 40 44 46 50 52 53 54 54 55 54 55 56 57 56 56 56 58 57 57 57 57 57 57 55 56 55 54
26 25 27 28 25 27 24 27 27 26 24 18 24 18 23 24 26 34 40 46 48 51 53 53 53 54 54 54 56 56 56 56 56 57 56 56 54 54 55 55 53 53 56 55
26 27 24 25 26 28 24 27 27 26 24 23 18 19 23 26 26 27 30 41 45 50 53 53 53 53 52 53 55 56 56 56 56 56 56 55 55 54 54 54 55 57 57 56
24 27 27 22 26 28 29 26 26 27 25 21 21 23 23 24 27 28 30 33 43 48 52 53 54 54 52 52 53 54 54 55 55 55 55 55 55 55 54 54 54 56 56 57
20 21 25 27 25 29 27 26 22 24 24 18 25 25 24 27 27 28 29 30 39 47 51 52 53 52 52 52 52 53 53 54 55 54 54 55 54 55 54 55 55 55 56 56
16 14 23 27 25 25 27 26 21 14 20 19 26 24 23 30 31 33 33 33 35 45 50 52 52 53 53 52 51 52 54 54 55 55 54 53 54 53 53 54 54 54 55 55
17 14 20 24 28 26 28 25 26 26 32 28 25 28 28 30 29 29 29 30 34 42 48 50 52 53 53 52 53 53 53 54 54 54 55 54 54 54 53 54 54 55 55 54
26 21 24 23 24 25 27 29 25 26 19 19 23 26 21 25 26 30 33 33 34 40 47 50 51 52 52 52 52 54 53 53 53 54 54 54 54 54 54 55 55 55 56 55
27 25 26 26 23 21 22 25 29 27 27 20 20 23 32 30 30 33 35 33 33 42 47 50 51 52 52 52 51 52 52 52 52 52 53 54 54 54 55 55 55 55 56 55
37 31 22 21 26 24 24 23 25 27 27 29 26 22 29 33 33 34 33 32 30 38 46 49 51 51 51 51 50 50 51 51 53 53 53 53 54 54 54 53 54 56 55 55
33 34 24 20 20 21 23 26 24 25 30 27 29 25 31 32 32 33 32 34 33 35 45 49 51 51 51 51 50 49 50 52 52 52 52 52 52 52 53 52 54 55 55 55
37 34 33 25 25 27 23 25 27 27 27 25 27 26 29 30 31 32 34 34 34 33 41 46 49 51 51 51 50 49 50 51 51 50 51 52 52 52 52 52 54 55 55 55
36 25 29 33 32 33 31 23 23 27 28 26 27 26 28 31 31 32 34 34 32 31 34 41 45 48 51 51 50 49 50 50 51 51 51 51 53 53 52 53 55 56 56 56
34 32 34 32 32 32 30 27 23 26 26 27 28 28 31 31 32 32 33 34 32 32 32 36 40 44 48 50 51 51 51 51 51 50 51 52 52 52 54 54 56 56 56 56
29 34 34 27 32 33 28 27 25 24 27 28 27 29 32 31 33 33 33 34 33 34 33 33 37 41 44 47 50 51 51 52 52 51 51 52 52 52 54 55 54 55 55 52
29 32 34 29 33 26 28 31 29 27 27 31 31 31 31 32 33 34 34 34 34 34 36 34 34 39 45 48 48 51 51 52 52 52 52 53 54 54 51 51 51 48 47 46
32 29 32 29 30 31 31 34 33 30 28 31 31 30 31 32 32 33 32 31 33 35 37 37 36 40 50 51 52 52 52 52 52 52 52 52 52 50 49 48 45 44 44 43
30 30 34 33 27 23 31 34 35 34 30 35 35 36 35 31 33 34 35 39 37 37 36 35 39 48 50 51 52 52 52 51 51 50 50 51 50 49 47 44 43 43 42 39
31 33 30 30 29 31 34 35 38 29 31 37 39 37 36 36 36 40 42 41 41 47 47 49 49 49 50 51 51 51 50 49 49 48 47 46 45 44 43 43 42 38 36 34
31 31 31 31 29 26 37 38 34 38 41 41 40 39 41 42 41 42 42 45 48 49 48 49 49 49 50 50 50 49 47 47 46 45 43 43 42 42 41 39 37 35 33 31
24 32 31 33 32 37 39 40 42 43 43 42 42 42 43 43 43 43 44 47 47 48 47 47 47 48 49 49 48 46 45 44 43 42 40 40 39 39 38 36 35 33 33 31
25 32 33 32 31 35 36 38 40 40 42 43 44 41 42 43 42 42 45 46 46 47 47 45 45 44 43 45 45 44 43 42 41 39 38 37 35 34 33 34 34 33 32 31
27 30 30 32 33 37 35 38 40 40 41 40 41 41 41 41 43 44 44 44 43 43 44 44 43 42 41 42 41 41 41 40 37 36 34 32 31 29 28 29 29 29 30 31
34 32 32 30 38 38 38 38 40 40 41 41 41 40 41 43 43 41 38 37 37 36 36 34 33 32 31 32 33 35 36 34 32 30 29 29 28 27 27 26 26 31 30 30

GFSCGP_sfc_dewp_084.txt.gz
Dewpoint
22 24 21 20 24 22 20 21 20 19 20 21 19 18 15 16 26 32 37 41 45 47 50 53 54 55 55 56 57 57 56 57 59 58 58 58 57 58 58 56 55 54 48 49
22 22 20 21 24 27 25 22 20 19 19 23 20 17 15 16 24 27 31 39 43 47 51 53 54 55 55 55 57 57 56 56 57 58 59 58 58 58 57 56 55 54 54 49
23 19 21 24 27 26 25 23 22 19 20 22 22 20 18 12 23 30 35 36 40 45 50 53 54 55 56 55 56 57 56 56 57 58 58 58 57 58 57 57 55 54 54 51
26 25 23 23 25 23 22 21 22 22 21 17 21 14 14 19 23 26 31 39 40 44 47 52 53 54 56 55 55 57 57 56 56 57 57 56 54 54 55 55 55 55 55 54
24 26 24 25 24 24 22 22 19 22 23 23 21 18 15 14 19 21 24 32 40 43 47 51 53 54 55 54 54 56 57 56 56 57 57 57 55 54 56 54 53 53 56 56
23 26 26 25 22 24 26 26 26 26 24 22 22 17 15 16 23 24 24 26 35 41 46 50 53 54 54 54 54 56 56 56 56 56 57 57 56 55 55 53 52 49 52 53
4 15 20 25 21 23 26 23 21 23 23 20 17 17 18 21 24 25 24 26 33 40 45 49 52 53 54 54 54 54 55 55 56 56 56 56 56 55 55 53 52 50 50 49
7 2 8 13 18 17 24 24 22 17 19 20 20 18 18 24 24 25 27 30 33 39 44 48 51 53 53 54 54 54 54 54 56 56 56 57 56 56 55 54 52 52 53 53
13 10 13 15 15 13 21 23 24 24 23 26 20 23 26 26 26 27 27 27 31 34 42 46 50 53 54 54 54 54 54 55 55 55 56 56 57 56 56 55 55 54 56 53
22 18 16 17 22 19 17 20 23 24 19 18 17 21 20 23 24 24 27 31 33 32 39 45 48 53 53 54 54 55 55 55 55 56 56 55 55 56 55 56 56 56 56 56
30 24 22 25 21 19 21 23 24 23 22 19 18 17 24 25 26 26 30 31 32 36 40 45 47 50 53 54 54 54 54 53 54 54 56 56 56 55 56 56 56 56 58 56
35 33 23 20 23 24 22 22 24 23 18 24 24 21 27 29 30 31 30 32 32 38 42 45 47 49 51 53 53 53 53 52 54 55 55 56 56 56 56 57 57 58 57 57
29 34 26 21 22 21 21 22 23 24 25 25 29 23 24 25 26 28 32 31 32 33 40 45 48 48 50 51 52 52 53 53 53 54 55 56 56 56 57 57 57 57 56 55
32 25 29 27 29 31 29 28 24 24 26 24 23 22 25 26 27 26 30 31 30 33 37 44 47 48 49 50 52 52 52 53 53 53 53 55 56 56 56 56 56 55 54 53
31 24 21 22 24 25 26 28 28 25 23 25 24 22 22 23 26 27 29 31 31 30 32 39 45 48 49 50 51 51 52 53 53 52 52 53 54 54 54 54 55 54 54 53
29 31 30 29 27 26 27 27 28 27 26 22 22 24 26 27 27 28 29 29 31 31 32 33 39 45 49 50 51 51 51 53 53 52 52 52 52 52 53 53 53 53 54 54
29 30 30 24 26 28 26 29 30 26 26 25 25 26 27 27 26 28 28 29 31 33 34 35 35 39 46 50 51 51 51 52 52 52 52 51 52 51 52 52 52 53 55 56
28 28 31 26 30 24 27 36 36 30 26 25 24 25 25 26 27 29 33 33 33 35 33 34 35 37 40 46 50 51 51 51 51 51 51 51 52 52 51 51 51 55 55 55
30 28 29 26 26 27 31 32 37 35 28 26 25 26 27 28 31 32 34 39 40 40 38 37 38 36 40 42 45 49 50 51 51 51 51 51 52 52 53 54 54 52 48 46
26 30 28 27 26 21 27 31 38 35 33 35 35 36 35 34 33 33 41 42 44 44 45 46 47 40 42 48 48 48 49 50 50 52 52 53 54 53 53 49 46 44 43 40
28 28 27 26 28 26 32 35 37 35 37 41 40 38 37 37 40 41 43 45 47 47 48 49 49 47 45 49 50 50 50 51 52 53 52 52 51 48 46 43 42 39 36 35
30 27 28 27 29 25 34 32 33 40 43 41 43 40 42 40 39 40 44 46 47 48 48 48 49 49 50 51 51 51 51 50 49 47 45 44 44 43 41 39 37 35 34 32
21 35 34 31 27 32 33 36 39 39 40 40 42 43 43 41 38 40 45 47 48 48 47 47 48 48 49 50 49 46 45 44 44 43 42 40 40 39 38 36 35 33 33 31
23 29 29 27 30 31 34 37 39 40 40 41 41 39 41 41 41 42 46 46 47 46 45 45 44 43 43 44 44 44 43 42 40 38 37 36 36 35 35 34 34 33 32 30
24 28 24 24 26 33 27 36 38 38 39 39 41 41 42 42 42 44 45 44 43 44 42 41 40 40 39 41 42 41 40 39 36 34 33 32 31 31 30 30 31 30 31 31
27 30 29 29 37 37 36 37 38 37 36 35 37 42 42 44 43 41 39 38 37 36 35 35 35 34 33 33 35 37 37 36 33 31 31 31 29 29 28 27 27 30 30 31

GFSCGP_sfc_dewp_087.txt.gz
Dewpoint
16 4 13 16 17 16 19 18 17 20 21 21 21 21 20 18 16 18 26 29 34 40 43 48 52 53 54 55 56 57 57 58 59 58 57 56 56 56 56 55 56 55 54 52
14 11 14 19 18 18 21 19 20 20 21 21 20 21 21 20 19 16 19 26 32 39 43 48 52 54 55 55 56 56 57 57 58 58 57 56 56 55 55 54 53 51 52 50
21 18 17 18 19 23 20 22 23 21 21 20 21 21 21 22 22 21 17 24 27 35 43 48 52 54 56 55 55 55 56 56 58 59 58 57 56 57 56 55 52 51 50 48
20 19 21 20 19 21 22 23 22 20 20 18 20 17 21 20 17 16 18 27 28 31 42 48 51 53 55 56 55 56 56 56 57 59 57 55 53 52 53 52 50 53 54 52
19 21 21 22 21 19 23 23 22 22 19 20 19 16 19 21 18 17 23 27 30 33 40 46 51 53 54 56 55 56 57 56 56 58 57 57 54 52 52 52 52 53 56 56
23 23 23 20 23 25 26 23 23 23 21 21 21 21 20 20 18 22 23 23 25 31 38 44 50 52 54 55 56 56 56 56 56 57 57 56 55 53 54 52 52 54 54 55
16 14 21 24 23 26 24 23 21 23 23 22 20 19 22 21 21 21 22 23 26 30 37 43 49 51 53 55 54 56 56 55 56 57 57 57 56 54 55 53 53 51 52 53
7 5 2 17 20 20 23 23 22 19 21 22 21 19 18 20 21 21 23 25 28 32 37 42 48 51 52 54 54 54 54 55 56 56 56 57 57 54 54 55 53 51 51 52
13 10 8 2 9 15 18 22 23 21 23 25 23 22 23 23 23 24 24 25 27 29 35 40 46 52 53 54 54 55 54 55 56 56 57 56 57 57 55 55 54 52 50 48
23 20 15 11 14 10 11 7 16 19 19 19 17 17 16 22 24 24 25 27 28 27 31 39 44 51 52 54 55 55 55 54 56 56 57 57 57 57 57 56 55 55 52 52
29 25 20 19 17 16 14 13 17 20 21 17 18 15 23 23 24 25 28 29 31 32 31 37 43 48 52 53 54 54 54 53 55 56 56 57 57 58 58 58 57 57 56 55
33 33 24 19 19 19 18 19 18 19 19 19 20 18 22 26 26 28 28 31 33 36 35 37 43 47 51 52 53 53 53 52 55 57 57 57 57 57 57 58 59 59 57 57
26 30 25 21 20 21 21 22 21 22 23 22 26 21 23 22 29 28 27 29 31 33 39 41 44 45 49 52 53 53 53 53 54 54 57 58 58 57 58 58 59 58 58 57
30 22 22 22 27 27 23 20 22 23 24 22 21 21 21 25 24 25 27 29 30 30 34 39 43 45 47 50 52 52 53 54 54 52 54 56 58 58 58 58 57 57 57 57
26 22 20 18 17 18 23 23 23 23 24 23 22 20 20 21 21 28 27 27 29 29 28 33 41 45 46 48 52 53 54 54 54 52 53 55 57 57 56 58 58 57 57 57
31 27 26 23 21 21 19 21 21 21 23 23 23 22 22 23 25 27 23 25 27 28 29 32 34 41 46 47 49 52 53 54 54 53 54 53 55 54 56 57 57 58 57 56
30 29 28 24 19 25 25 21 21 25 29 27 23 23 24 23 26 28 28 28 27 29 31 33 34 34 40 47 49 50 52 54 54 54 53 53 53 53 55 54 54 55 56 57
30 28 29 26 24 19 18 31 32 33 34 35 30 24 22 23 26 27 27 29 33 34 35 36 34 36 36 39 47 50 50 51 53 53 52 52 52 52 52 52 53 54 56 56
29 28 31 26 23 20 18 24 27 29 30 37 35 22 21 22 25 27 28 35 38 40 42 43 43 43 39 37 39 48 49 50 50 51 52 52 53 52 52 52 54 55 56 51
26 29 29 26 20 20 30 30 36 36 33 41 42 38 33 34 34 37 41 42 43 43 45 46 47 47 43 40 42 43 48 49 49 51 50 51 52 52 53 54 53 50 47 42
27 29 27 26 23 25 32 33 37 31 36 40 42 43 45 37 38 40 41 41 43 46 46 48 48 48 49 45 46 45 46 48 49 51 51 52 52 53 52 47 44 41 38 36
28 28 29 27 22 23 32 33 35 39 43 42 46 46 45 47 38 37 42 43 45 46 47 48 48 49 50 50 49 48 50 51 51 49 47 46 44 43 42 40 38 37 37 33
29 30 31 24 25 38 34 39 38 39 39 39 40 41 41 42 38 38 42 45 47 47 47 47 46 45 45 48 48 46 46 45 44 42 41 39 39 38 38 37 37 34 32 31
23 34 37 35 35 37 34 38 36 36 37 37 38 41 41 41 39 39 44 46 46 45 45 44 43 42 42 43 43 43 41 40 38 36 35 35 34 34 35 35 33 32 31 29
26 29 24 23 35 34 38 36 37 36 37 36 36 40 41 44 44 44 43 42 41 39 39 39 38 36 36 39 40 39 38 36 34 33 32 31 31 31 29 29 30 29 30 29
33 34 31 35 36 36 35 36 36 35 35 34 34 35 37 39 39 38 35 34 34 34 34 33 33 34 33 33 33 36 36 35 33 31 30 30 29 28 27 26 27 30 30 30

GFSCGP_sfc_dewp_090.txt.gz
Dewpoint
13 11 7 9 16 18 20 19 20 21 23 20 21 22 20 21 23 22 26 26 28 32 41 47 51 54 54 57 57 57 56 59 59 57 56 55 55 55 56 56 55 55 55 54
20 11 9 4 11 16 16 17 18 22 24 20 20 21 21 21 22 23 22 21 28 30 37 47 52 54 55 56 57 57 57 58 58 57 56 55 54 54 54 55 55 54 55 54
24 20 12 10 4 10 19 21 20 24 26 23 22 21 21 21 23 24 24 23 20 30 38 46 52 54 56 56 56 57 56 57 58 57 56 56 54 54 52 53 54 54 54 55
24 20 16 17 16 11 16 21 24 26 27 26 23 18 22 21 22 23 25 27 24 26 37 45 51 54 55 56 56 56 56 57 58 57 55 53 51 50 51 51 50 50 52 51
21 18 16 17 16 19 18 23 25 30 29 25 21 20 19 21 19 21 23 25 26 33 34 45 50 54 55 56 56 56 56 56 58 56 55 53 51 51 53 52 51 49 50 50
19 20 20 17 20 20 23 22 25 27 27 25 24 20 19 20 22 23 20 23 29 31 35 44 50 53 54 56 55 56 56 56 57 57 55 53 52 52 53 50 50 50 50 52
12 16 19 23 22 23 22 23 21 23 25 25 22 19 22 23 23 23 23 25 32 32 36 41 50 52 53 56 55 55 55 55 56 57 56 54 52 52 52 50 48 49 50 54
11 10 15 20 21 20 21 25 21 18 26 30 30 24 19 23 23 24 22 28 31 32 39 41 50 52 53 56 55 54 55 55 56 57 57 55 53 53 53 50 50 50 50 52
16 12 10 8 13 20 21 22 23 23 25 26 25 29 28 25 21 24 24 25 30 33 36 38 48 52 53 55 55 55 54 55 56 56 56 57 56 53 52 52 51 52 52 52
23 21 19 9 5 11 17 23 22 23 19 15 16 19 22 26 24 23 25 28 31 31 32 38 44 52 53 55 55 56 54 55 55 56 56 56 56 55 54 54 52 52 51 51
31 25 21 17 9 9 8 9 14 13 15 16 19 22 31 33 31 27 30 32 35 36 35 38 43 52 53 55 55 55 55 54 55 55 56 56 56 56 54 54 55 53 52 51
32 31 27 19 18 16 15 13 12 16 16 22 22 20 23 29 29 31 30 32 36 37 38 38 42 51 52 54 54 54 54 54 55 56 56 56 56 57 56 55 55 55 54 52
26 25 24 20 19 20 20 19 17 18 20 20 23 23 23 30 29 32 31 33 35 37 40 39 42 48 52 53 54 54 54 54 55 56 56 56 57 57 57 57 56 56 54 53
29 23 21 20 26 27 26 26 18 20 22 21 21 20 21 25 29 32 35 34 33 34 37 41 43 45 50 53 53 54 54 54 54 56 56 56 56 57 56 57 57 57 56 55
26 21 21 17 15 15 15 16 23 23 21 21 23 20 21 23 24 26 29 30 31 30 30 37 42 45 47 51 53 54 54 54 54 54 56 56 56 57 56 56 57 57 57 56
29 29 25 22 20 19 17 16 16 20 20 19 19 21 23 23 23 24 27 28 25 29 30 32 36 41 45 48 52 54 54 54 54 53 54 55 57 57 56 56 57 56 57 57
29 29 28 23 22 20 22 22 17 15 19 20 25 30 32 30 25 25 27 30 29 30 34 35 36 38 42 48 51 53 54 55 54 53 53 54 55 56 56 57 57 56 56 56
29 27 29 27 26 18 19 18 28 24 27 29 28 28 30 41 31 25 31 31 31 37 39 41 42 44 43 42 49 51 52 54 54 54 53 54 54 55 55 55 55 56 56 56
29 27 30 25 23 21 20 19 24 27 27 38 40 41 43 43 31 29 38 40 42 43 44 46 46 47 47 46 42 49 50 51 53 53 53 53 54 53 54 54 55 55 55 56
27 28 29 27 21 18 27 37 35 32 29 39 40 41 42 43 37 41 42 43 43 45 45 46 48 48 48 48 44 44 49 50 51 53 53 54 54 54 53 54 54 49 45 40
27 30 28 28 24 23 28 38 41 30 33 40 42 42 45 43 42 47 50 42 44 45 46 48 48 49 49 50 50 48 49 50 50 53 52 51 52 51 49 45 42 41 38 35
28 28 29 28 23 22 38 34 36 38 39 39 40 42 44 46 44 44 45 45 45 46 46 46 47 46 46 48 50 48 47 47 47 45 44 44 44 42 41 39 38 36 35 33
29 29 30 27 26 39 41 39 36 36 36 36 38 38 45 45 44 45 50 48 45 44 43 43 42 42 42 42 44 45 43 42 41 40 40 39 39 38 39 38 37 34 32 30
31 30 34 32 32 37 40 38 36 36 36 35 35 36 39 42 45 44 43 41 39 38 37 37 36 35 35 38 38 38 38 37 36 36 34 34 33 34 34 33 33 32 30 29
34 36 33 33 36 38 39 36 35 34 35 34 34 35 36 38 38 36 35 34 34 34 33 33 34 34 34 34 35 36 35 34 32 31 31 30 30 29 29 30 29 29 30 29
36 34 34 36 34 35 36 34 34 34 34 34 34 34 35 35 34 34 32 31 30 30 31 32 32 32 33 34 34 34 34 33 31 30 29 29 28 27 27 26 27 30 29 30

GFSCGP_sfc_dewp_093.txt.gz
Dewpoint
16 13 12 14 18 21 21 21 21 21 19 20 22 23 24 22 21 21 25 24 24 26 41 47 51 53 57 57 56 56 57 59 58 57 56 56 55 56 56 58 59 60 61 60
14 11 11 12 12 12 14 16 16 16 19 19 20 26 29 28 22 22 23 25 26 27 42 49 51 55 56 56 56 56 57 58 57 57 56 55 55 55 55 56 56 57 58 58
20 23 17 13 10 6 4 10 17 19 23 26 30 28 28 26 23 23 23 24 24 27 42 50 50 54 56 55 55 56 57 58 57 57 55 55 54 54 53 53 54 55 56 56
27 27 25 19 10 10 5 6 10 17 27 26 30 28 30 30 25 23 22 23 24 22 45 50 50 54 55 55 56 56 56 58 57 56 54 53 52 51 52 52 53 54 55 55
22 24 23 22 18 18 15 15 14 28 28 29 29 30 30 26 23 22 22 23 24 24 46 50 51 53 55 56 55 55 56 57 56 55 54 52 51 51 52 52 52 53 54 55
18 19 19 19 21 21 24 24 27 29 30 28 30 29 27 25 24 22 23 23 26 26 46 51 52 53 55 55 55 55 56 57 56 55 53 51 50 50 50 50 51 51 51 51
14 13 14 19 19 24 24 22 22 24 24 23 24 27 29 28 25 22 23 24 25 28 45 51 52 53 54 54 54 55 55 57 56 54 53 51 52 52 50 49 50 49 49 50
12 12 12 14 16 21 23 22 25 20 25 30 28 30 31 33 35 25 24 25 27 32 45 51 52 53 53 54 54 54 54 56 56 55 53 51 52 52 51 49 50 49 48 49
19 16 23 11 12 22 23 21 24 25 25 28 26 25 29 33 30 26 23 23 27 34 44 50 52 53 54 53 54 54 54 55 56 56 54 52 52 52 51 50 49 50 50 50
26 23 26 21 15 20 19 24 23 25 19 16 17 16 27 28 32 32 26 27 29 34 41 50 51 52 54 54 54 54 54 54 55 56 56 53 52 52 52 51 50 50 50 50
35 32 26 25 13 9 14 18 23 19 24 20 19 21 29 31 32 35 36 32 32 33 34 43 50 52 54 54 53 53 53 54 54 55 56 56 54 53 52 52 50 52 52 52
29 32 28 26 27 28 14 11 12 14 14 18 20 17 30 27 35 37 41 42 33 32 34 39 50 52 54 54 54 54 53 54 55 55 55 56 56 55 53 52 52 51 52 52
25 26 25 22 25 31 29 18 15 17 17 15 20 20 21 23 34 39 39 43 39 38 36 41 51 51 53 54 54 54 53 53 53 54 55 55 56 56 54 53 53 52 52 51
30 25 23 21 23 26 22 21 21 28 24 18 15 14 17 22 32 39 40 38 34 36 35 41 50 51 53 54 54 54 54 54 54 55 55 55 55 56 55 54 53 55 54 52
29 23 25 22 21 19 19 17 17 15 30 29 27 24 22 24 28 28 29 26 31 34 32 37 44 50 52 53 54 54 54 54 54 54 54 54 54 54 55 56 55 54 54 54
34 30 30 27 25 24 21 21 19 17 17 19 22 21 31 33 33 38 40 32 26 29 29 35 37 45 52 52 53 53 54 54 54 55 54 54 55 55 56 56 57 56 55 55
31 31 28 26 26 26 23 23 20 20 19 19 21 34 42 41 42 42 43 42 35 36 41 43 44 44 46 49 54 53 54 54 53 53 55 55 55 55 55 56 55 56 57 57
30 30 29 27 26 18 24 23 23 30 36 38 39 40 40 41 42 43 45 39 43 44 45 45 46 46 46 47 48 49 54 54 53 53 53 55 56 56 55 55 55 55 55 56
30 29 26 25 24 25 23 34 36 36 36 39 38 38 40 42 42 43 44 48 46 46 47 48 48 49 49 49 50 49 50 54 53 53 53 53 55 56 56 56 55 56 56 55
28 31 28 26 23 18 31 36 39 37 33 39 40 41 41 40 39 41 45 48 46 46 47 47 47 46 45 45 49 50 49 51 53 53 53 55 55 54 55 55 54 47 47 40
27 28 25 25 26 26 37 38 40 33 33 38 39 41 43 40 44 46 48 47 46 44 43 44 43 42 41 42 46 45 45 44 46 45 54 55 55 55 52 47 44 41 38 35
27 29 26 26 26 21 39 37 36 37 38 37 38 39 44 45 48 49 46 42 41 40 40 39 40 39 39 39 41 40 39 41 42 43 43 44 46 44 43 41 39 38 36 33
28 30 27 28 28 39 40 38 37 37 35 35 36 37 39 41 41 41 40 38 36 35 36 36 36 36 37 37 37 36 35 36 38 38 38 38 40 41 41 38 35 34 33 32
34 37 34 32 37 40 39 38 35 35 36 34 35 36 37 37 35 35 35 34 34 33 33 34 35 35 35 35 35 34 34 32 32 31 32 33 33 32 33 34 35 33 32 30
37 37 37 36 38 36 34 34 34 34 35 34 34 35 34 33 33 32 31 30 30 31 32 32 32 31 31 34 34 34 32 31 29 28 28 29 29 28 28 28 28 28 30 30
35 34 33 31 35 36 32 32 33 32 32 34 33 32 31 31 30 29 27 27 28 28 28 28 29 29 29 30 32 33 33 30 29 28 27 26 26 26 27 26 26 29 29 30

GFSCGP_sfc_dewp_096.txt.gz
Dewpoint
18 13 13 18 25 26 26 24 23 22 22 20 19 18 19 26 30 29 28 23 22 21 37 50 54 56 57 57 56 56 57 58 58 58 57 56 56 57 58 60 62 62 62 61
16 12 13 16 17 16 16 16 18 19 19 17 16 21 26 28 28 29 29 26 25 25 45 51 54 56 56 56 56 56 57 57 57 57 56 56 56 55 56 57 58 62 62 61
14 16 14 13 12 11 10 10 11 12 15 22 27 22 21 24 31 31 31 29 25 26 44 50 54 55 55 55 55 55 56 56 57 56 56 55 54 54 54 55 56 57 61 60
27 23 14 18 11 11 9 10 8 6 9 11 27 18 21 24 26 29 31 29 26 25 44 50 53 55 55 55 55 56 56 56 56 56 55 53 53 52 53 53 54 56 58 59
20 27 28 26 26 16 12 14 12 8 23 28 29 27 21 31 29 29 29 28 26 25 42 49 53 54 55 55 55 56 56 55 56 55 54 53 53 52 53 52 53 54 56 57
18 19 18 20 21 21 23 21 24 28 28 25 29 26 18 27 28 29 28 28 27 25 43 49 52 55 55 55 55 55 56 54 55 54 54 53 52 52 52 51 52 53 55 55
17 17 17 16 16 19 22 20 19 21 23 22 26 27 24 28 30 31 31 30 31 29 40 49 53 54 54 54 54 55 55 53 55 54 53 51 51 51 51 51 51 52 53 54
14 13 13 16 15 17 21 22 22 17 21 22 30 27 31 34 33 33 35 34 33 32 47 50 53 54 54 54 54 55 55 53 54 54 53 51 51 51 51 51 51 51 52 53
16 13 16 13 14 17 19 21 25 23 26 23 25 27 27 31 36 38 38 36 30 29 46 50 52 54 54 54 54 54 55 54 54 54 53 51 52 51 51 51 51 50 50 51
26 22 26 25 14 18 22 24 22 23 19 18 20 18 20 30 37 39 39 39 39 41 49 51 52 53 54 54 54 54 55 55 54 54 53 51 52 51 51 50 50 50 49 50
33 31 26 28 16 13 18 17 25 25 26 20 19 19 36 39 40 40 38 38 39 39 47 51 52 53 54 54 54 54 54 55 54 55 54 52 51 52 52 51 50 50 51 50
31 33 28 26 30 31 25 19 24 25 22 25 24 21 35 39 43 40 38 40 42 41 39 50 52 53 54 53 54 53 53 54 55 55 55 53 52 52 52 51 50 51 51 51
29 27 25 23 30 33 32 30 24 28 20 16 18 19 24 30 35 39 41 42 42 40 36 42 51 53 54 53 53 53 53 53 54 55 56 55 54 53 52 52 52 50 52 51
31 25 22 21 22 27 28 31 23 26 28 25 22 19 24 32 32 39 43 42 40 35 34 47 51 52 54 54 53 53 53 54 54 54 55 55 56 55 53 52 52 52 51 51
31 22 27 27 25 23 21 25 23 21 24 26 30 29 31 36 37 41 42 42 39 36 35 46 51 52 53 54 54 54 53 54 54 54 53 53 55 56 55 54 53 53 52 51
33 28 29 27 26 25 24 24 23 22 20 20 24 26 41 41 41 42 45 45 37 40 44 44 46 52 54 54 54 54 54 54 54 53 52 53 53 55 56 55 54 54 54 53
29 30 27 25 28 26 23 25 23 22 37 34 27 39 39 40 41 43 46 46 44 46 47 47 48 48 49 52 56 55 55 55 54 54 54 54 53 53 54 55 55 54 54 54
28 28 28 26 24 16 24 31 36 37 37 38 37 38 39 40 42 44 47 46 46 47 47 46 46 46 46 48 51 52 55 55 55 54 55 55 54 54 53 53 54 55 55 55
30 29 26 23 22 24 26 34 36 34 35 39 38 40 40 39 42 42 47 46 45 45 45 44 44 43 43 45 46 47 47 52 55 54 54 55 55 54 54 54 55 55 56 56
30 30 26 26 22 19 33 36 37 37 34 36 38 38 40 40 37 40 47 45 43 43 43 42 42 41 40 42 44 43 44 44 45 46 48 54 56 56 55 55 55 55 55 53
28 28 26 25 24 26 37 39 39 26 32 37 37 39 42 40 40 41 41 39 39 39 39 40 40 39 38 38 40 39 39 40 42 42 44 47 49 53 55 55 51 45 42 41
28 27 26 27 24 21 38 37 32 36 39 37 37 39 41 41 42 41 38 37 35 35 36 37 37 36 36 36 37 37 36 37 37 38 37 37 40 44 45 43 41 40 38 34
29 30 28 28 27 39 39 36 37 36 34 35 36 37 38 36 36 37 36 35 33 33 33 34 35 34 34 34 34 34 33 33 33 32 32 33 33 34 38 39 38 35 35 34
37 38 33 34 38 37 36 35 35 35 35 35 34 34 34 34 33 32 32 31 32 30 31 31 31 31 32 33 33 32 32 31 30 29 29 29 29 29 32 32 33 33 32 32
35 35 35 36 36 34 33 33 33 33 34 34 32 32 31 31 30 29 28 28 28 28 28 29 29 30 31 32 33 33 31 30 28 27 27 28 28 27 27 29 30 29 31 31
35 33 30 29 34 36 31 31 32 31 32 31 31 29 29 28 28 27 26 25 25 26 26 27 28 29 29 30 30 31 30 28 27 26 25 26 26 26 26 26 27 30 30 31

GFSCGP_sfc_dewp_099.txt.gz
Dewpoint
18 14 13 18 25 23 25 25 25 23 24 21 21 20 20 19 24 28 28 29 28 27 29 42 52 56 57 58 57 57 57 58 58 57 57 57 58 58 60 62 62 61 62 60
16 13 14 19 22 21 20 20 20 20 22 20 20 17 15 22 27 27 28 30 31 30 41 51 55 56 56 57 56 56 56 57 57 57 56 56 56 56 58 59 60 62 62 60
19 17 16 15 15 14 13 14 13 15 14 14 19 15 20 24 25 28 28 30 30 30 36 51 55 56 56 56 56 56 56 56 56 56 55 55 55 55 55 56 58 59 62 60
24 18 15 14 11 12 9 12 10 10 9 6 21 7 10 20 22 27 29 29 27 30 36 49 54 55 55 55 56 56 56 55 55 56 54 54 53 53 53 54 55 57 59 61
24 26 23 15 16 13 13 17 14 13 9 11 16 25 18 27 25 23 24 29 30 31 31 48 53 54 55 55 55 56 55 55 56 55 53 53 53 53 53 53 54 56 57 60
19 20 18 25 24 26 24 19 20 20 17 20 18 26 17 18 25 28 29 31 36 31 30 46 51 54 54 54 55 55 55 55 55 54 53 52 53 52 52 52 53 54 55 57
13 13 17 18 16 19 20 19 20 21 24 19 27 27 21 25 28 30 35 40 39 36 32 45 52 54 54 53 54 54 54 54 54 54 53 52 52 53 52 52 53 54 54 54
14 12 15 17 15 15 18 20 20 15 18 17 26 25 24 33 36 39 40 40 39 39 38 43 51 54 53 53 53 54 54 54 53 53 53 52 52 52 52 52 52 53 54 54
15 14 16 14 15 15 17 20 21 20 24 23 25 27 25 33 40 40 41 40 40 39 41 44 51 53 53 53 54 54 54 53 53 53 52 51 51 51 52 52 52 52 54 54
20 19 24 25 15 16 16 20 20 23 18 17 18 20 21 35 40 40 40 41 41 40 41 47 52 53 54 54 54 54 54 53 53 53 52 51 51 51 51 52 51 51 52 53
27 27 22 27 18 13 18 20 23 22 24 18 17 18 37 37 38 41 43 43 42 42 40 51 52 53 54 54 54 54 54 53 53 53 52 51 51 51 51 51 51 50 51 51
32 32 23 20 33 34 19 21 25 22 20 24 23 21 34 33 40 42 43 45 42 43 40 42 52 53 54 54 54 54 54 53 53 53 53 51 52 51 51 50 51 51 50 51
34 30 24 23 30 30 32 31 25 28 23 21 20 23 30 31 36 41 44 45 43 44 42 42 52 53 53 54 54 53 54 54 53 52 53 52 51 52 51 51 50 51 50 50
38 32 28 21 22 27 26 29 30 26 26 24 24 25 30 36 36 41 44 44 46 42 45 47 48 52 53 54 54 53 53 54 54 53 53 52 51 51 52 52 51 51 51 51
37 29 31 29 26 24 24 24 28 22 24 23 27 26 34 39 40 41 42 45 45 42 47 47 51 53 53 53 54 54 54 54 55 54 53 53 53 52 52 52 52 51 51 51
36 31 30 27 26 25 24 24 23 24 23 24 26 26 40 41 42 44 46 45 44 48 46 45 47 48 53 54 54 54 54 55 54 54 54 54 55 54 53 52 52 52 51 51
30 30 26 23 27 24 22 25 24 35 36 36 31 37 40 40 43 45 46 46 46 45 45 44 45 45 46 49 51 54 55 56 55 55 54 54 54 54 55 55 53 52 52 52
28 28 27 24 24 13 26 37 34 36 36 37 38 38 40 39 44 46 45 45 44 43 43 43 43 43 44 46 47 48 53 55 55 54 54 54 53 53 54 55 55 54 53 53
33 29 25 20 22 21 31 33 34 35 35 36 37 38 40 41 42 40 41 42 42 42 43 42 42 41 40 42 43 44 45 49 53 51 54 55 55 54 54 54 55 55 54 54
31 29 25 24 21 15 30 36 38 38 33 36 37 39 39 38 36 38 40 39 38 38 38 39 38 37 37 38 41 41 42 42 43 43 44 46 51 55 54 54 54 54 55 54
27 27 24 24 21 24 34 38 39 27 29 37 37 39 42 39 39 40 40 38 36 35 35 37 36 36 35 36 37 36 37 37 39 39 39 40 41 45 48 54 55 55 54 44
28 27 25 26 22 20 37 36 28 34 38 36 37 39 38 39 39 38 37 36 34 33 33 33 34 34 34 34 34 33 32 33 34 34 35 34 35 37 40 40 41 40 39 36
30 32 27 27 27 37 36 35 36 36 34 35 35 36 36 34 34 34 33 33 32 31 31 31 32 32 33 33 32 31 30 30 31 30 30 31 32 33 33 35 34 34 33 32
34 38 35 33 37 35 36 35 33 35 34 33 32 32 32 32 31 30 29 29 29 29 29 30 30 30 31 32 32 30 30 29 28 28 28 28 29 29 31 32 33 32 31 29
34 36 33 34 34 36 32 32 32 34 33 31 30 29 29 29 28 27 26 26 26 27 27 28 29 29 30 30 30 29 29 28 26 26 27 27 27 28 28 29 30 30 31 31
34 31 30 26 33 34 33 30 32 29 28 28 29 28 27 26 26 25 24 24 24 25 26 26 27 28 29 29 28 28 27 26 26 26 25 26 26 27 27 27 27 31 31 32

GFSCGP_sfc_dewp_102.txt.gz
Dewpoint
19 15 13 19 25 24 23 23 24 24 25 23 23 22 22 22 21 19 25 27 27 29 30 35 43 36 54 56 57 58 58 57 57 58 58 58 59 59 60 61 62 62 62 60
16 15 14 16 23 24 23 23 23 22 22 23 22 21 20 17 17 20 21 26 29 30 30 35 52 53 55 56 57 58 57 57 58 58 59 57 57 57 59 61 62 62 62 60
17 18 17 16 19 20 19 20 17 19 14 11 13 9 9 16 22 26 28 29 30 30 30 31 50 54 54 55 56 57 57 57 57 57 57 55 55 55 56 57 59 61 61 60
21 22 16 14 14 16 15 15 15 13 8 4 15 5 9 13 16 22 25 28 27 28 35 31 43 53 54 55 56 56 56 57 57 56 55 54 53 52 54 55 57 58 60 60
24 26 21 18 13 14 12 15 13 12 10 8 19 12 15 18 18 20 22 25 31 39 38 34 37 52 54 55 55 56 56 56 56 55 55 54 53 53 54 54 55 56 57 60
19 20 23 23 20 15 19 18 18 19 15 15 14 12 15 16 20 27 29 35 41 40 40 40 38 52 54 55 55 55 55 55 55 54 54 53 52 53 53 53 54 55 56 58
12 10 18 19 16 20 18 19 18 20 21 16 19 19 16 22 28 35 38 40 41 41 41 41 41 52 54 54 54 54 54 54 54 54 54 52 51 52 52 52 53 54 55 56
13 10 12 16 16 15 18 18 19 15 17 17 26 23 24 33 40 41 41 40 41 40 41 42 42 47 54 54 54 55 54 54 54 54 53 52 52 52 52 53 53 54 54 55
15 13 16 16 16 15 18 18 20 18 21 21 20 25 25 36 39 40 41 41 40 40 41 42 42 47 53 54 54 54 53 54 54 53 52 52 52 52 52 52 53 54 54 55
21 15 21 26 15 16 15 20 19 23 18 15 18 21 21 30 34 40 41 41 43 42 42 43 42 51 53 54 54 54 53 53 53 53 52 52 52 52 52 52 52 53 54 55
32 25 21 20 19 15 17 17 21 21 22 16 14 17 28 33 36 40 42 43 44 43 42 42 45 52 53 53 53 54 53 53 53 53 52 51 51 51 52 51 52 52 54 54
34 31 25 20 26 33 20 22 20 19 19 24 20 18 36 34 39 42 44 43 44 45 44 44 47 51 53 53 53 53 53 53 54 53 52 51 51 51 51 51 51 51 51 53
34 30 25 23 27 28 29 30 27 27 24 21 21 20 29 35 36 42 43 43 45 45 46 47 48 52 53 53 53 52 53 53 54 53 52 51 51 51 51 50 51 51 50 51
36 31 27 23 25 26 26 28 30 26 23 21 21 25 30 38 39 41 42 44 47 47 47 46 48 53 53 53 52 53 53 54 54 52 52 51 51 51 51 50 50 50 50 51
36 28 30 31 33 30 27 28 27 25 23 22 23 25 36 39 41 43 46 43 46 46 46 44 46 47 53 53 53 54 55 55 54 53 52 52 51 52 51 51 50 50 50 50
36 30 32 28 30 27 25 29 29 28 28 27 25 26 39 40 43 44 45 45 45 45 44 44 44 45 46 48 54 54 54 55 55 53 54 53 53 52 51 51 51 50 51 51
32 30 27 22 28 25 22 23 27 34 36 35 28 36 39 39 43 43 42 43 43 43 43 42 42 42 43 45 46 52 55 55 55 55 55 54 54 53 52 52 52 52 51 51
31 28 27 25 24 13 30 36 35 35 36 37 36 36 38 40 41 40 40 41 41 41 40 40 39 38 39 41 43 47 53 55 55 54 55 55 54 54 55 53 52 52 52 52
34 28 25 23 22 21 31 34 35 34 35 37 37 39 38 39 41 39 39 39 38 37 38 38 37 37 36 38 40 41 43 46 46 47 49 50 53 54 54 54 54 54 53 53
32 30 26 25 21 15 26 37 38 38 31 37 36 39 38 36 34 37 39 37 36 35 36 36 35 35 34 36 36 36 37 37 39 40 41 43 44 48 51 53 54 55 54 53
28 28 25 24 23 24 32 37 38 25 26 36 38 40 40 38 39 39 37 35 34 34 34 34 34 34 33 33 34 33 33 33 34 35 35 35 36 39 41 44 51 53 54 48
27 25 25 25 23 19 35 36 28 32 36 36 36 36 36 36 36 35 33 33 32 32 32 33 32 32 32 32 32 30 30 31 31 31 31 31 33 34 35 36 37 37 38 34
29 32 29 27 25 34 34 34 35 35 33 33 32 33 34 33 32 32 30 30 31 31 31 32 31 31 31 30 30 29 28 29 29 29 29 30 30 31 32 33 33 34 33 32
35 35 32 33 35 34 35 34 33 32 30 30 30 30 31 30 29 28 28 27 29 30 29 28 29 30 29 29 28 28 28 27 28 28 28 29 29 29 30 30 31 31 30 29
33 34 32 32 34 34 33 35 34 30 30 29 28 27 27 28 27 26 25 25 26 27 28 28 28 28 28 28 27 26 26 27 26 27 27 28 28 28 27 29 30 29 30 30
33 29 28 27 32 33 32 34 28 27 26 25 25 25 23 24 23 24 23 24 24 25 25 25 26 27 28 27 26 25 24 25 25 25 25 26 26 26 25 24 25 30 30 30

GFSCGP_sfc_dewp_105.txt.gz
Dewpoint
21 19 18 19 21 18 22 20 20 25 26 25 26 25 25 25 26 26 25 24 23 27 30 33 37 42 46 48 55 58 60 61 61 60 59 60 60 61 61 62 62 62 62 62
18 21 21 17 23 21 21 20 21 24 24 24 23 21 19 18 18 17 18 18 21 29 32 36 38 45 52 51 57 58 59 60 61 60 61 61 60 60 60 62 61 61 62 62
20 14 18 15 17 20 21 21 21 21 19 14 14 8 5 11 14 16 20 24 29 31 35 41 41 41 50 55 57 57 58 58 60 60 60 59 58 58 59 59 60 61 62 61
18 18 17 17 14 16 14 20 21 20 17 12 12 1 10 13 15 20 22 26 30 40 41 42 42 43 45 52 57 57 57 58 59 59 58 57 56 55 56 57 59 61 62 60
24 26 21 17 14 18 14 19 19 18 14 9 10 11 14 17 16 19 24 35 42 42 42 42 43 44 46 51 56 57 57 57 58 58 58 57 56 55 56 56 57 60 61 61
23 20 24 23 19 17 16 16 17 18 15 15 15 14 13 15 18 26 37 40 41 42 42 43 44 45 46 54 56 56 56 56 57 57 57 56 55 55 54 54 54 57 57 59
12 15 18 19 18 17 21 21 18 20 17 15 17 14 15 22 30 38 39 39 41 41 42 43 43 44 45 49 56 56 55 55 56 56 56 55 56 55 54 54 54 56 56 57
5 2 9 16 19 18 19 21 16 11 17 16 21 16 18 29 39 39 39 39 41 42 43 43 43 44 45 49 54 55 54 54 55 55 54 54 56 55 55 55 54 55 55 57
14 11 12 15 14 18 19 17 22 19 21 19 18 23 26 39 39 39 38 40 41 42 42 43 44 45 46 49 54 55 54 54 54 55 55 54 55 55 54 54 54 54 56 56
25 17 21 21 15 17 19 22 18 21 14 12 15 18 18 30 31 37 36 40 40 42 41 43 44 45 48 49 54 55 55 54 54 54 55 54 55 55 55 55 53 54 56 56
32 25 21 22 19 15 15 14 20 21 21 11 12 13 24 31 33 35 39 42 42 44 44 44 45 46 49 51 54 54 54 54 54 54 55 54 54 55 55 55 54 55 56 55
35 31 24 20 23 31 21 19 17 15 17 21 17 14 34 35 35 40 41 43 44 45 44 46 46 47 50 51 54 54 54 54 54 54 54 53 53 54 54 54 55 56 55 55
33 30 24 23 29 27 28 28 23 25 23 17 18 17 34 39 40 41 42 43 45 44 44 47 46 45 49 53 53 53 54 54 54 54 53 52 52 53 54 54 54 54 55 55
35 30 27 19 24 29 25 26 28 26 22 19 20 21 31 37 40 43 44 44 46 46 45 46 45 44 47 54 53 53 54 54 54 53 52 51 52 53 53 53 54 53 54 55
35 29 29 29 30 31 28 26 26 24 23 21 23 24 26 37 41 44 44 45 45 44 44 44 43 43 43 47 52 53 54 55 55 53 52 51 52 52 53 53 53 53 53 53
36 29 30 28 30 28 23 24 28 28 27 28 27 26 39 41 43 41 42 42 42 42 41 41 41 40 40 41 45 54 54 55 55 53 53 52 52 52 53 53 53 53 52 52
34 31 27 20 27 24 17 23 26 29 35 34 27 34 38 39 41 40 40 40 39 39 39 39 38 38 38 39 43 47 53 56 55 55 54 53 52 52 53 53 52 52 52 52
32 30 28 23 24 14 31 37 33 32 34 36 34 37 37 40 40 39 38 38 37 36 37 37 37 36 37 38 39 42 52 55 55 55 55 54 54 53 52 52 52 52 52 52
33 30 26 22 21 21 28 35 35 34 33 37 38 39 37 38 40 38 37 36 35 35 35 36 36 36 35 36 37 38 39 41 41 42 43 45 47 52 54 53 53 53 53 53
34 33 27 25 18 16 28 37 37 38 29 36 37 39 38 35 35 36 35 34 33 34 35 35 34 34 33 35 35 35 34 35 35 37 37 38 39 42 43 44 52 54 54 53
27 30 27 23 20 21 33 35 38 27 29 38 37 38 38 36 36 35 34 32 33 34 32 33 33 32 31 32 31 31 31 31 32 33 33 34 35 36 37 40 40 42 51 39
27 26 25 25 21 16 34 35 30 35 36 35 35 35 35 35 34 32 31 30 31 31 32 32 31 30 29 29 29 28 28 30 30 31 31 31 32 33 34 35 36 36 36 34
28 32 30 27 28 34 35 34 33 35 33 32 33 33 32 31 30 29 29 28 29 30 30 32 31 29 29 28 27 27 28 29 29 30 30 30 30 31 31 32 32 33 32 31
34 36 32 33 34 34 33 32 31 30 30 29 29 29 30 28 28 26 26 26 27 28 28 29 29 28 27 27 26 26 28 28 28 28 28 28 28 29 30 30 30 30 31 31
33 34 30 32 33 34 33 34 33 31 29 27 26 25 25 26 25 24 24 24 24 26 27 28 27 27 26 26 25 25 26 27 26 27 26 26 26 27 27 28 29 29 30 30
31 28 27 26 31 32 31 32 31 28 25 24 24 23 22 23 23 23 23 23 23 23 24 24 24 24 25 25 24 24 24 25 26 26 25 26 25 25 25 25 26 29 29 29

GFSCGP_sfc_dewp_108.txt.gz
Dewpoint
12 11 12 12 19 18 16 14 13 14 21 23 23 22 22 24 27 28 28 28 28 28 27 25 35 41 43 45 46 46 52 59 60 63 62 61 62 62 62 64 63 63 63 64
10 12 10 12 14 19 19 20 15 12 22 24 20 19 20 21 22 23 21 19 19 20 17 30 39 44 46 49 50 51 54 58 60 61 61 61 62 62 62 63 64 63 63 63
12 7 10 13 15 17 21 21 19 12 14 19 18 14 13 13 11 11 12 15 16 21 28 36 41 44 48 48 51 51 54 57 60 61 61 61 62 62 62 62 62 62 62 62
12 15 12 16 16 17 15 16 14 17 23 12 10 3 7 9 12 14 17 22 25 34 39 40 42 44 46 49 51 53 54 56 58 60 60 60 59 58 59 60 61 62 62 62
18 14 18 17 15 15 14 13 15 17 16 13 6 4 3 14 11 15 20 27 37 40 42 42 43 44 45 48 54 55 55 56 58 59 60 60 59 58 59 59 59 60 62 62
19 25 17 15 19 17 18 17 16 15 13 9 8 3 4 10 14 19 30 37 39 41 41 41 42 43 44 48 52 56 56 56 58 59 60 60 60 58 57 57 58 58 60 61
15 20 22 26 21 22 15 17 18 18 16 11 14 11 10 17 22 25 32 35 37 39 39 40 40 42 44 47 50 54 55 55 57 59 59 60 60 59 58 57 57 56 57 59
11 12 17 21 22 19 17 18 12 11 14 13 18 14 13 18 28 35 33 34 36 37 39 39 40 42 44 46 49 52 54 54 56 57 58 58 59 58 57 56 55 55 56 58
9 6 12 14 18 18 19 19 18 19 19 18 15 19 27 32 33 35 33 33 34 37 38 40 42 45 46 48 51 53 54 54 55 57 57 57 58 58 56 57 56 56 57 57
24 14 10 12 12 13 15 17 18 18 9 6 4 11 12 29 30 33 32 32 36 39 42 43 43 46 46 47 51 53 55 54 55 56 56 56 58 57 57 56 55 56 57 57
32 23 22 20 16 11 12 17 18 16 15 7 7 12 22 23 28 30 31 35 39 43 43 43 44 45 44 47 48 53 54 54 55 55 55 57 57 57 56 56 55 56 57 56
34 32 21 19 28 19 10 11 16 15 13 16 13 11 29 32 32 34 36 40 42 44 42 42 43 44 43 44 43 51 54 54 55 55 56 56 56 56 55 55 55 56 56 56
35 30 18 19 26 27 24 22 16 19 21 18 19 20 33 35 35 39 40 41 42 44 44 43 43 42 42 42 42 53 55 55 55 55 55 56 55 55 54 55 55 55 56 55
37 30 27 19 22 25 25 25 24 23 20 17 16 17 27 30 34 38 41 44 43 43 43 43 43 43 41 41 41 45 55 55 55 54 54 54 55 54 55 55 55 55 55 55
36 28 29 26 27 28 26 24 23 21 22 21 17 19 25 34 37 40 41 40 41 40 40 40 40 41 40 39 39 41 55 55 54 54 54 54 54 53 54 54 54 54 54 55
37 29 29 25 25 27 25 23 23 22 23 23 23 23 35 39 39 39 39 39 39 38 38 38 38 38 38 37 38 40 53 55 54 54 53 53 53 52 53 54 54 54 54 53
33 31 26 20 23 23 21 22 22 24 28 29 25 32 35 36 38 38 38 37 36 36 36 36 36 37 37 37 38 39 45 55 54 54 54 53 53 52 53 53 53 53 53 54
32 29 27 22 21 17 29 33 30 25 30 31 32 36 35 39 38 36 36 35 35 34 34 35 35 36 35 36 37 39 45 53 52 51 52 53 53 53 53 52 52 53 53 53
30 29 26 23 19 17 20 36 32 29 33 37 38 38 36 39 38 36 34 34 33 33 33 35 34 34 35 35 35 36 35 39 40 40 41 42 46 49 53 53 53 54 53 53
30 31 28 23 17 12 33 37 36 37 31 37 38 37 37 37 37 34 34 33 32 32 32 34 33 33 33 34 34 34 33 33 35 36 37 38 40 41 42 43 46 52 54 54
28 32 28 23 20 18 31 34 38 30 32 37 37 37 37 35 35 34 33 30 30 32 33 33 32 31 31 33 33 33 33 32 33 34 34 35 35 37 37 39 39 42 44 37
25 26 26 25 21 17 34 34 33 36 36 35 35 35 35 34 33 31 30 28 29 30 30 32 31 30 31 30 31 30 30 32 33 32 31 32 33 33 34 35 35 36 35 33
29 31 30 31 31 35 34 33 34 35 34 33 33 32 32 31 29 29 28 27 29 30 30 31 30 30 29 28 29 28 29 30 30 29 29 30 31 31 31 33 33 33 33 31
32 35 32 33 33 33 34 35 33 31 31 30 30 30 30 29 27 26 25 25 27 29 28 29 28 27 27 28 26 28 29 29 28 28 28 28 28 29 30 30 30 31 31 30
32 33 32 32 33 33 31 33 34 31 30 28 27 27 27 27 25 25 24 24 24 26 28 28 27 26 26 26 27 26 27 29 28 27 27 28 27 27 27 28 28 28 30 30
31 30 29 30 32 31 31 32 31 29 26 25 25 24 25 25 24 24 23 23 23 23 24 25 26 24 24 24 24 25 26 28 29 28 26 27 26 27 26 26 26 29 29 29

GFSCGP_sfc_dewp_111.txt.gz
Dewpoint
18 8 8 10 17 19 20 20 19 20 20 24 25 23 22 23 25 27 28 29 29 30 30 31 33 35 36 41 41 41 44 53 60 60 61 63 63 63 63 62 63 63 63 64
13 7 7 10 11 17 20 20 22 21 20 20 20 21 21 22 23 24 26 28 28 28 28 30 29 34 42 44 45 47 47 48 52 57 59 64 62 62 63 63 63 63 64 63
11 6 5 9 10 11 17 19 21 17 18 20 18 18 17 16 17 19 23 24 22 21 20 23 29 40 44 46 47 47 48 49 53 57 61 63 63 62 62 63 63 63 63 62
9 4 4 7 8 11 13 18 19 19 20 20 23 17 16 16 11 14 16 17 16 17 20 25 35 39 43 46 48 51 50 50 52 58 60 61 60 59 60 61 61 62 63 62
13 9 9 10 9 14 14 20 22 21 19 18 15 16 16 12 8 11 15 17 22 28 34 35 37 38 39 42 47 52 54 53 53 55 60 61 60 60 60 60 61 61 62 62
15 14 15 13 11 15 18 17 17 17 17 14 15 11 9 8 12 10 13 22 32 35 36 35 37 38 38 42 48 51 53 54 54 56 59 61 60 60 58 59 59 59 62 62
23 27 14 16 18 19 19 21 18 17 16 15 13 10 10 10 14 17 24 30 34 35 35 36 35 36 38 42 46 48 48 52 55 57 57 61 61 62 60 60 59 59 59 61
11 16 22 23 16 18 19 18 23 17 17 14 12 12 10 11 17 24 28 31 32 34 36 35 36 40 42 43 46 48 49 49 54 56 57 60 61 60 60 59 58 58 58 59
11 11 15 22 19 18 18 14 17 19 22 22 18 15 22 17 21 29 28 27 29 31 33 38 40 43 45 45 46 48 49 50 52 55 58 59 60 60 59 60 59 57 57 56
25 12 10 12 19 17 17 16 16 17 11 10 8 13 16 21 25 28 27 28 30 33 37 40 41 43 44 45 46 48 51 51 51 55 57 58 59 60 60 60 58 57 56 58
31 26 12 11 11 10 11 15 16 13 12 9 10 12 24 24 26 28 28 29 31 35 39 39 40 42 43 44 44 46 49 52 52 56 57 58 58 59 59 58 58 57 57 57
35 33 19 17 16 13 6 13 15 12 11 12 15 24 24 27 27 28 29 32 36 40 44 43 42 43 43 43 43 44 45 53 56 56 57 57 57 58 58 58 56 57 57 56
36 29 27 28 23 15 9 9 15 18 17 17 17 12 26 29 31 33 36 43 44 44 42 42 42 42 42 42 42 42 43 45 56 56 56 56 56 58 57 56 56 56 57 55
38 32 30 27 30 23 22 14 10 15 17 14 15 30 33 29 28 39 41 41 41 41 41 40 41 41 42 42 41 40 42 43 56 56 56 56 57 57 56 55 56 56 56 55
34 29 27 27 27 26 27 26 20 17 19 19 21 24 31 37 39 39 39 38 38 38 38 38 39 39 40 40 40 39 41 42 55 55 55 55 56 56 56 55 55 56 55 55
31 30 27 22 20 22 21 19 19 17 15 16 16 15 35 38 38 37 37 37 37 37 36 36 37 37 37 38 37 38 39 40 46 55 54 55 55 56 55 55 55 55 56 55
30 30 27 19 19 19 19 20 19 18 19 21 21 31 34 37 36 36 36 35 35 34 35 35 35 35 36 37 36 37 37 38 46 54 54 54 54 54 55 54 54 54 54 55
30 29 26 24 20 17 24 28 24 20 29 31 29 33 34 37 36 34 34 34 33 33 33 34 34 33 35 35 36 37 36 38 49 50 52 54 54 53 53 53 54 54 54 54
28 31 27 23 20 19 19 35 37 33 35 37 36 36 38 36 35 34 33 33 33 32 33 33 33 33 34 34 35 35 34 34 37 39 41 43 47 51 53 53 53 54 54 54
26 29 27 26 18 17 32 31 35 36 34 38 37 36 35 37 36 34 33 32 31 32 32 32 32 31 33 33 34 33 33 33 33 35 36 37 40 42 43 44 47 50 54 51
29 30 28 24 21 25 30 32 35 31 31 37 36 36 35 34 34 33 32 30 30 30 31 33 33 33 32 33 33 32 32 31 32 34 34 35 35 37 38 39 40 42 39 36
26 26 29 27 24 22 33 33 32 35 37 35 35 34 33 33 33 31 29 29 30 29 30 31 31 31 33 32 32 32 31 32 33 33 32 32 33 33 35 35 35 35 35 33
28 30 29 33 31 34 34 34 33 34 33 32 32 32 32 31 30 29 29 28 29 30 30 30 29 29 30 32 32 32 32 32 32 31 31 31 32 31 32 32 33 32 32 31
32 32 31 30 31 32 34 34 33 31 30 29 30 30 30 30 29 27 27 26 28 29 29 29 28 27 27 29 30 30 30 29 29 28 29 28 28 28 29 29 29 30 30 29
32 32 33 33 33 32 32 34 35 32 30 28 28 28 28 28 27 27 26 25 25 26 28 28 28 27 26 28 27 27 29 29 27 27 27 27 27 27 26 28 28 27 29 29
30 31 31 30 32 34 32 34 34 31 28 26 26 26 26 26 25 26 25 25 24 25 25 25 26 26 27 27 27 26 28 29 28 27 26 27 26 26 26 25 25 29 29 30

GFSCGP_sfc_dewp_114.txt.gz
Dewpoint
31 17 12 12 21 21 19 18 19 21 21 22 22 21 19 21 23 25 27 28 30 32 32 35 39 42 46 46 46 48 52 63 65 65 66 65 65 64 64 64 65 64 64 66
32 27 13 13 11 15 16 16 18 21 22 26 27 28 24 23 25 25 26 28 29 31 31 34 37 44 44 44 50 51 51 52 58 62 62 64 64 64 63 64 64 64 65 65
30 26 13 12 6 8 12 14 19 19 26 31 28 27 20 23 24 25 26 28 29 30 31 32 34 44 49 49 52 50 50 51 54 54 60 63 65 64 62 62 62 64 64 64
33 33 14 11 7 3 10 12 16 19 24 28 26 17 18 19 21 20 20 23 28 30 28 27 34 43 47 50 52 51 53 53 53 57 57 63 62 61 61 62 62 63 64 63
32 32 17 9 5 3 8 13 16 19 22 26 23 19 19 21 22 24 21 21 24 27 25 29 38 41 44 48 52 53 55 55 55 56 59 63 61 61 61 61 61 62 62 62
32 30 27 10 4 3 10 16 20 21 22 20 21 19 18 19 23 24 19 17 25 33 37 37 40 41 43 48 51 53 53 51 56 57 59 62 61 60 60 61 60 61 62 62
21 26 27 20 10 8 16 18 18 20 19 19 20 18 19 17 18 20 19 19 35 37 38 37 37 38 44 47 50 50 50 49 52 58 58 61 62 61 60 60 61 60 61 61
10 26 29 25 15 10 18 18 20 13 16 16 16 16 16 18 16 17 26 34 35 36 39 39 40 44 45 47 47 48 47 48 50 52 57 59 62 61 60 61 60 60 60 60
26 19 29 27 18 18 18 19 23 21 26 24 16 16 18 16 21 26 30 33 33 34 37 39 42 45 45 45 47 48 47 48 50 52 53 59 60 61 60 61 61 60 59 59
31 29 26 28 20 18 19 22 21 21 17 18 28 16 21 18 26 30 32 30 31 33 38 40 41 44 44 45 47 47 46 46 49 51 53 58 58 59 60 61 60 59 59 59
32 30 26 19 28 22 21 17 19 19 18 13 17 25 30 25 30 37 29 32 40 42 43 43 43 43 44 45 44 44 44 44 46 48 54 57 57 59 60 60 60 59 59 59
33 33 27 18 11 12 15 16 18 19 16 15 18 21 34 33 29 30 43 42 44 43 42 42 42 42 42 43 43 42 42 43 44 46 55 57 59 58 59 60 59 59 57 58
33 32 27 25 24 11 8 7 11 18 19 18 21 16 37 36 38 41 41 41 40 40 39 39 40 40 40 41 42 41 41 42 43 45 53 57 57 58 58 59 57 57 57 57
36 31 31 28 32 32 21 5 5 11 18 16 22 25 31 38 40 39 39 39 38 39 38 38 39 39 39 40 40 40 40 41 41 43 52 56 56 57 57 57 57 57 57 55
31 29 30 27 25 32 35 31 21 8 15 16 29 29 36 40 40 38 37 37 37 37 36 36 37 37 37 37 38 37 38 39 40 41 48 55 56 57 57 56 56 56 57 55
29 29 29 23 17 25 30 32 31 31 28 25 24 26 41 40 37 36 36 35 35 35 35 35 35 34 34 35 35 36 36 37 39 42 47 56 56 56 57 56 56 56 56 55
28 30 27 19 19 17 16 19 19 17 18 21 25 36 40 35 35 35 34 34 34 33 33 33 34 33 34 34 35 35 36 37 37 43 53 55 55 56 56 56 55 55 55 55
28 27 26 25 24 14 30 33 34 29 34 34 34 36 35 34 34 33 33 33 32 32 32 32 33 32 33 33 34 35 35 35 35 36 41 50 55 55 56 55 55 55 55 55
27 28 27 24 22 19 30 31 33 34 36 37 35 36 35 34 35 34 32 33 32 32 32 32 32 32 33 33 34 34 33 34 34 33 35 38 43 54 55 54 54 55 54 55
27 29 26 25 20 18 29 30 32 34 31 34 38 35 35 36 36 32 32 31 30 30 31 32 32 32 32 32 34 33 32 32 32 32 33 35 37 42 46 49 51 50 50 43
27 28 26 24 21 29 32 32 32 28 30 37 37 35 34 32 32 32 31 30 30 30 29 30 30 30 31 33 33 32 32 31 32 32 33 34 34 36 37 39 41 41 38 35
27 27 26 28 23 24 34 31 31 35 37 38 35 33 32 31 32 31 30 29 30 29 29 29 28 29 30 31 31 32 31 32 32 32 31 32 32 33 34 34 35 35 34 32
28 29 28 32 29 34 34 35 36 35 32 31 31 31 31 30 29 30 28 29 29 30 29 29 29 28 29 29 30 30 32 32 32 30 29 30 31 32 32 32 32 32 31 30
31 31 31 31 30 30 32 35 36 36 33 29 29 29 29 29 28 27 27 27 28 30 29 28 28 28 27 29 30 30 32 33 32 30 29 28 28 28 30 30 30 29 29 28
31 32 32 31 30 32 31 34 35 35 32 30 28 27 27 27 26 26 26 25 26 28 29 28 27 26 26 28 28 30 31 32 30 30 28 28 27 26 26 28 28 27 28 28
30 30 29 26 30 33 31 34 35 31 31 27 25 25 25 25 25 25 24 24 23 24 25 25 25 26 26 26 26 29 30 30 29 28 28 28 27 25 24 24 25 29 29 30

GFSCGP_sfc_dewp_117.txt.gz
Dewpoint
24 15 20 23 19 14 13 15 12 17 20 20 20 20 19 21 21 22 23 24 25 26 27 28 29 30 31 38 44 56 64 65 66 65 65 64 64 64 63 64 65 66 65 66
26 20 17 19 28 22 13 11 16 18 20 23 22 26 21 26 22 20 21 24 26 30 30 28 28 37 37 42 46 46 58 65 66 65 64 64 64 64 63 63 64 64 64 65
24 26 20 19 25 27 12 10 12 17 28 31 27 27 28 29 23 23 22 24 28 30 30 32 38 39 42 44 44 45 48 51 60 64 63 63 62 62 61 61 62 63 63 64
27 26 27 23 22 26 10 10 10 13 16 28 29 20 25 28 23 22 22 22 26 29 31 31 40 42 42 44 48 48 51 51 52 53 59 61 61 59 60 61 61 62 64 64
25 29 33 32 28 24 12 13 9 12 22 30 28 26 22 22 21 21 23 25 22 27 25 32 39 41 42 45 48 50 51 51 52 53 55 61 60 61 60 60 60 60 63 64
29 30 32 32 30 22 13 12 13 26 30 27 24 23 20 19 20 21 22 24 25 27 35 38 39 42 46 46 47 47 47 48 50 53 54 61 60 60 59 60 60 61 61 63
17 21 26 32 29 27 11 8 22 24 25 20 22 20 21 21 21 21 22 24 34 33 35 38 43 44 44 45 45 45 46 46 47 49 51 54 61 60 59 60 60 60 60 61
22 25 29 30 31 20 13 24 23 19 18 17 18 19 19 22 22 23 22 34 36 35 40 43 43 42 43 44 45 45 44 44 45 48 50 51 53 61 60 60 61 60 60 61
27 24 30 31 33 30 20 20 25 26 26 24 18 17 19 21 25 28 32 33 35 39 41 41 42 42 43 44 45 44 44 44 44 45 47 48 52 58 60 60 60 61 61 61
31 26 29 34 36 24 19 21 24 30 23 23 28 19 21 27 32 37 43 41 42 42 42 42 42 43 43 44 44 44 43 42 42 43 44 46 49 52 60 60 59 61 61 61
32 31 27 30 29 24 23 20 26 30 24 20 25 28 31 33 33 40 44 45 44 41 40 40 40 41 41 41 41 41 41 41 41 41 42 44 46 51 59 59 59 60 60 60
33 32 28 23 28 25 28 27 23 22 22 21 25 29 38 42 42 44 44 42 41 39 39 39 39 39 39 39 39 39 39 39 40 40 41 43 46 56 58 58 59 60 59 60
33 30 25 25 25 30 28 24 21 23 26 18 22 29 41 41 42 40 38 39 39 38 37 37 37 36 37 37 37 37 38 38 38 39 39 42 45 58 58 58 59 59 59 59
36 32 30 23 27 33 30 30 28 20 20 19 26 33 38 40 39 39 38 38 36 36 35 35 35 34 35 36 36 36 36 37 38 37 38 41 44 56 58 58 58 58 58 58
29 28 30 29 29 34 34 31 30 26 25 20 29 35 38 38 39 38 36 34 34 34 34 34 34 34 33 34 34 35 36 36 37 37 38 40 44 55 57 58 58 58 57 56
29 28 30 27 26 27 28 31 29 29 29 29 32 37 39 40 38 35 34 33 32 33 33 33 33 32 32 32 33 34 35 35 36 36 37 39 47 55 56 57 57 57 56 55
28 28 27 24 26 26 30 34 34 33 37 33 32 38 36 34 33 33 33 32 32 32 32 32 32 31 32 32 33 34 34 34 35 35 36 37 40 56 56 56 56 56 56 55
29 27 27 26 26 20 31 31 34 34 34 36 38 38 36 34 32 32 32 31 31 31 31 32 32 31 31 32 32 34 33 33 32 33 34 35 37 45 56 56 56 56 56 55
31 28 26 23 23 28 27 30 31 33 32 35 37 35 33 33 32 31 31 31 30 31 31 32 32 31 32 31 32 33 32 31 31 31 32 34 36 38 54 55 55 56 55 55
31 32 27 24 21 21 28 31 33 33 26 36 35 35 35 35 32 30 30 31 29 29 30 31 32 30 31 31 31 33 32 31 30 30 32 33 35 35 38 51 55 54 48 42
27 27 25 25 23 28 31 33 33 24 28 35 36 35 31 30 31 31 30 29 29 29 29 29 30 29 29 31 31 30 31 30 30 31 31 32 33 34 34 38 45 42 37 35
27 23 20 25 22 20 35 31 28 33 37 36 36 34 32 32 31 30 29 28 28 28 28 28 28 28 29 30 30 29 30 31 31 30 29 29 31 33 33 33 35 35 34 31
28 29 28 27 26 33 34 34 36 36 32 30 30 31 30 29 29 28 28 28 28 29 28 29 28 27 27 28 29 27 31 31 31 29 27 27 29 30 32 31 31 30 31 29
32 33 29 31 30 31 30 32 35 35 35 31 28 27 28 28 27 27 27 27 29 29 28 28 27 25 25 26 28 29 31 32 30 29 28 27 26 27 29 29 30 29 28 27
31 29 26 28 29 31 30 32 33 32 32 29 29 28 28 27 26 25 24 24 25 27 27 27 26 25 24 26 27 29 29 30 30 29 29 27 26 26 27 28 28 28 29 29
30 28 26 25 29 31 29 32 32 29 30 28 26 25 24 25 24 24 23 23 23 24 25 24 24 24 24 25 26 28 29 28 28 28 28 28 27 26 25 26 26 30 31 32